[[{"header":{"parameterUnit":"m.s-1","parameterCategory":1,"la1":31.0,"la2":29.5877,"lo1":-88.7671,"lo2":-86.6584,"dy":0.0162,"dx":0.0185,"nx":115,"ny":88,"refTime":"2023-11-02T00:00:00:Z","depth":0,"parameterNumber":2,"parameterNumberName":"U-component_of_WINDS"},"data":[0.0,0.0,0.0,0.0,0.0,0.0,0.0,0.0,0.0,0.0,0.0,0.0,0.0,0.0,0.0,0.0,0.0,0.0,0.0,0.0,0.0,0.0,0.0,0.0,0.0,0.0,0.0,0.0,0.0,0.0,0.0,0.0,0.0,0.0,0.0,0.0,0.0,0.0,0.0,0.0,0.0,0.0,0.0,0.0,0.0,0.0,0.0,0.0,0.0,0.0,0.0,0.0,0.0,0.0,0.0,0.0,0.0,0.0,0.0,0.0,0.0,0.0,0.0,0.0,0.0,0.0,0.0,0.0,0.0,0.0,0.0,0.0,0.0,0.0,0.0,0.0,0.0,0.0,0.0,0.0,0.0,0.0,0.0,0.0,0.0,0.0,0.0,0.0,0.0,0.0,0.0,0.0,0.0,0.0,0.0,0.0,0.0,0.0,0.0,0.0,0.0,0.0,0.0,0.0,0.0,0.0,0.0,0.0,0.0,0.0,0.0,0.0,0.0,0.0,0.0,0.0,0.0,0.0,0.0,0.0,0.0,0.0,0.0,0.0,0.0,0.0,0.0,0.0,0.0,0.0,0.0,0.0,0.0,0.0,0.0,0.0,0.0,0.0,0.0,0.0,0.0,0.0,0.0,0.0,0.0,0.0,0.0,0.0,0.0,0.0,0.0,0.0,0.0,0.0,0.0,0.0,0.0,0.0,0.0,0.0,0.0,0.0,0.0,0.0,0.0,0.0,0.0,0.0,0.0,0.0,0.0,0.0,0.0,0.0,0.0,0.0,0.0,0.0,0.0,0.0,0.0,0.0,0.0,0.0,0.0,0.0,0.0,0.0,0.0,0.0,0.0,0.0,0.0,0.0,0.0,0.0,0.0,0.0,0.0,0.0,0.0,0.0,0.0,0.0,0.0,0.0,0.0,0.0,0.0,0.0,0.0,0.0,0.0,0.0,0.0,0.0,0.0,0.0,0.0,0.0,0.0,0.0,0.0,0.0,0.0,0.0,0.0,0.0,0.0,0.0,0.0,0.0,0.0,0.0,0.0,0.0,0.0,0.0,0.0,0.0,0.0,0.0,0.0,0.0,0.0,0.0,0.0,0.0,0.0,0.0,0.0,0.0,0.0,0.0,0.0,0.0,0.0,0.0,0.0,0.0,0.0,0.0,0.0,0.0,0.0,0.0,0.0,0.0,0.0,0.0,0.0,0.0,0.0,0.0,0.0,0.0,0.0,0.0,0.0,0.0,0.0,0.0,0.0,0.0,0.0,0.0,0.0,0.0,0.0,0.0,0.0,0.0,0.0,0.0,0.0,0.0,0.0,0.0,0.0,0.0,0.0,0.0,0.0,0.0,0.0,0.0,0.0,0.0,0.0,0.0,0.0,0.0,0.0,0.0,0.0,0.0,0.0,0.0,0.0,0.0,0.0,0.0,0.0,0.0,0.0,0.0,0.0,0.0,0.0,0.0,0.0,0.0,0.0,0.0,0.0,0.0,0.0,0.0,0.0,0.0,0.0,0.0,0.0,0.0,0.0,0.0,0.0,0.0,0.0,0.0,0.0,0.0,0.0,0.0,0.0,0.0,0.0,0.0,0.0,0.0,0.0,0.0,0.0,0.0,0.0,0.0,0.0,0.0,0.0,0.0,0.0,0.0,0.0,0.0,0.0,0.0,0.0,0.0,0.0,0.0,0.0,0.0,0.0,0.0,0.0,0.0,0.0,0.0,0.0,0.0,0.0,0.0,0.0,0.0,0.0,0.0,0.0,0.0,0.0,0.0,0.0,0.0,0.0,0.0,0.0,0.0,0.0,0.0,0.0,0.0,0.0,0.0,0.0,0.0,0.0,0.0,0.0,0.0,0.0,0.0,0.0,0.0,0.0,0.0,0.0,0.0,0.0,0.0,0.0,0.0,0.0,0.0,0.0,0.0,0.0,0.0,0.0,0.0,0.0,0.0,0.0,0.0,0.0,0.0,0.0,0.0,0.0,0.0,0.0,0.0,0.0,0.0,0.0,0.0,0.0,0.0,0.0,0.0,0.0,0.0,0.0,0.0,0.0,0.0,0.0,0.0,0.0,0.0,0.0,0.0,0.0,0.0,0.0,0.0,0.0,0.0,0.0,0.0,0.0,0.0,0.0,0.0,0.0,0.0,0.0,0.0,0.0,0.0,0.0,0.0,0.0,0.0,0.0,0.0,0.0,0.0,0.0,0.0,0.0,0.0,0.0,0.0,0.0,0.0,0.0,0.0,0.0,0.0,0.0,0.0,0.0,0.0,0.0,0.0,0.0,0.0,0.0,0.0,0.0,0.0,0.0,0.0,0.0,0.0,0.0,0.0,0.0,0.0,0.0,0.0,0.0,0.0,0.0,0.0,0.0,0.0,0.0,0.0,0.0,0.0,0.0,0.0,0.0,0.0,0.0,0.0,0.0,0.0,0.0,0.0,0.0,0.0,0.0,0.0,0.0,0.0,0.0,0.0,0.0,0.0,0.0,0.0,0.0,0.0,0.0,0.0,0.0,0.0,0.0,0.0,0.0,0.0,0.0,0.0,0.0,0.0,0.0,0.0,0.0,0.0,0.0,0.0,0.0,0.0,0.0,0.0,0.0,0.0,0.0,0.0,0.0,0.0,0.0,0.0,0.0,0.0,0.0,0.0,0.0,0.0,0.0,0.0,0.0,0.0,0.0,0.0,0.0,0.0,0.0,0.0,0.0,0.0,0.0,0.0,0.0,0.0,0.0,0.0,0.0,0.0,0.0,0.0,0.0,0.0,0.0,0.0,0.0,0.0,0.0,0.0,0.0,0.0,0.0,0.0,0.0,0.0,0.0,0.0,0.0,0.0,0.0,0.0,0.0,0.0,0.0,0.0,0.0,0.0,0.0,0.0,0.0,0.0,0.0,0.0,0.0,0.0,0.0,0.0,0.0,0.0,0.0,0.0,0.0,0.0,0.0,0.0,0.0,0.0,0.0,0.0,0.0,0.0,0.0,0.0,0.0,0.0,0.0,0.0,0.0,0.0,0.0,0.0,0.0,0.0,0.0,0.0,0.0,0.0,0.0,0.0,0.0,0.0,0.0,0.0,0.0,0.0,0.0,0.0,0.0,0.0,0.0,0.0,0.0,0.0,0.0,0.0,0.0,0.0,0.0,0.0,0.0,0.0,0.0,0.0,0.0,0.0,0.0,0.0,0.0,0.0,0.0,0.0,0.0,0.0,0.0,0.0,0.0,0.0,0.0,0.0,0.0,0.0,0.0,0.0,0.0,0.0,0.0,0.0,0.0,0.0,0.0,0.0,0.0,0.0,0.0,0.0,0.0,0.0,0.0,0.0,0.0,0.0,0.0,0.0,0.0,0.0,0.0,0.0,0.0,0.0,0.0,0.0,0.0,0.0,0.0,0.0,0.0,0.0,0.0,0.0,0.0,0.0,0.0,0.0,0.0,0.0,0.0,0.0,0.0,0.0,0.0,0.0,0.0,0.0,0.0,0.0,0.0,0.0,0.0,0.0,0.0,0.0,0.0,0.0,0.0,0.0,0.0,0.0,0.0,0.0,0.0,0.0,0.0,0.0,0.0,0.0,0.0,0.0,0.0,0.0,0.0,0.0,0.0,0.0,0.0,0.0,0.0,0.0,0.0,0.0,0.0,0.0,0.0,0.0,0.0,0.0,0.0,0.0,0.0,0.0,0.0,0.0,0.0,0.0,0.0,0.0,0.0,0.0,0.0,0.0,0.0,0.0,0.0,0.0,0.0,0.0,0.0,0.0,0.0,0.0,0.0,0.0,0.0,0.0,0.0,0.0,0.0,0.0,0.0,0.0,0.0,0.0,0.0,0.0,0.0,0.0,0.0,0.0,0.0,0.0,0.0,0.0,0.0,0.0,0.0,0.0,0.0,0.0,0.0,0.0,0.0,0.0,0.0,0.0,0.0,0.0,0.0,0.0,0.0,0.0,0.0,0.0,0.0,0.0,0.0,0.0,0.0,0.0,0.0,0.0,0.0,0.0,0.0,0.0,0.0,0.0,0.0,0.0,0.0,0.0,0.0,0.0,0.0,0.0,0.0,0.0,0.0,0.0,0.0,0.0,0.0,0.0,0.0,0.0,0.0,0.0,0.0,0.0,0.0,0.0,0.0,0.0,0.0,0.0,0.0,0.0,0.0,0.0,0.0,0.0,0.0,0.0,0.0,0.0,0.0,0.0,0.0,0.0,0.0,0.0,0.0,0.0,0.0,0.0,0.0,0.0,0.0,0.0,0.0,0.0,0.0,0.0,0.0,0.0,0.0,0.0,0.4561,0.0,0.0,0.0,0.0,0.0,0.0,0.0,0.0,0.0,0.0,0.0,0.0,0.0,0.0,0.0,0.0,0.0,0.0,0.0,0.0,0.0,0.0,0.0,0.0,0.0,0.0,0.0,0.0,0.0,0.0,0.0,0.0,0.0,0.0,0.0,0.0,0.0,0.0,0.0,0.0,0.0,0.0,0.0,0.0,0.0,0.0,0.0,0.0,0.0,0.0,0.0,0.0,0.0,0.0,0.0,0.0,0.0,0.0,0.0,0.0,0.0,0.0,0.0,0.0,0.0,0.0,0.0,0.0,0.0,0.0,0.0,0.0,0.0,0.0,0.0,0.0,0.0,0.0,0.0,0.0,0.0,0.0,0.0,0.0,0.0,0.0,0.0,0.0,0.0,0.0,0.0,0.0,0.0,0.0,0.0,0.0,0.0,0.0,0.0,0.0,0.0,0.0,0.0,0.0,0.0,0.0,0.0,0.0,0.0,0.0,0.4983,0.4937,0.4967,0.5013,0.5026,0.0,0.0,0.0,0.0,0.0,0.0,0.0,0.0,0.0,0.0,0.0,0.0,0.0,0.0,0.0,0.0,0.0,0.0,0.0,0.0,0.0,0.0,0.0,0.0,0.0,0.0,0.0,0.0,0.0,0.0,0.0,0.0,0.0,0.0,0.0,0.0,0.0,0.0,0.0,0.0,0.0,0.0,0.0,0.0,0.0,0.0,0.0,0.0,0.0,0.0,0.0,0.0,0.0,0.0,0.0,0.0,0.0,0.0,0.0,0.0,0.0,0.0,0.0,0.0,0.0,0.0,0.0,0.0,0.0,0.0,0.0,0.0,0.0,0.0,0.0,0.0,0.0,0.0,0.0,0.0,0.0,0.0,0.0,0.0,0.0,0.0,0.0,0.0,0.0,0.0,0.0,0.0,0.0,0.0,0.0,0.0,0.0,0.0,0.0,0.0,0.0,0.0,0.0,0.0,0.0,0.0,0.0,0.0,0.0,0.0,0.0,0.0,0.5503,0.5545,0.5433,0.0,0.0,0.0,0.0,0.0,0.0,0.0,0.0,0.0,0.0,0.0,0.0,0.0,0.0,0.0,0.0,0.0,0.0,0.0,0.0,0.0,0.0,0.0,0.0,0.0,0.0,0.0,0.0,0.0,0.0,0.0,0.0,0.0,0.0,0.0,0.0,0.0,0.0,0.0,0.0,0.0,0.0,0.0,0.0,0.0,0.0,0.0,0.0,0.0,0.0,0.0,0.0,0.0,0.0,0.0,0.0,0.0,0.0,0.0,0.0,0.0,0.0,0.0,0.0,0.0,0.0,0.0,0.0,0.0,0.0,0.0,0.0,0.0,0.0,0.0,0.0,0.0,0.0,0.0,0.0,0.0,0.0,0.0,0.0,0.0,0.0,0.0,0.0,0.0,0.0,0.0,0.0,0.0,0.0,0.0,0.0,0.0,0.0,0.0,0.0,0.0,0.0,0.0,0.0,0.0,0.0,0.0,0.0,0.0,0.0,0.5756,0.5749,0.5653,0.0,0.5751,0.0,0.0,0.0,0.0,0.0,0.0,0.0,0.0,0.0,0.0,0.0,0.0,0.0,0.0,0.0,0.0,0.0,0.0,0.0,0.0,0.0,0.0,0.0,0.0,0.0,0.0,0.0,0.0,0.0,0.0,0.0,0.0,0.0,0.0,0.0,0.0,0.0,0.0,0.0,0.0,0.0,0.0,0.0,0.0,0.0,0.0,0.0,0.0,0.0,0.0,0.0,0.0,0.0,0.0,0.0,0.0,0.0,0.0,0.0,0.0,0.0,0.0,0.0,0.0,0.0,0.0,0.0,0.0,0.0,0.0,0.0,0.0,0.0,0.0,0.0,0.0,0.0,0.0,0.0,0.0,0.0,0.0,0.0,0.0,0.0,0.0,0.0,0.0,0.0,0.0,0.0,0.0,0.0,0.0,0.0,0.0,0.0,0.0,0.0,0.0,0.0,0.0,0.0,0.0,0.0,0.0,0.0,0.0,0.0,0.0,0.6189,0.6149,0.6143,0.6158,0.0,0.0,0.0,0.0,0.0,0.0,0.0,0.0,0.0,0.0,0.0,0.0,0.0,0.0,0.0,0.0,0.0,0.0,0.0,0.0,0.0,0.0,0.0,0.0,0.0,0.0,0.0,0.0,0.0,0.0,0.0,0.0,0.0,0.0,0.0,0.0,0.0,0.0,0.0,0.0,0.0,0.0,0.0,0.0,0.0,0.0,0.0,0.0,0.0,0.0,0.0,0.0,0.0,0.0,0.0,0.0,0.0,0.0,0.0,0.0,0.0,0.0,0.0,0.0,0.0,0.0,0.0,0.0,0.0,0.0,0.0,0.0,0.0,0.0,0.0,0.0,0.0,0.0,0.0,0.0,0.0,0.0,0.0,0.0,0.0,0.0,0.0,0.0,0.0,0.0,0.0,0.0,0.0,0.0,0.0,0.0,0.0,0.0,0.0,0.0,0.0,0.0,0.0,0.0,0.0,0.0,0.0,0.0,0.0,0.0,0.6554,0.6579,0.6526,0.6499,0.6498,0.6405,0.0,0.0,0.0,0.0,0.0,0.0,0.0,0.0,0.0,0.0,0.0,0.0,0.0,0.0,0.0,0.0,0.0,0.0,0.0,0.0,0.0,0.0,0.0,0.0,0.0,0.0,0.0,0.0,0.0,0.0,0.0,0.0,0.0,0.0,0.0,0.0,0.0,0.0,0.0,0.0,0.0,0.0,0.0,0.0,0.0,0.0,0.0,0.0,0.0,0.0,0.0,0.0,0.0,0.0,0.0,0.0,0.0,0.0,0.0,0.0,0.0,0.0,0.0,0.0,0.0,0.0,0.0,0.0,0.0,0.0,0.0,0.0,0.0,0.0,0.0,0.0,0.0,0.0,0.0,0.0,0.0,0.0,0.0,0.0,0.0,0.0,0.0,0.0,0.0,0.0,0.0,0.0,0.0,0.0,0.0,0.0,0.0,0.0,0.0,0.0,0.0,0.0,0.0,0.0,0.0,0.0,0.0,0.0,0.6795,0.6912,0.6935,0.6802,0.6656,0.6558,0.0,0.0,0.0,0.0,0.0,0.0,0.0,0.0,0.0,0.0,0.0,0.0,0.0,0.0,0.0,0.0,0.0,0.0,0.0,0.0,0.0,0.0,0.0,0.0,0.0,0.0,0.0,0.0,0.0,0.0,0.0,0.0,0.0,0.0,0.0,0.0,0.0,0.0,0.0,0.0,0.0,0.0,0.0,0.0,0.0,0.0,0.0,0.0,0.0,0.0,0.0,0.0,0.0,0.0,0.0,0.0,0.0,0.0,0.0,0.0,0.0,0.0,0.0,0.0,0.0,0.0,0.0,0.0,0.0,0.0,0.0,0.0,0.0,0.0,0.0,0.0,0.0,0.0,0.0,0.0,0.0,0.0,0.0,0.0,0.0,0.0,0.0,0.0,0.0,0.0,0.0,0.0,0.0,0.0,0.0,0.0,0.0,0.0,0.0,0.0,0.0,0.0,0.0,0.0,0.0,0.0,0.0,0.0,0.0,0.7416,0.7577,0.7625,0.7567,0.7179,0.6972,0.0,0.0,0.0,0.0,0.0,0.0,0.0,0.0,0.0,0.0,0.0,0.0,0.0,0.0,0.0,0.0,0.0,0.0,0.0,0.0,0.0,0.0,0.0,0.0,0.0,0.0,0.0,0.0,0.0,0.0,0.0,0.0,0.0,0.0,0.0,0.0,0.0,0.0,0.0,0.0,0.0,0.0,0.0,0.0,0.0,0.0,0.0,0.0,0.0,0.0,0.0,0.0,0.0,0.0,0.0,0.0,0.0,0.0,0.0,0.0,0.0,0.0,0.0,0.0,0.0,0.0,0.0,0.0,0.0,0.0,0.0,0.0,0.0,0.0,0.0,0.0,0.0,0.0,0.0,0.0,0.0,0.0,0.0,0.0,0.0,0.0,0.0,0.0,0.0,0.0,0.0,0.0,0.0,0.0,0.0,0.0,0.0,0.0,0.0,0.0,0.0,0.0,0.0,0.0,0.0,0.0,0.0,0.0,0.0,0.803,0.0,0.8182,0.8075,0.7747,0.7433,0.0,0.0,0.0,0.0,0.0,0.0,0.0,0.0,0.0,0.0,0.0,0.0,0.0,0.0,0.0,0.0,0.0,0.0,0.0,0.0,0.0,0.0,0.0,0.0,0.0,0.0,0.0,0.0,0.0,0.0,0.0,0.0,0.0,0.0,0.0,0.0,0.0,0.0,0.0,0.0,0.0,0.0,0.0,0.0,0.0,0.0,0.0,0.0,0.0,0.0,0.0,0.0,0.0,0.0,0.0,0.0,0.0,0.0,0.0,0.0,0.0,0.0,0.0,0.0,0.0,0.0,0.0,0.0,0.0,0.0,0.0,0.0,0.0,0.0,0.0,0.0,0.0,0.0,0.0,0.0,0.0,0.0,0.0,0.0,0.0,0.0,0.0,0.0,0.0,0.0,0.0,0.0,0.0,0.0,0.0,0.0,0.0,0.0,0.0,0.0,0.0,0.0,0.0,0.0,0.0,0.0,0.0,0.0,0.8111,0.8583,0.8692,0.8621,0.8324,0.8296,0.7898,0.0,0.0,0.0,0.0,0.0,0.0,0.0,0.0,0.0,0.0,0.0,0.0,0.0,0.0,0.0,0.0,0.0,0.0,0.0,0.0,0.0,0.0,0.0,0.0,0.0,0.0,0.0,0.0,0.0,0.0,0.0,0.0,0.0,0.0,0.0,0.0,0.0,0.0,0.0,0.0,0.0,0.0,0.0,0.0,0.0,0.0,0.0,0.0,0.0,0.0,0.0,0.0,0.0,0.0,0.0,0.0,0.0,0.0,0.0,0.0,0.0,0.0,0.0,0.0,0.0,0.0,0.0,0.0,0.0,0.0,0.0,0.0,0.0,0.0,0.0,0.0,0.0,0.0,0.0,0.0,0.0,0.0,0.0,0.0,0.0,0.0,0.0,0.0,0.0,0.0,0.0,0.0,0.0,0.0,0.0,0.0,0.0,0.0,0.0,0.0,0.0,0.0,0.0,0.0,0.0,0.0,0.0,0.0,0.0,0.9565,0.9592,0.951,0.9335,0.8931,0.8535,0.0,0.0,0.0,0.0,0.0,0.0,0.0,0.0,0.0,0.0,0.0,0.0,0.0,0.0,0.0,0.0,0.0,0.0,0.0,0.0,0.0,0.0,0.0,0.0,0.0,0.0,0.0,0.0,0.0,0.0,0.0,0.0,0.0,0.0,0.0,0.0,0.0,0.0,0.0,0.0,0.0,0.0,0.0,0.0,0.0,0.0,0.0,0.0,0.0,0.0,0.0,0.0,0.0,0.0,0.0,0.0,0.0,0.0,0.0,0.0,0.0,0.0,0.0,0.0,0.0,0.0,0.0,0.0,0.0,0.0,0.0,0.0,0.0,0.0,0.0,0.0,0.0,0.0,0.0,0.0,0.0,0.0,0.0,0.0,0.0,0.0,0.0,0.0,0.0,0.0,0.0,0.0,0.0,0.0,0.0,0.0,0.0,0.0,0.0,0.0,0.0,0.0,0.0,0.0,0.0,0.0,0.0,0.0,0.0,1.092,1.0804,1.0504,1.0051,0.9652,0.9156,0.8502,0.0,0.0,0.0,0.0,0.0,0.0,0.0,0.0,0.0,0.0,0.0,0.0,0.0,0.0,0.0,0.0,0.0,0.0,0.0,0.0,0.0,0.0,0.0,0.0,0.0,0.0,0.0,0.0,0.0,0.0,0.0,0.0,0.0,0.0,0.0,0.0,0.0,0.0,0.0,0.0,0.0,0.0,0.0,0.0,0.0,0.0,0.0,0.0,0.0,0.0,0.0,0.0,0.0,0.0,0.0,0.0,0.0,0.0,0.0,0.0,0.0,0.0,0.0,0.0,0.0,0.0,0.0,0.0,0.0,0.0,0.0,0.0,0.0,0.0,0.0,0.0,0.0,0.0,0.0,0.0,0.0,0.0,0.0,0.0,0.0,0.0,0.0,0.0,0.0,0.0,0.0,0.0,0.0,0.0,0.0,0.0,0.0,0.0,0.0,0.0,0.0,0.0,0.0,0.0,0.0,0.0,0.0,0.0,1.2504,1.2226,1.1535,1.048,1.0448,0.9781,0.0,0.0,0.0,0.0,0.0,0.0,0.0,0.0,0.0,0.0,0.0,0.0,0.0,0.0,0.0,0.0,0.0,0.0,0.0,0.0,0.0,0.0,0.0,0.0,0.0,0.0,0.0,0.0,0.0,0.0,0.0,0.0,0.0,0.0,0.0,0.0,0.0,0.0,0.0,0.0,0.0,0.0,0.0,0.0,0.0,0.0,0.0,0.0,0.0,0.0,0.0,0.0,0.0,0.0,0.0,0.0,0.0,0.0,0.0,0.0,0.0,0.0,0.0,0.0,0.0,0.0,0.0,0.0,0.0,0.0,0.0,0.0,0.0,0.0,0.0,0.0,0.0,0.0,0.0,0.0,0.0,0.0,0.0,0.0,0.0,0.0,0.0,0.0,0.0,0.0,0.0,0.0,0.0,0.0,0.0,0.0,0.0,0.0,0.0,0.0,0.0,0.0,0.0,0.0,0.0,0.0,0.0,0.0,0.0,1.2734,1.2963,1.2444,1.1128,1.0964,1.0466,0.0,0.0,0.0,0.0,0.0,0.0,0.0,0.0,0.0,0.0,0.0,0.0,0.0,0.0,0.0,0.0,0.0,0.0,0.0,0.0,0.0,0.0,0.0,0.0,0.0,0.0,0.0,0.0,0.0,0.0,0.0,0.0,0.0,0.0,0.0,0.0,0.0,0.0,0.0,0.0,0.0,0.0,0.0,0.0,0.0,0.0,0.0,0.0,0.0,0.0,0.0,0.0,0.0,0.0,0.0,0.0,0.0,0.0,0.0,0.0,0.0,0.0,0.0,0.0,0.0,0.0,0.0,0.0,0.0,0.0,0.0,0.0,0.0,0.0,0.0,0.0,0.0,0.0,0.0,0.0,0.0,0.0,0.0,0.0,0.0,0.0,0.0,0.0,0.0,0.0,0.0,0.0,0.0,0.0,0.0,0.0,0.0,0.0,0.0,0.0,0.0,0.0,0.0,0.0,0.0,0.0,0.0,0.0,1.3182,1.3124,1.3374,1.304,1.2068,1.1607,1.0931,0.0,0.0,0.0,0.0,0.0,0.0,0.0,0.0,0.0,0.0,0.0,0.0,0.0,0.0,0.0,0.0,0.0,0.0,0.0,0.0,0.0,0.0,0.0,0.0,0.0,0.0,0.0,0.0,0.0,0.0,0.0,0.0,0.0,0.0,0.0,0.0,0.0,0.0,0.0,0.0,0.0,0.0,0.0,0.0,0.0,0.0,0.0,0.0,0.0,0.0,0.0,0.0,0.0,0.0,0.0,0.0,0.0,0.0,0.0,0.0,0.0,0.0,0.0,0.0,0.0,0.0,0.0,0.0,0.0,0.0,0.0,0.0,0.0,0.0,0.0,0.0,0.0,0.0,0.0,0.0,0.0,0.0,0.0,0.0,0.0,0.0,0.0,0.0,0.0,0.0,0.0,0.0,0.0,0.0,0.0,0.0,0.0,0.0,0.0,0.0,0.0,0.0,0.0,0.0,0.0,0.0,0.0,0.0,1.322,1.3617,1.3597,1.3427,1.3093,1.2272,1.1322,0.0,0.0,0.0,0.0,0.0,0.0,0.0,0.0,0.0,0.0,0.0,0.0,0.0,0.0,0.0,0.0,0.0,0.0,0.0,0.0,0.0,0.0,0.0,0.0,0.0,0.0,0.0,0.0,0.0,0.0,0.0,0.0,0.0,0.0,0.0,0.0,0.0,0.0,0.0,0.0,0.0,0.0,0.0,0.0,0.0,0.0,0.0,0.0,0.0,0.0,0.0,0.0,0.0,0.0,0.0,0.0,0.0,0.0,0.0,0.0,0.0,0.0,0.0,0.0,0.0,0.0,0.0,0.0,0.0,0.0,0.0,0.0,0.0,0.0,0.0,0.0,0.0,0.0,0.0,0.0,0.0,0.0,0.0,0.0,0.0,0.0,0.0,0.0,0.0,0.0,0.0,0.0,0.0,0.0,0.0,0.0,0.0,0.0,0.0,0.0,0.0,0.0,0.0,0.0,0.0,0.0,0.0,0.0,1.3799,1.3684,1.3968,1.3801,1.3101,1.2709,1.214,0.0,0.0,0.0,0.0,0.0,0.0,0.0,0.0,0.0,0.0,0.0,0.0,0.0,0.0,0.0,0.0,0.0,0.0,0.0,0.0,0.0,0.0,0.0,0.0,0.0,0.0,0.0,0.0,0.0,0.0,0.0,0.0,0.0,0.0,0.0,0.0,0.0,0.0,0.0,0.0,0.0,0.0,0.0,0.0,0.0,0.0,0.0,0.0,1.2782,0.0,0.0,0.0,0.0,0.0,0.0,0.0,0.0,0.0,0.0,0.0,0.0,0.0,0.0,0.0,0.0,0.0,0.0,0.0,0.0,0.0,0.0,0.0,0.0,0.0,0.0,0.0,0.0,0.0,0.0,0.0,0.0,0.0,0.0,0.0,0.0,0.0,0.0,0.0,0.0,0.0,0.0,0.0,0.0,0.0,0.0,0.0,0.0,0.0,0.0,0.0,0.0,0.0,0.0,0.0,0.0,0.0,0.0,0.0,1.4153,1.3968,1.4256,1.4182,1.3622,1.3243,1.2609,0.0,0.0,0.0,0.0,0.0,0.0,0.0,0.0,0.0,0.0,0.0,0.0,0.0,0.0,0.0,0.0,0.0,0.0,0.0,0.0,0.0,0.0,0.0,0.0,0.0,0.0,0.0,0.0,0.0,0.0,0.0,0.0,0.0,0.0,0.0,0.0,0.0,0.0,0.0,0.0,0.0,0.0,0.0,0.0,0.0,0.0,0.0,0.0,0.0,0.0,0.0,0.0,0.0,0.0,0.0,0.0,0.0,0.0,0.0,0.0,0.0,0.0,0.0,0.0,0.0,0.0,0.0,0.0,0.0,0.0,0.0,0.0,0.0,0.0,0.0,0.0,0.0,0.0,0.0,0.0,0.0,0.0,0.0,0.0,0.0,0.0,0.0,0.0,0.0,0.0,0.0,0.0,0.0,0.0,0.0,0.0,0.0,0.0,0.0,0.0,0.0,0.0,0.0,0.0,0.0,0.0,0.0,1.3964,1.4388,1.4304,1.457,1.4541,1.421,1.3695,1.2928,1.1935,0.0,0.0,0.0,0.0,0.0,0.0,0.0,0.0,0.0,0.0,0.0,0.0,0.0,0.0,0.0,0.0,0.0,0.0,0.0,0.0,0.0,0.0,0.0,0.0,0.0,0.0,0.0,0.0,0.0,0.0,0.0,0.0,0.0,0.0,0.0,0.0,0.0,0.0,1.1167,1.2494,0.0,0.0,0.0,0.0,0.0,0.0,0.0,0.0,1.3343,0.0,0.0,0.0,0.0,0.0,0.0,0.0,0.0,0.0,0.0,0.0,0.0,0.0,0.0,0.0,0.0,0.0,0.0,0.0,0.0,0.0,0.0,0.0,0.0,0.0,0.0,0.0,0.0,0.0,0.0,0.0,0.0,0.0,0.0,0.0,0.0,0.0,0.0,0.0,0.0,0.0,0.0,0.0,0.0,0.0,0.0,0.0,0.0,0.0,0.0,0.0,0.0,0.0,0.0,0.0,0.0,1.3792,1.4423,1.4737,1.4792,1.5038,1.4873,1.4233,1.3754,1.3262,1.2774,0.0,0.0,0.0,0.0,0.0,0.0,0.0,0.0,0.0,0.0,0.0,0.0,0.0,0.0,0.0,0.0,0.0,0.0,0.0,0.0,0.0,0.0,0.0,0.0,0.0,0.0,0.0,0.0,0.0,0.0,0.0,0.0,0.0,0.0,0.0,0.0,0.0,0.0,0.0,1.356,1.4068,0.0,0.0,0.0,0.0,0.0,0.0,0.0,0.0,1.4413,0.0,0.0,0.0,0.0,0.0,0.0,0.0,0.0,0.0,0.0,0.0,0.0,0.0,0.0,0.0,0.0,0.0,0.0,0.0,0.0,0.0,0.0,0.0,0.0,0.0,0.0,0.0,0.0,0.0,0.0,0.0,0.0,0.0,0.0,0.0,0.0,0.0,0.0,0.0,0.0,0.0,0.0,0.0,0.0,0.0,0.0,0.0,0.0,0.0,0.0,0.0,0.0,0.0,0.0,0.0,1.3821,1.4375,1.4664,1.4707,1.481,1.4657,1.4218,1.3748,1.3479,0.0,0.0,0.0,0.0,0.0,0.0,0.0,0.0,0.0,0.0,0.0,0.0,0.0,0.0,0.0,0.0,0.0,0.0,0.0,0.0,0.0,0.0,0.0,0.0,0.0,0.0,0.0,0.0,0.0,0.0,0.0,0.0,0.0,0.0,0.0,0.0,0.0,0.0,0.0,0.0,1.4217,1.4859,1.5245,0.0,0.0,0.0,0.0,0.0,0.0,1.5351,1.5312,0.0,0.0,0.0,0.0,0.0,0.0,0.0,0.0,0.0,0.0,0.0,0.0,0.0,0.0,0.0,0.0,0.0,0.0,0.0,0.0,0.0,0.0,0.0,0.0,0.0,0.0,0.0,0.0,0.0,0.0,0.0,0.0,0.0,0.0,0.0,0.0,0.0,0.0,0.0,0.0,0.0,0.0,0.0,0.0,0.0,0.0,0.0,0.0,0.0,0.0,0.0,0.0,0.0,0.0,0.0,1.3886,1.4394,1.4695,1.4794,1.4798,1.4708,1.4471,1.4015,1.3826,0.0,0.0,0.0,0.0,0.0,0.0,0.0,0.0,0.0,0.0,0.0,0.0,0.0,0.0,0.0,0.0,0.0,0.0,0.0,0.0,0.0,0.0,0.0,0.0,0.0,0.0,0.0,0.0,0.0,0.0,0.0,0.0,0.0,0.0,0.0,0.0,0.0,0.0,0.0,0.0,0.0,1.5609,1.5975,1.6449,0.0,0.0,0.0,0.0,1.6399,1.6308,0.0,0.0,0.0,0.0,0.0,0.0,0.0,0.0,0.0,0.0,0.0,0.0,0.0,0.0,0.0,0.0,0.0,0.0,0.0,0.0,0.0,0.0,0.0,0.0,0.0,0.0,0.0,0.0,0.0,0.0,0.0,0.0,0.0,0.0,0.0,0.0,0.0,0.0,0.0,0.0,0.0,0.0,0.0,0.0,0.0,0.0,0.0,0.0,0.0,0.0,0.0,0.0,0.0,0.0,0.0,0.0,1.4558,1.4991,1.5411,1.5801,1.5815,1.5707,1.5429,1.4977,1.4563,0.0,0.0,0.0,0.0,0.0,0.0,0.0,0.0,0.0,0.0,0.0,0.0,0.0,0.0,0.0,0.0,0.0,0.0,0.0,0.0,0.0,0.0,0.0,0.0,0.0,0.0,0.0,0.0,0.0,0.0,0.0,0.0,0.0,0.0,0.0,0.0,0.0,0.0,0.0,0.0,0.0,1.6119,1.6165,1.6464,1.6839,0.0,0.0,1.7318,1.7557,1.754,0.0,0.0,0.0,0.0,0.0,0.0,0.0,0.0,0.0,0.0,0.0,0.0,0.0,0.0,0.0,0.0,0.0,0.0,0.0,0.0,0.0,0.0,0.0,0.0,0.0,0.0,0.0,0.0,0.0,0.0,0.0,0.0,0.0,0.0,0.0,0.0,0.0,0.0,0.0,0.0,0.0,0.0,0.0,0.0,0.0,0.0,0.0,0.0,0.0,0.0,0.0,0.0,0.0,0.0,0.0,1.3464,1.4506,1.495,1.5381,1.5761,1.5592,1.5455,1.5378,1.4977,1.4554,0.0,0.0,0.0,0.0,0.0,0.0,0.0,0.0,0.0,0.0,0.0,0.0,0.0,0.0,0.0,0.0,0.0,0.0,0.0,0.0,0.0,0.0,0.0,0.0,0.0,0.0,0.0,0.0,0.0,0.0,0.0,0.0,0.0,0.0,0.0,0.0,0.0,0.0,0.0,0.0,0.0,0.0,1.7154,1.7479,0.0,0.0,0.0,1.8303,1.8417,0.0,0.0,0.0,0.0,0.0,0.0,0.0,0.0,0.0,0.0,0.0,0.0,0.0,0.0,0.0,0.0,0.0,0.0,0.0,0.0,0.0,0.0,0.0,0.0,0.0,0.0,0.0,0.0,0.0,0.0,0.0,0.0,0.0,0.0,0.0,0.0,0.0,0.0,0.0,0.0,0.0,0.0,0.0,0.0,0.0,0.0,0.0,0.0,0.0,0.0,0.0,0.0,0.0,0.0,0.0,0.0,0.0,1.4437,1.4947,1.5382,1.5709,1.5588,1.5512,1.5456,1.506,0.0,0.0,0.0,0.0,0.0,0.0,0.0,0.0,0.0,0.0,0.0,0.0,0.0,0.0,0.0,0.0,0.0,0.0,0.0,0.0,0.0,0.0,0.0,0.0,0.0,0.0,0.0,0.8737,0.0,0.0,0.0,0.0,0.0,0.0,0.0,0.0,0.0,0.0,0.0,0.0,0.0,0.0,1.8037,1.8171,1.8577,1.8823,0.0,0.0,1.9353,1.9222,1.9057,1.8947,0.0,0.0,0.0,0.0,0.0,0.0,0.0,0.0,0.0,0.0,0.0,0.0,0.0,0.0,0.0,0.0,0.0,0.0,0.0,0.0,0.0,0.0,0.0,0.0,0.0,0.0,0.0,0.0,0.0,0.0,0.0,0.0,0.0,0.0,0.0,0.0,0.0,0.0,0.0,0.0,0.0,0.0,0.0,0.0,0.0,0.0,0.0,0.0,0.0,0.0,0.0,0.0,0.0,0.0,1.3731,1.4667,1.5194,1.5648,1.6045,1.6392,1.6484,1.6237,1.5762,1.537,0.0,0.0,0.0,0.0,0.0,0.0,0.0,0.0,0.0,0.0,0.0,0.0,0.0,0.0,0.0,0.0,0.0,0.0,0.0,0.0,0.0,0.0,0.0,0.0,0.0,0.0,0.0,0.0,0.0,0.0,0.0,0.0,0.0,0.0,0.0,0.0,0.0,0.0,0.0,0.0,0.0,1.8838,1.892,1.9492,1.9998,0.0,2.0377,2.0313,2.0071,2.0061,1.979,1.8887,0.0,0.0,0.0,0.0,0.0,0.0,0.0,0.0,0.0,0.0,0.0,0.0,0.0,0.0,0.0,0.0,0.0,0.0,0.0,0.0,0.0,0.0,0.0,0.0,0.0,0.0,0.0,0.0,0.0,0.0,0.0,0.0,0.0,0.0,0.0,0.0,0.0,0.0,0.0,0.0,0.0,0.0,0.0,0.0,0.0,0.0,0.0,0.0,0.0,0.0,0.0,0.0,0.0,1.3442,1.4504,1.5081,1.5608,1.6096,1.6234,1.6412,1.6591,1.5678,1.5226,0.0,0.0,0.0,0.0,0.0,0.0,0.0,0.0,0.0,0.0,0.0,0.0,0.0,0.0,0.0,0.0,0.0,0.0,0.0,0.0,0.0,0.0,0.0,0.0,0.0,0.0,0.0,0.0,1.2327,1.2864,1.3379,0.0,0.0,0.0,0.0,0.0,0.0,0.0,0.0,0.0,0.0,1.9551,1.9666,2.0291,0.0,0.0,2.0807,2.0877,2.0725,2.0416,2.0136,1.9841,1.941,0.0,0.0,0.0,0.0,0.0,0.0,0.0,0.0,0.0,0.0,0.0,0.0,0.0,0.0,0.0,0.0,0.0,0.0,0.0,0.0,0.0,0.0,0.0,0.0,0.0,0.0,0.0,0.0,0.0,0.0,0.0,0.0,0.0,0.0,0.0,0.0,0.0,0.0,0.0,0.0,0.0,0.0,0.0,0.0,0.0,0.0,0.0,0.0,0.0,0.0,0.0,0.0,1.3307,1.425,1.4797,1.5338,1.5835,1.594,1.6212,1.6613,1.5583,1.5244,0.0,0.0,0.0,0.0,0.0,0.0,0.0,0.0,0.0,0.0,0.0,0.0,0.0,0.0,0.0,0.0,0.0,0.0,0.0,0.0,0.0,0.0,0.0,0.0,0.0,0.0,0.0,0.0,1.3345,1.3753,1.4197,0.0,0.0,0.0,0.0,0.0,0.0,0.0,0.0,0.0,0.0,2.0083,2.0403,2.097,2.1292,2.116,2.135,2.1451,2.1313,2.0907,2.0578,2.0397,0.0,0.0,0.0,0.0,0.0,0.0,0.0,0.0,0.0,0.0,0.0,0.0,0.0,0.0,0.0,0.0,0.0,0.0,0.0,0.0,0.0,0.0,0.0,0.0,0.0,0.0,0.0,0.8428,0.0,0.0,0.8758,0.0,0.0,0.0,0.0,0.0,0.0,0.0,0.0,0.0,0.0,0.0,0.0,0.0,0.0,0.0,0.0,0.0,0.0,0.0,0.0,0.0,0.0,1.3375,1.3895,1.4361,1.4787,1.5348,1.5659,1.6019,1.6392,1.5641,1.5494,1.6111,0.0,0.0,0.0,0.0,0.0,0.0,0.0,0.0,0.0,0.0,0.0,0.0,0.0,0.0,0.0,0.0,0.0,0.0,0.0,0.0,0.0,0.0,0.0,0.0,0.0,0.0,1.3474,1.368,1.3846,0.0,0.0,0.0,0.0,0.0,0.0,0.0,0.0,0.0,1.932,1.9791,2.0359,2.1059,2.149,2.1825,2.211,2.2154,2.2082,2.1745,2.1672,2.1306,0.0,0.0,0.0,0.0,0.0,0.0,0.0,0.0,0.0,0.0,0.0,0.0,0.0,0.0,0.0,0.0,0.0,0.0,0.0,0.0,0.0,0.0,0.0,0.0,0.0,0.0,0.0,1.0829,1.1297,0.0,0.0,0.0,0.0,0.0,0.0,0.0,0.0,0.0,0.0,0.0,1.3373,1.3525,0.0,0.0,0.0,0.0,0.0,0.0,0.0,0.0,0.0,0.0,0.0,0.0,1.3623,1.4674,1.4902,1.5377,1.6083,1.6129,1.6393,1.6951,1.5865,1.525,1.513,0.0,0.0,0.0,0.0,0.0,0.0,0.0,0.0,0.0,0.0,0.0,0.0,0.0,0.0,0.0,0.0,0.0,0.0,0.0,0.0,0.0,0.0,0.0,0.0,0.0,1.4212,0.0,0.0,0.0,0.0,0.0,0.0,0.0,0.0,0.0,0.0,0.0,1.9085,1.9778,2.0773,2.1515,2.1774,2.2635,2.3092,0.0,0.0,0.0,0.0,0.0,0.0,0.0,0.0,0.0,0.0,0.0,0.0,0.0,0.0,1.958,1.9112,1.8627,1.8312,1.8347,0.0,0.0,0.0,0.0,0.0,0.0,0.0,0.0,0.0,0.0,0.0,0.0,0.0,0.0,1.2663,1.3325,1.2932,0.0,0.0,0.0,0.0,0.0,0.0,0.0,0.0,1.4484,1.4515,1.3928,1.4214,1.4099,1.3648,1.321,1.2625,0.0,0.0,0.0,0.0,0.0,0.0,0.0,0.0,1.3936,1.4935,1.5135,1.5555,1.6222,1.6107,1.6348,1.694,1.6112,1.5447,1.5061,1.4992,1.4753,0.0,0.0,0.0,0.0,0.0,0.0,0.0,0.0,0.0,0.0,0.0,0.0,0.0,0.0,0.0,0.0,0.0,0.0,0.0,0.0,0.0,0.0,0.0,1.5375,0.0,0.0,0.0,0.0,0.0,0.0,0.0,0.0,0.0,1.9262,1.9348,1.9637,2.0355,2.1206,2.188,2.2184,0.0,0.0,0.0,0.0,0.0,0.0,0.0,2.342,2.2912,2.2964,2.282,2.2203,2.2168,2.2175,2.1958,0.0,0.0,1.9979,1.9401,1.9091,1.9195,1.9775,2.0352,2.0574,2.1225,2.1832,0.0,0.0,0.0,0.0,1.2666,0.0,0.0,0.0,1.3427,1.3708,0.0,1.3705,0.0,0.0,0.0,0.0,1.3782,1.4328,0.0,0.0,1.4946,1.4874,1.4493,1.4107,1.3752,1.3424,1.3166,1.2899,1.2643,1.2511,0.0,0.0,0.0,0.0,0.0,0.0,1.4291,1.4882,1.4982,1.5299,1.5836,1.5647,1.5785,1.637,1.627,1.6109,1.5897,1.5544,1.5381,1.5492,1.4451,0.0,0.0,0.0,0.0,0.0,0.0,0.0,0.0,0.0,0.0,0.0,0.0,0.0,0.0,0.0,0.0,0.0,0.0,0.0,0.0,1.6126,0.0,0.0,0.0,0.0,0.0,0.0,0.0,0.0,0.0,0.0,1.9891,2.0046,2.0368,2.1023,0.0,0.0,0.0,0.0,2.2483,2.3281,2.3766,2.4147,2.4419,2.4476,2.4274,2.3627,0.0,0.0,2.2619,2.3245,2.3537,2.3024,2.2649,2.2125,2.0773,2.0472,2.05,2.0788,2.1089,2.1594,2.2214,2.2448,2.2884,1.6959,0.0,0.0,0.0,0.0,1.5544,1.6051,1.7107,1.6085,1.6025,1.6573,1.5513,0.0,0.0,0.0,0.0,0.0,0.0,1.4966,1.4918,1.5233,1.4993,1.4278,1.4323,1.4195,1.3901,1.3569,1.3378,1.3293,1.309,1.2858,1.2676,0.0,0.0,0.0,0.0,1.5138,1.5807,1.5805,1.6055,1.6669,1.6264,1.616,1.6381,1.6443,1.6359,1.6121,1.6238,1.6093,1.5654,1.5381,0.0,0.0,0.0,0.0,0.0,0.0,0.0,0.0,0.0,0.0,0.0,0.0,0.0,0.0,0.0,0.0,0.0,0.0,0.0,1.6854,1.7499,1.7812,0.0,0.0,0.0,0.0,0.0,0.0,0.0,0.0,0.0,2.0918,2.0743,2.0763,0.0,0.0,2.2854,2.3085,2.3639,2.3963,2.3784,2.4226,0.0,2.4129,2.4421,2.4498,2.3894,2.3439,2.3315,2.3701,2.3783,2.3748,2.3571,2.3276,2.2937,2.2529,2.1765,2.1243,2.1047,2.1341,2.1698,2.1832,2.2259,2.2714,1.9156,1.7573,1.719,1.743,1.806,1.7522,1.7826,1.8669,1.7562,1.7349,1.7745,1.6532,1.5989,1.5926,1.5227,0.0,0.0,0.0,1.4862,1.4688,1.4983,1.4752,1.4207,1.4355,1.4256,1.3864,1.3658,1.3489,1.3377,1.3333,1.3357,1.346,0.0,1.4108,1.459,1.5018,1.5645,1.6528,1.6403,1.6583,1.7141,1.6603,1.6317,1.64,1.631,1.6358,1.6539,1.6646,1.6579,1.6276,1.6336,1.598,0.0,0.0,0.0,0.0,0.0,0.0,0.0,0.0,0.0,0.0,0.0,1.3286,1.4435,0.0,0.0,0.0,1.7511,1.7834,1.772,1.8339,0.0,0.0,0.0,0.0,0.0,0.0,0.0,2.0128,2.0582,2.1146,2.1924,2.1992,2.1991,2.2265,2.2916,2.3438,2.3668,0.0,2.4227,2.4349,2.4696,2.4908,2.4797,2.5093,2.5148,2.4607,2.434,2.4268,2.4516,2.4434,2.4249,2.4142,2.4062,2.3986,2.4022,2.3408,2.2664,2.1997,2.213,2.2393,2.2337,2.2681,2.3085,2.0581,2.04,1.9454,1.9151,1.9262,1.8864,1.8872,1.9076,1.8157,1.7951,1.8195,1.695,1.6532,1.6708,1.5786,0.0,1.501,1.4799,1.453,1.4255,1.4449,1.4369,1.4096,1.4259,1.4049,1.3517,1.3528,1.3432,1.3203,1.3452,1.38,1.4201,1.4044,1.4273,1.4878,1.5275,1.5992,1.7023,1.6872,1.699,1.739,1.67,1.6369,1.6381,1.5975,1.6189,1.7024,1.6919,1.6921,1.7155,1.7312,1.7072,1.6432,0.0,0.0,0.0,0.0,0.0,0.0,0.0,0.0,0.0,0.0,0.0,0.0,0.0,0.0,0.0,1.8834,0.0,1.8384,1.8862,0.0,0.0,0.0,1.9176,2.0065,2.0174,2.043,2.1104,0.0,0.0,2.2833,2.3448,2.371,2.3457,2.3452,2.3661,2.4195,2.3861,2.3888,2.4954,2.5175,2.5425,2.5769,2.5902,2.5761,2.5434,2.5491,2.5304,2.5168,2.5128,2.4983,2.4756,2.493,2.509,2.5066,2.4832,2.4554,2.3342,2.3256,2.3378,2.3341,2.3505,2.3644,2.1524,2.1197,2.0767,2.0367,2.0022,1.9724,1.9641,1.9613,1.8553,1.8159,1.8262,1.7495,1.6872,1.6393,1.595,1.5582,1.5293,1.5252,1.5014,1.4666,1.4703,1.446,1.3968,1.3941,1.3877,1.3723,1.3836,1.3848,1.3797,1.4,1.4154,1.429,1.4387,1.4903,1.5763,1.6107,1.6614,1.7281,1.741,1.7443,1.74,1.6882,1.6532,1.6381,1.6395,1.6509,1.6789,1.7377,1.7727,1.7789,1.8013,1.7872,1.7335,1.6676,0.0,0.0,0.0,0.0,0.0,0.0,0.0,0.0,0.0,1.6125,1.7368,0.0,1.9614,0.0,2.0051,1.9985,1.9392,1.9529,0.0,0.0,1.9487,2.0086,2.0699,2.0737,2.1045,2.1929,2.2078,2.2358,2.3037,2.3523,2.3953,2.4432,2.4611,2.4716,2.485,2.4957,2.5077,2.5344,2.542,2.5471,2.5606,2.5469,2.5391,2.5478,2.5344,2.5237,2.5384,2.5411,2.5384,2.528,2.5358,2.5297,2.503,2.497,2.4675,2.3971,2.364,2.3525,2.3426,2.3446,2.3544,2.1569,2.1349,2.1216,2.0783,2.0267,2.0402,2.028,1.9989,1.936,1.8942,1.8686,1.7991,1.7309,1.6652,1.6365,1.6021,1.558,1.5592,1.5272,1.4745,1.463,1.4427,1.4133,1.3955,1.3912,1.4038,1.4095,1.4116,1.4147,1.426,1.4355,1.4427,1.454,1.5045,1.5934,1.613,1.6515,1.7169,1.7537,1.7615,1.74,1.7044,1.6821,1.6733,1.6626,1.6736,1.7064,1.7671,1.8023,1.8029,1.8394,1.8369,1.7814,1.7479,1.6971,0.0,0.0,0.0,0.0,0.0,0.0,0.0,0.0,0.0,0.0,0.0,2.0322,2.0636,2.0649,2.0508,2.0185,2.0145,2.0074,1.9886,2.0097,2.0513,2.1112,2.1208,2.1495,2.2062,2.2438,2.2781,2.3084,2.3731,2.4342,2.4815,2.5176,2.5419,2.5453,2.5504,2.5598,2.5852,2.5798,2.5604,2.54,2.5178,2.5126,2.5296,2.554,2.5718,2.5865,2.5798,2.5745,2.5865,2.5798,2.5642,2.5374,2.5244,2.5021,2.4402,2.4071,2.3873,2.3623,2.3556,2.3643,2.1224,2.1224,2.1224,2.0872,2.0355,2.0801,2.0644,2.0077,2.0033,1.9676,1.9085,1.8251,1.7575,1.7083,1.6837,1.6422,1.5857,1.5863,1.5468,1.4738,1.4534,1.4401,1.4392,1.4135,1.4116,1.4307,1.4336,1.4355,1.4355,1.437,1.4525,1.4672,1.4682,1.5024,1.569,1.5709,1.6118,1.6913,1.7446,1.7591,1.7421,1.727,1.7209,1.7141,1.6897,1.7004,1.7555,1.7866,1.8053,1.8116,1.8658,1.8694,1.8193,1.819,1.7802,0.0,1.6893,0.0,0.0,0.0,0.0,0.0,0.0,0.0,0.0,1.9818,2.0523,2.1178,2.0989,2.0783,2.0753,2.0689,2.0655,2.0668,2.0567,2.0775,2.1399,2.1679,2.1905,2.2114,2.295,2.3404,2.3354,2.415,2.4803,2.4843,2.5205,2.5504,2.5648,2.5489,2.5567,2.6056,2.5858,2.5335,2.4963,2.4907,2.496,2.5157,2.5567,2.6162,2.6215,2.5924,2.5832,2.6096,2.5963,2.5779,2.5753,2.5541,2.5184,2.4507,2.4315,2.417,2.3921,2.3897,2.3909,2.1224,2.1224,2.1224,2.1124,2.0954,2.0562,2.0014,1.9458,1.9181,1.874,1.8216,1.7569,1.7214,1.7098,1.7027,1.667,1.6075,1.6268,1.5846,1.4953,1.5064,1.4846,1.4344,1.4282,1.427,1.4286,1.4455,1.454,1.455,1.487,1.5049,1.5087,1.5087,1.5158,1.53,0.0,0.0,0.0,1.7407,1.7588,1.7658,1.7708,1.7692,1.7522,1.7568,0.0,1.7903,1.8172,1.8425,1.8713,1.9043,0.0,0.0,0.0,0.0,0.0,0.0,0.0,0.0,0.0,0.0,0.0,1.8344,1.876,1.9436,2.0107,2.0902,2.1808,2.1635,2.1302,2.0971,2.0935,2.0802,2.0444,2.083,2.1331,2.1898,2.2344,2.2791,2.3382,2.3757,2.4147,2.4508,2.4879,2.4896,2.4637,2.4683,2.4602,2.4313,2.4794,2.4938,2.4442,2.4353,2.4194,2.4056,2.4028,2.4326,2.5118,2.4923,2.5004,2.5528,2.51,2.4789,2.526,2.5304,2.5291,2.5236,2.517,2.4918,2.408,2.3953,2.3945,2.4089,2.4282,2.4439,2.1006,2.0885,2.073,2.0588,0.0,2.0111,1.9584,1.9005,1.9037,1.8869,1.8551,1.8008,1.7802,1.7864,1.745,1.7038,1.6702,1.6676,1.6156,1.5307,1.5307,1.5041,1.4587,1.4515,1.454,1.4738,1.4842,1.4988,1.5101,1.53,1.5495,1.5654,1.5654,1.5711,1.5783,1.5879,1.6162,1.6651,1.7103,1.7428,1.7612,1.7904,1.7928,1.7723,1.7984,0.0,0.0,0.0,0.0,0.0,0.0,0.0,0.0,1.862,0.0,1.7739,1.7529,1.745,1.7437,1.7569,1.8023,1.8959,1.9477,1.9913,2.0331,2.0797,2.1359,2.2027,2.1787,2.1505,2.1296,2.1175,2.1101,2.0998,2.1351,2.1838,2.2452,2.2831,2.3267,2.3756,2.415,2.4478,2.4636,2.4916,2.4961,2.465,2.4711,2.4547,2.3988,2.4188,2.4255,2.3856,2.3536,2.3348,2.3211,2.2947,2.3121,2.397,2.4294,2.453,2.4993,2.4665,2.4576,2.5306,2.5484,2.5458,2.5306,2.5112,2.4691,2.4024,2.3945,2.4065,2.4186,2.4198,2.4246,2.0373,2.017,1.9932,1.9635,1.9355,1.9431,1.9131,1.8631,1.8922,0.0,0.0,1.8409,1.8282,1.8404,1.7694,1.7322,1.721,1.6965,1.64,1.5608,1.5508,1.5297,1.4936,1.4823,1.4969,1.5247,1.5357,1.5486,1.5691,1.5797,1.5987,1.625,1.625,1.6319,1.6432,1.6564,1.6505,1.6313,1.6916,1.7373,1.762,1.8099,1.8273,1.805,1.8503,1.8669,1.8517,1.8882,1.9156,1.9269,1.9033,1.8868,1.8868,1.8804,1.8519,1.8029,1.8138,1.8269,1.8393,1.8531,1.9076,2.0067,2.0601,2.0966,2.1031,2.1354,2.1759,2.2207,2.1993,2.1822,2.1799,2.1714,2.1718,2.1928,2.2038,2.2362,2.3037,2.3354,2.3631,2.4036,2.4585,2.4815,2.4701,2.5087,2.5133,2.4784,2.4792,2.4652,2.38,2.3468,2.3376,2.3175,2.2826,2.2596,2.236,2.2018,2.2001,2.2933,2.3534,2.4016,2.4241,2.4158,2.4489,2.5371,2.5627,2.5489,2.5506,2.5107,2.4504,2.3932,2.4029,2.4251,2.4166,2.3957,2.3933,1.8561,1.8549,1.8747,1.8524,1.811,1.8498,1.8518,1.8258,1.8089,1.7994,1.7968,1.7626,1.7484,1.7488,1.7361,1.7176,1.687,1.6987,1.6529,1.5639,1.5972,1.58,1.5196,1.5356,1.5494,1.5575,1.5847,1.5992,1.6074,1.6549,1.6855,1.6845,1.688,1.6809,1.6634,1.6337,1.6407,1.688,1.7269,1.7633,1.802,1.8697,1.9039,1.9027,1.9437,1.9693,1.9682,1.9283,1.9243,1.9517,1.9282,1.916,1.9148,1.8709,1.8414,1.8334,1.8093,1.8098,1.8394,1.9099,2.0047,2.1229,2.1649,2.1534,2.0832,2.1281,2.1946,2.268,2.2714,2.2777,2.2946,2.2888,2.2818,2.2777,2.2846,2.3099,2.3692,2.3998,2.4278,2.4725,2.5296,2.5649,2.5674,2.5911,2.5621,2.4815,2.4549,2.4148,2.3159,2.2406,2.2032,2.1761,2.1599,2.1518,2.157,2.147,2.1815,2.2828,2.2486,2.2538,2.3347,2.2999,2.3177,2.4513,2.4549,2.4647,2.5301,2.512,2.4421,2.3836,2.3724,2.3776,2.3776,2.3756,2.3945,1.7882,1.755,1.749,1.7345,1.7095,1.7089,1.7107,1.7055,1.6561,1.6945,1.7837,1.7616,1.7545,1.7648,1.7346,1.72,1.7165,1.7095,1.6786,1.634,1.6513,1.6412,1.6053,1.6151,1.6269,1.6368,1.6505,1.6633,1.6787,1.7037,1.7286,1.7461,1.7495,1.7506,1.7502,1.7317,1.7368,1.7646,1.7583,1.7797,1.8272,1.8792,1.9106,1.921,1.97,1.9874,1.9634,1.969,1.9744,1.9759,1.9656,1.9594,1.9562,1.9355,1.9198,1.9198,1.9076,1.9127,1.9472,2.0189,2.0947,2.1681,2.2231,2.2378,2.2138,2.2238,2.2532,2.3046,2.3113,2.3081,2.3007,2.3093,2.3171,2.3006,2.3122,2.35,2.4109,2.4456,2.488,2.5359,2.5453,2.5529,2.5846,2.5582,2.5236,2.4559,2.432,2.38,2.305,2.2769,2.2366,2.1761,2.1438,2.1316,2.1327,2.1426,2.1698,2.2195,2.2096,2.2132,2.2604,2.2348,2.2901,2.3832,2.4016,2.4209,2.4746,2.4535,2.3934,2.2993,2.2757,2.2837,2.309,2.3451,2.3945,1.7038,1.6499,1.627,1.624,1.626,1.5623,1.5644,1.6068,1.5276,1.582,1.7293,1.7374,1.7438,1.753,1.7299,1.7256,1.7357,1.7141,1.6967,1.6894,1.6957,1.6869,1.678,1.6831,1.6918,1.706,1.714,1.7276,1.7429,1.752,1.7696,1.7966,1.7931,1.8057,1.8313,1.8323,1.8427,1.852,1.8297,1.8323,1.8528,1.8982,1.9287,1.9427,1.9969,2.006,1.9749,2.0093,2.0183,2.0023,1.995,1.9881,1.9881,1.9881,1.9881,1.9881,1.9881,2.0109,2.0542,2.1044,2.16,2.2154,2.2699,2.3124,2.3425,2.33,2.326,2.3439,2.3492,2.3475,2.3447,2.3546,2.3601,2.3581,2.3762,2.417,2.4758,2.4866,2.5062,2.5622,2.5214,2.4945,2.5144,2.4786,2.4387,2.428,2.392,2.356,2.3359,2.3319,2.301,2.2366,2.172,2.1397,2.1408,2.1489,2.1556,2.1556,2.1868,2.2008,2.2113,2.2373,2.2877,2.354,2.3827,2.3913,2.3896,2.3874,2.3346,2.2328,2.2084,2.2113,2.2608,2.305,2.366,1.5257,1.5168,1.515,1.5412,1.5672,1.4302,1.4557,1.5726,1.4715,1.4766,1.5745,1.6345,1.6479,1.6491,1.712,1.7303,1.7055,1.7012,1.6945,1.6925,1.7101,1.7073,1.6945,1.7147,1.7258,1.7303,1.7574,1.776,1.7847,1.8128,1.8304,1.8328,1.8047,1.8199,1.8696,1.8753,1.9004,1.9536,1.9901,1.9701,1.9051,1.9622,2.0028,2.0017,2.0411,2.0619,2.0522,2.0422,2.0267,2.0231,2.0059,1.9893,1.9893,1.9893,1.9926,1.9905,1.9938,2.0255,2.1037,2.1167,2.1739,2.2895,2.3115,2.3437,2.4052,2.4102,2.4088,2.4128,2.4128,2.4292,2.4799,2.4879,2.4898,2.5048,2.5154,2.5468,2.5617,2.5192,2.4839,2.5147,2.447,2.3936,2.4056,2.3936,2.3868,2.38,2.348,2.3359,2.356,2.36,2.3532,2.297,2.2124,2.1599,2.1691,2.1529,2.1424,2.1373,2.1545,2.1793,2.1997,2.2233,2.2597,2.3224,2.354,2.3492,2.3499,2.3486,2.2962,2.1985,2.172,2.1952,2.2447,2.2608,2.2953,1.4011,1.4011,1.4011,1.4255,1.4515,1.3709,1.3794,1.4475,1.3703,1.3737,1.4431,1.5147,1.5557,1.5817,1.6609,1.689,1.6801,1.7233,1.7216,1.6929,1.6998,1.6851,1.6572,1.659,1.6744,1.6981,1.7334,1.7733,1.8084,1.846,1.8496,1.8308,1.8227,1.8592,1.9249,1.9318,1.9656,2.0292,2.0681,2.0642,2.0199,2.0274,2.0367,2.0481,2.0596,2.07,2.07,2.0603,2.0543,2.0543,2.04,2.0352,2.0386,2.0352,2.0446,2.0603,2.0773,2.0989,2.1384,2.1562,2.209,2.3021,2.33,2.3773,2.4626,2.4753,2.4783,2.493,2.4823,2.4903,2.5264,2.5331,2.5398,2.5491,2.5518,2.5638,2.5957,2.5205,2.4799,2.4974,2.3908,2.3199,2.3359,2.3239,2.3119,2.309,2.2929,2.301,2.3359,2.344,2.348,2.344,2.2878,2.2274,2.2014,2.1649,2.15,2.1534,2.1803,2.2072,2.2028,2.2309,2.2674,2.2905,2.2953,2.2876,2.2663,2.2314,2.1825,2.1121,2.0779,2.086,2.1022,2.1456,2.2032,1.3287,1.3387,1.342,1.3654,1.3868,1.3575,1.3547,1.3596,1.321,1.3269,1.3712,1.4199,1.4642,1.5137,1.6011,1.6428,1.6496,1.7003,1.7169,1.6991,1.7021,1.6892,1.6651,1.667,1.6813,1.7053,1.7358,1.7689,1.812,1.8418,1.8494,1.8349,1.8492,1.9014,1.9801,2.0036,2.0413,2.0937,2.1378,2.1445,2.1184,2.0983,2.0876,2.081,2.0809,2.0773,2.07,2.07,2.07,2.07,2.07,2.0736,2.0809,2.0809,2.093,2.1184,2.1389,2.1547,2.1607,2.1836,2.231,2.3034,2.3366,2.3977,2.4844,2.5077,2.5251,2.5558,2.5438,2.5462,2.5585,2.5638,2.5665,2.5732,2.5591,2.5503,2.5661,2.4851,2.4138,2.4243,2.3079,2.2326,2.2567,2.2447,2.2285,2.2406,2.2447,2.2567,2.2918,2.3038,2.313,2.3399,2.3079,2.2677,2.2135,2.186,2.1717,2.1631,2.1826,2.2083,2.1986,2.2331,2.2525,2.2553,2.2482,2.2214,2.1828,2.1347,2.064,1.9955,1.9561,1.9693,2.0171,2.0607,2.1052,1.3254,1.3559,1.3798,1.3868,1.3904,1.3868,1.386,1.3855,1.3631,1.369,1.3839,1.3755,1.3815,1.4186,1.5468,1.6021,1.6031,1.6186,1.6619,1.7163,1.7218,1.7449,1.7816,1.7836,1.7743,1.7593,1.7656,1.7806,1.7919,1.7956,1.8207,1.8667,1.8899,1.9453,2.0243,2.0852,2.133,2.1627,2.1987,2.2114,2.1885,2.1836,2.1571,2.116,2.1087,2.0966,2.0761,2.0712,2.0712,2.0712,2.0724,2.0821,2.1039,2.1087,2.122,2.1462,2.1486,2.1643,2.1849,2.1885,2.2325,2.3177,2.3387,2.3875,2.5002,2.513,2.5409,2.5917,2.5944,2.5944,2.5971,2.5971,2.6,2.6095,2.5556,2.5199,2.5106,2.378,2.2826,2.2728,2.2084,2.1599,2.1478,2.1357,2.1599,2.1842,2.1952,2.2113,2.2487,2.2608,2.2648,2.2648,2.2435,2.2113,2.2406,2.2063,2.1687,2.1633,2.176,2.1965,2.2008,2.2072,2.2169,2.2107,2.1906,2.1567,2.1066,2.0405,1.9592,1.8963,1.8547,1.8661,1.9272,1.9794,2.0161,1.2793,1.3325,1.3442,1.3718,1.4058,1.3953,1.3904,1.388,1.3682,1.3847,1.4211,1.4069,1.4226,1.4608,1.5114,1.5498,1.5803,1.6509,1.6842,1.6813,1.6806,1.6663,1.6508,1.6499,1.6609,1.6829,1.7059,1.7384,1.7771,1.804,1.8359,1.878,1.9009,1.9708,2.0779,2.1165,2.1538,2.2048,2.2259,2.2248,2.2163,2.2163,2.1982,2.1631,2.145,2.1317,2.1197,2.1051,2.1039,2.1208,2.1051,2.1075,2.1341,2.1522,2.1655,2.1764,2.1921,2.2054,2.2139,2.2163,2.2522,2.3277,2.3401,2.3954,2.5048,2.5371,2.5598,2.6079,2.6226,2.6239,2.6279,2.6239,2.6069,2.5595,2.5263,2.4826,2.4228,2.3279,2.2608,2.2487,2.1842,2.1316,2.1316,2.1316,2.1357,2.1478,2.1518,2.172,2.2043,2.2164,2.2245,2.2487,2.2447,2.2285,2.2084,2.1904,2.1676,2.167,2.176,2.19,2.1976,2.1832,2.1853,2.1663,2.1388,2.0716,2.0133,1.9246,1.8512,1.8124,1.7686,1.794,1.8367,1.884,1.9049,1.2812,1.3222,1.3517,1.3886,1.4274,1.4276,1.4222,1.4156,1.4148,1.438,1.4591,1.4515,1.4638,1.4999,1.5115,1.5328,1.5683,1.6493,1.6745,1.6621,1.6651,1.6535,1.6285,1.6184,1.6259,1.6527,1.6749,1.7159,1.7565,1.7885,1.837,1.9022,1.9233,2.0054,2.1261,2.1564,2.1855,2.2235,2.2308,2.2296,2.2308,2.2308,2.2224,2.2042,2.1861,2.168,2.1486,2.1329,2.1305,2.1462,2.1329,2.1353,2.1631,2.1885,2.203,2.2054,2.2187,2.2308,2.2308,2.2308,2.2632,2.334,2.354,2.4133,2.535,2.5598,2.5905,2.6253,2.607,2.5977,2.5911,2.57,2.5422,2.5025,2.4627,2.4108,2.3468,2.2677,2.2245,2.2084,2.164,2.1316,2.1316,2.1316,2.1316,2.1316,2.1316,2.1438,2.164,2.172,2.1801,2.2124,2.2124,2.1922,2.1801,2.1606,2.1497,2.1532,2.1631,2.1782,2.1795,2.16,2.141,2.117,2.0617,1.9847,1.9036,1.816,1.7636,1.7258,1.7312,1.75,1.7754,1.7869,1.81,1.3364,1.3319,1.4061,1.4371,1.4506,1.4843,1.4906,1.4773,1.5081,1.5085,1.4919,1.4928,1.4919,1.5044,1.5328,1.5567,1.5675,1.5902,1.6303,1.6709,1.6925,1.7114,1.718,1.7002,1.6945,1.6992,1.7095,1.7209,1.7426,1.7502,1.8097,1.9239,1.9554,2.0355,2.1885,2.2003,2.2197,2.2296,2.2308,2.2308,2.2308,2.2308,2.2296,2.2272,2.226,2.2054,2.1547,2.1534,2.1534,2.1559,2.1534,2.1643,2.1897,2.2139,2.2284,2.2272,2.2296,2.2296,2.2308,2.2308,2.2632,2.329,2.3693,2.4288,2.5274,2.5758,2.6052,2.6069,2.574,2.5224,2.5025,2.4507,2.4255,2.4746,2.372,2.2889,2.2487,2.1842,2.1316,2.1397,2.1316,2.1316,2.1316,2.1316,2.1316,2.1316,2.1316,2.1316,2.1397,2.1397,2.1357,2.1357,2.1518,2.1559,2.1438,2.1316,2.1327,2.1359,2.147,2.1609,2.1475,2.1304,2.1025,2.0724,1.9617,1.8814,1.7962,1.7208,1.7037,1.6766,1.6934,1.7036,1.7163,1.7264,1.7273,1.3262,1.355,1.3895,1.4468,1.496,1.5083,1.5106,1.5152,1.5071,1.4968,1.4963,1.4768,1.4768,1.4981,1.515,1.5363,1.5585,1.5812,1.6166,1.6549,1.666,1.6812,1.6963,1.6934,1.6972,1.7086,1.7105,1.7218,1.735,1.7388,1.8138,1.9344,1.9187,2.0139,2.1989,2.1725,2.1648,2.2259,2.2308,2.2308,2.2308,2.2308,2.2308,2.232,2.2465,2.2393,2.2079,2.1885,2.1873,2.203,2.1885,2.1909,2.2139,2.2248,2.2296,2.2308,2.2308,2.2308,2.2308,2.2346,2.2632,2.3278,2.3705,2.4403,2.5338,2.5798,2.5844,2.57,2.574,2.5581,2.4455,2.4016,2.3668,2.344,2.2918,2.2326,2.1842,2.1478,2.1316,2.1316,2.1316,2.1316,2.1316,2.1316,2.1327,2.1316,2.1327,2.1338,2.1327,2.1338,2.1316,2.1316,2.1316,2.1349,2.133,2.133,2.1359,2.1338,2.1373,2.1326,2.1182,2.0907,2.0611,1.9871,1.8774,1.7863,1.697,1.6542,1.6411,1.6418,1.6567,1.663,1.6606,1.6653,1.6674,1.3381,1.3671,1.4134,1.473,1.5379,1.5247,1.5291,1.5403,1.5142,1.5012,1.4972,1.4803,1.4803,1.4981,1.515,1.5363,1.5621,1.5891,1.6126,1.6415,1.6556,1.6679,1.6774,1.6708,1.6793,1.6953,1.6991,1.7152,1.7378,1.7426,1.8063,1.9039,1.885,1.9634,2.1574,2.13,2.1412,2.2184,2.2308,2.2308,2.2308,2.2308,2.2345,2.2441,2.2514,2.2514,2.2429,2.2284,2.2224,2.2272,2.2127,2.2139,2.2284,2.2296,2.2308,2.2308,2.2308,2.2308,2.2308,2.2446,2.2843,2.3467,2.4009,2.4672,2.5459,2.5751,2.5452,2.5304,2.4905,2.4559,2.3548,2.2987,2.2625,2.2205,2.2124,2.1882,2.1397,2.1316,2.1316,2.1316,2.1316,2.1316,2.1316,2.1373,2.1351,2.1308,2.1351,2.1405,2.1405,2.1416,2.1426,2.1448,2.147,2.147,2.1416,2.1394,2.1413,2.1359,2.1338,2.1167,2.1005,2.0548,2.015,1.8932,1.7818,1.7243,1.6451,1.6254,1.6122,1.6192,1.6259,1.6166,1.6121,1.6143,1.6133,1.3624,1.3649,1.4597,1.5228,1.5548,1.54,1.5437,1.556,1.5376,1.5156,1.4972,1.4838,1.4892,1.5052,1.5248,1.5461,1.5647,1.594,1.611,1.6301,1.6509,1.6689,1.667,1.6575,1.6642,1.6802,1.6849,1.7057,1.7369,1.7388,1.7797,1.8585,1.8623,1.9304,2.0624,2.0913,2.1262,2.1997,2.2221,2.2308,2.2308,2.2308,2.2393,2.2598,2.2465,2.2453,2.255,2.2586,2.255,2.2381,2.2381,2.2369,2.2345,2.2332,2.2405,2.2381,2.2345,2.243,2.2481,2.2767,2.3292,2.3959,2.4571,2.5138,2.562,2.54,2.5066,2.4654,2.376,2.2889,2.2527,2.2124,2.164,2.1357,2.1438,2.1397,2.1316,2.1316,2.1316,2.1316,2.1316,2.1316,2.1316,2.1437,2.1437,2.1416,2.148,2.1556,2.1642,2.1674,2.1749,2.1749,2.1696,2.1674,2.1642,2.1513,2.1491,2.1426,2.134,2.1073,2.0668,2.013,1.9416,1.8192,1.7232,1.6657,1.6246,1.6089,1.5946,1.5929,1.5875,1.5708,1.5653,1.5666,1.5513,1.3819,1.3815,1.5098,1.564,1.5612,1.5682,1.565,1.5541,1.5121,1.4832,1.4641,1.4483,1.4538,1.4642,1.4861,1.5175,1.5523,1.5718,1.5966,1.6162,1.6273,1.6339,1.6386,1.6453,1.6594,1.6802,1.6953,1.7133,1.7369,1.7388,1.7797,1.8547,1.8025,1.8557,1.9871,2.0135,2.0549,2.1337,2.1997,2.2259,2.2259,2.2259,2.232,2.2393,2.2514,2.2502,2.2453,2.2598,2.2768,2.2915,2.2877,2.2768,2.2623,2.2744,2.2756,2.2635,2.2794,2.3018,2.3247,2.3388,2.382,2.4559,2.4868,2.5205,2.5036,2.511,2.4482,2.3708,2.3227,2.2906,2.2043,2.1963,2.1882,2.1438,2.1316,2.1316,2.1316,2.1316,2.1316,2.1316,2.1316,2.1316,2.1297,2.1351,2.1426,2.1491,2.1588,2.1696,2.1793,2.1889,2.1943,2.1933,2.19,2.1889,2.1836,2.1654,2.1558,2.1534,2.1345,2.1033,2.0424,1.9662,1.8764,1.765,1.7026,1.6451,1.6205,1.6007,1.586,1.5689,1.5628,1.5537,1.5286,1.5168,1.4992,1.3859,1.3999,1.525,1.5808,1.5786,1.5642,1.5506,1.5302,1.4801,1.4477,1.4363,1.4314,1.4326,1.4402,1.4766,1.5075,1.5346,1.5718,1.6048,1.6294,1.6424,1.6415,1.6377,1.6479,1.6642,1.6916,1.7048,1.7218,1.735,1.7388,1.7683,1.7911,1.7607,1.8101,1.9191,1.9504,1.9957,2.0737,2.1424,2.181,2.181,2.1773,2.1893,2.1978,2.216,2.2277,2.244,2.2611,2.2816,2.3048,2.307,2.301,2.2927,2.2985,2.3048,2.2903,2.3048,2.3186,2.343,2.3584,2.3827,2.4237,2.4582,2.4618,2.4338,2.4182,2.348,2.2878,2.2786,2.2234,2.168,2.1761,2.1761,2.1397,2.1316,2.1316,2.1316,2.1316,2.1316,2.1316,2.1316,2.1316,2.1327,2.1351,2.1416,2.1502,2.1663,2.1803,2.1943,2.204,2.2148,2.218,2.2105,2.2062,2.1976,2.1825,2.1566,2.1502,2.1019,2.076,2.014,1.9285,1.8305,1.7445,1.6821,1.6328,1.6122,1.5882,1.5643,1.5497,1.5485,1.5238,1.4907,1.4822,1.4601,1.3823,1.4143,1.5157,1.5761,1.5884,1.5368,1.5054,1.4884,1.4339,1.4067,1.4062,1.4236,1.4175,1.4205,1.481,1.5126,1.506,1.5739,1.6099,1.6311,1.6432,1.646,1.6495,1.6613,1.6783,1.7048,1.7114,1.7246,1.735,1.7388,1.7388,1.7502,1.7426,1.7759,1.8481,1.8898,1.9542,2.0172,2.0785,2.1135,2.1222,2.1259,2.134,2.1519,2.1589,2.1987,2.2371,2.2631,2.2728,2.3109,2.3121,2.3094,2.3094,2.313,2.313,2.3155,2.3191,2.3278,2.3307,2.3589,2.3626,2.3783,2.395,2.3827,2.3624,2.3187,2.2717,2.2326,2.172,2.1478,2.1357,2.1357,2.1357,2.1316,2.1316,2.1316,2.1316,2.1316,2.1316,2.1316,2.1316,2.1286,2.1373,2.147,2.1577,2.1771,2.19,2.204,2.218,2.2299,2.2417,2.2535,2.2406,2.2192,2.2094,2.1943,2.1642,2.1386,2.066,2.0171,1.9683,1.8868,1.7978,1.7199,1.6665,1.6287,1.6089,1.5798,1.545,1.5217,1.5148,1.475,1.438,1.4492,1.4387,1.3608,1.3892,1.4873,1.5292,1.5212,1.4892,1.4606,1.4251,1.3676,1.3496,1.346,1.3634,1.3783,1.394,1.4563,1.4869,1.5044,1.5511,1.5756,1.5774,1.5818,1.6156,1.6452,1.6768,1.701,1.7152,1.7284,1.7341,1.7378,1.7388,1.7388,1.7397,1.7435,1.7502,1.7778,1.8453,1.8936,1.9504,2.0145,2.0673,2.0947,2.1034,2.1132,2.1238,2.1256,2.1612,2.2103,2.2238,2.251,2.2932,2.307,2.3106,2.3285,2.3306,2.3345,2.3393,2.355,2.3766,2.4028,2.3861,2.387,2.4013,2.3747,2.3556,2.2895,2.2717,2.2245,2.1761,2.1397,2.1316,2.1316,2.1316,2.1316,2.1316,2.1316,2.1316,2.1316,2.1316,2.1316,2.1316,2.1286,2.1373,2.1577,2.1566,2.1739,2.2008,2.218,2.232,2.2417,2.2503,2.26,2.2686,2.2492,2.2224,2.2094,2.1848,2.1536,2.1169,2.0496,1.9764,1.9276,1.8579,1.7695,1.7061,1.6583,1.6312,1.608,1.5642,1.5321,1.5091,1.4814,1.4505,1.4301,1.4282,1.4299,1.3547,1.3895,1.4563,1.4779,1.4713,1.4516,1.4209,1.3816,1.3484,1.3327,1.3364,1.3535,1.3741,1.3971,1.4463,1.4827,1.5092,1.5497,1.5703,1.5694,1.5782,1.6017,1.6177,1.6568,1.684,1.7161,1.736,1.7378,1.7388,1.7397,1.7444,1.751,1.7444,1.7454,1.7568,1.8036,1.8367,1.8747,1.9428,1.9957,2.0194,2.0646,2.106,2.1323,2.1409,2.1667,2.215,2.22,2.2457,2.2754,2.2804,2.2935,2.3318,2.3427,2.3463,2.3607,2.3704,2.388,2.4,2.3812,2.3548,2.36,2.3187,2.2625,2.2153,2.2003,2.1801,2.1438,2.1316,2.1316,2.1316,2.1316,2.1316,2.1316,2.1316,2.1316,2.1316,2.1316,2.1316,2.1316,2.1316,2.1448,2.1577,2.1622,2.1782,2.2019,2.2223,2.2363,2.2406,2.2492,2.2611,2.2632,2.2417,2.2224,2.2072,2.1773,2.1306,2.0924,2.0394,1.9642,1.9041,1.827,1.7469,1.6997,1.6584,1.6418,1.6168,1.5677,1.5291,1.5125,1.4887,1.4503,1.4288,1.4302,1.4299,1.3436,1.3891,1.4098,1.423,1.4245,1.4053,1.3771,1.346,1.3376,1.3224,1.336,1.3454,1.3525,1.3976,1.4294,1.4651,1.5052,1.5402,1.5549,1.5489,1.5678,1.587,1.5984,1.6186,1.6516,1.7205,1.713,1.7121,1.7121,1.7216,1.7137,1.7382,1.7252,1.7185,1.7432,1.7607,1.7759,1.8025,1.8747,1.9353,1.9579,2.0221,2.0985,2.136,2.1522,2.1709,2.2045,2.2157,2.2342,2.2598,2.2417,2.2669,2.3116,2.3354,2.3475,2.3704,2.3752,2.376,2.364,2.3359,2.2958,2.2527,2.2124,2.1761,2.1478,2.1397,2.1397,2.1357,2.1316,2.1316,2.1316,2.1316,2.1316,2.1316,2.1316,2.1316,2.1316,2.1316,2.1316,2.1316,2.1297,2.1426,2.1631,2.1782,2.1889,2.2071,2.2245,2.2353,2.2439,2.2482,2.26,2.2439,2.2161,2.1715,2.1502,2.1742,2.1306,2.0835,2.0365,1.9658,1.8939,1.832,1.7607,1.7043,1.6676,1.6466,1.6139,1.5565,1.5267,1.5188,1.4793,1.4237,1.4166,1.4272,1.4299,1.2891,1.3271,1.3288,1.3505,1.3737,1.3399,1.3223,1.3122,1.2839,1.2692,1.2692,1.2719,1.299,1.3308,1.3699,1.4245,1.4816,1.5061,1.5108,1.5104,1.5259,1.5399,1.5812,1.5867,1.6199,1.6474,1.6519,1.6448,1.648,1.6413,1.6691,1.6686,1.6626,1.6635,1.6754,1.6655,1.7083,1.7607,1.8329,1.8936,1.9542,2.0372,2.1022,2.1323,2.1409,2.1559,2.1784,2.1859,2.1984,2.2307,2.232,2.2502,2.2804,2.3034,2.3249,2.3435,2.36,2.3552,2.3319,2.2929,2.2487,2.2084,2.168,2.1478,2.1316,2.1316,2.1316,2.1316,2.1316,2.1316,2.1316,2.1316,2.1316,2.1316,2.1316,2.1316,2.1316,2.1316,2.1316,2.1316,2.1319,2.1437,2.1685,2.1922,2.2072,2.2276,2.2449,2.2546,2.2579,2.2568,2.2589,2.2246,2.1779,2.1295,2.0835,2.1311,2.132,2.09,2.0373,1.9715,1.9081,1.8472,1.7852,1.7129,1.6725,1.6571,1.6116,1.5558,1.5313,1.5223,1.4636,1.3939,1.4129,1.4299,1.4299,1.2857,1.304,1.288,1.2937,1.3102,1.2923,1.2772,1.2772,1.2579,1.2501,1.2501,1.254,1.2733,1.3081,1.3274,1.3737,1.4207,1.4314,1.443,1.463,1.4715,1.4988,1.551,1.5565,1.5702,1.5884,1.5881,1.5992,1.62,1.6356,1.6411,1.6633,1.6644,1.676,1.691,1.697,1.7005,1.7502,1.7987,1.8471,1.9012,2.007,2.091,2.1548,2.166,2.181,2.1934,2.1997,2.2109,2.2271,2.2308,2.2369,2.2538,2.2768,2.2954,2.3118,2.3218,2.3201,2.2895,2.2487,2.2124,2.1922,2.1518,2.1316,2.1316,2.1316,2.1316,2.1316,2.1316,2.1316,2.1316,2.1316,2.1316,2.1316,2.1316,2.1316,2.1316,2.1316,2.1316,2.1316,2.1297,2.147,2.1877,2.2093,2.2287,2.2481,2.2686,2.2686,2.2686,2.2654,2.2611,2.2214,2.1768,2.1191,2.0776,2.0993,2.118,2.0743,2.0458,1.9832,1.9085,1.8454,1.7768,1.7024,1.6794,1.6698,1.627,1.5801,1.5554,1.5179,1.45,1.3996,1.4207,1.4299,1.4299,1.2907,1.2887,1.2603,1.2569,1.2611,1.2556,1.254,1.2501,1.2501,1.2501,1.2501,1.254,1.2733,1.3042,1.3242,1.3443,1.3743,1.3796,1.4098,1.4501,1.4548,1.4805,1.5191,1.5318,1.5479,1.5712,1.5824,1.5793,1.5983,1.6134,1.6376,1.6502,1.677,1.6996,1.7038,1.6981,1.7241,1.7473,1.7807,1.8063,1.8623,1.9606,2.071,2.1735,2.1948,2.196,2.1885,2.2147,2.2221,2.232,2.2357,2.2393,2.2429,2.2623,2.2766,2.2729,2.2744,2.2686,2.2407,2.2205,2.1922,2.172,2.1478,2.1357,2.1316,2.1316,2.1316,2.1316,2.1316,2.1316,2.1316,2.1316,2.1316,2.1316,2.1316,2.1316,2.1316,2.1316,2.1316,2.1316,2.1316,2.1554,2.1931,2.2082,2.2233,2.2524,2.2686,2.2686,2.2686,2.2686,2.2579,2.2257,2.1758,2.1169,2.0878,2.0816,2.0824,2.0452,2.034,2.0065,1.9176,1.8354,1.7742,1.7249,1.7012,1.6874,1.6454,1.5996,1.5542,1.4993,1.4336,1.406,1.4241,1.4292,1.4299,1.2556,1.2556,1.2522,1.2515,1.2535,1.2515,1.2501,1.2501,1.2501,1.2501,1.2501,1.254,1.2701,1.3064,1.3411,1.3678,1.3845,1.3929,1.4138,1.4576,1.4718,1.5082,1.5626,1.5755,1.5723,1.5861,1.6151,1.5963,1.5964,1.5877,1.584,1.614,1.6455,1.6478,1.6853,1.6948,1.6817,1.7198,1.7722,1.8473,1.9308,1.9735,2.0,2.0378,2.0831,2.1218,2.1328,2.1754,2.2118,2.2193,2.2437,2.2597,2.2683,2.2889,2.27,2.2532,2.2491,2.2583,2.2068,2.1882,2.172,2.1518,2.1357,2.1316,2.1327,2.1349,2.1349,2.1316,2.1316,2.1316,2.1316,2.1286,2.1316,2.1359,2.1362,2.1392,2.1381,2.151,2.1489,2.1508,2.1592,2.1787,2.2068,2.2071,2.2148,2.2449,2.2686,2.2686,2.2686,2.2686,2.2492,2.2139,2.1682,2.1093,2.0744,2.0766,2.0552,2.0174,2.0281,2.0216,1.9343,1.853,1.8157,1.7711,1.7411,1.6971,1.6599,1.6085,1.5506,1.4921,1.4344,1.4174,1.4238,1.4285,1.4299,1.263,1.2584,1.2535,1.2556,1.2617,1.2542,1.2501,1.2501,1.2501,1.2501,1.2501,1.2501,1.2665,1.2929,1.306,1.3229,1.3429,1.3695,1.4003,1.4508,1.4778,1.5209,1.5683,1.5821,1.5926,1.6228,1.649,1.6685,1.6444,1.6432,1.6472,1.6555,1.6834,1.7128,1.7065,1.7277,1.7426,1.7654,1.794,1.8513,1.9239,1.9548,1.9741,2.0127,2.0501,2.0682,2.0786,2.0973,2.1279,2.1302,2.1415,2.1592,2.1731,2.1861,2.1838,2.1879,2.1913,2.1878,2.1596,2.1548,2.1489,2.1408,2.1327,2.1316,2.1338,2.1383,2.1394,2.1327,2.1316,2.1327,2.133,2.1394,2.1448,2.1491,2.1545,2.164,2.1661,2.1705,2.18,2.1809,2.1943,2.2222,2.2364,2.223,2.2339,2.2514,2.2686,2.2686,2.2686,2.2686,2.2438,2.2041,2.1541,2.0993,2.0702,2.0571,2.0367,2.0134,2.0384,2.0158,1.9429,1.8803,1.8401,1.7868,1.732,1.6936,1.6696,1.6085,1.5383,1.4834,1.4337,1.4246,1.4177,1.4278,1.4299,1.2568,1.2561,1.2525,1.2623,1.2672,1.2562,1.2501,1.2501,1.2501,1.2522,1.2569,1.261,1.2691,1.2766,1.2839,1.2987,1.3131,1.3486,1.3916,1.4333,1.4814,1.5335,1.5707,1.5902,1.6082,1.6566,1.6796,1.691,1.708,1.7223,1.7216,1.7216,1.7468,1.767,1.7817,1.7919,1.7987,1.7942,1.8078,1.8414,1.8858,1.9016,1.932,1.9732,2.0046,2.0202,2.0241,2.0494,2.0572,2.0611,2.0726,2.0954,2.115,2.1457,2.149,2.1576,2.1649,2.1625,2.1434,2.1357,2.1349,2.1402,2.1467,2.1491,2.1405,2.1534,2.1577,2.1405,2.1383,2.1416,2.148,2.1631,2.1674,2.176,2.1825,2.1953,2.2048,2.2141,2.2266,2.2433,2.2632,2.2944,2.2907,2.2558,2.25,2.2675,2.2686,2.2686,2.2686,2.2686,2.2535,2.2158,2.1579,2.1112,2.0895,2.061,2.0293,2.0062,2.0313,2.0254,1.959,1.8997,1.8506,1.7937,1.7382,1.6988,1.6777,1.5981,1.526,1.4914,1.4572,1.4212,1.4082,1.4211,1.4299,1.2264,1.218,1.2522,1.2712,1.2672,1.2562,1.2501,1.2522,1.2515,1.2589,1.2725,1.288,1.2941,1.2982,1.2996,1.3064,1.32,1.3607,1.4119,1.465,1.5136,1.5598,1.5868,1.595,1.6057,1.6287,1.6739,1.6944,1.7018,1.7533,1.7515,1.7501,1.7652,1.7883,1.8041,1.8217,1.8295,1.8239,1.8314,1.8305,1.8427,1.8486,1.8595,1.86,1.8996,1.9379,1.9428,1.9983,2.0308,2.0279,2.0395,2.0559,2.0671,2.1137,2.1296,2.1289,2.1552,2.1504,2.1386,2.1327,2.1394,2.1577,2.1749,2.1803,2.1631,2.1609,2.1609,2.162,2.1599,2.1685,2.1814,2.1954,2.1954,2.1986,2.2104,2.2242,2.24,2.2567,2.2735,2.2978,2.3236,2.3487,2.3586,2.3286,2.2873,2.2944,2.2729,2.2686,2.2686,2.2686,2.2686,2.2417,2.1768,2.1381,2.1175,2.0805,2.0308,2.0032,2.0143,2.0152,1.989,1.9314,1.8805,1.8286,1.7789,1.7304,1.679,1.6234,1.5677,1.5231,1.4765,1.4231,1.4129,1.4285,1.4333,1.2282,1.2264,1.2575,1.2638,1.2583,1.2528,1.2556,1.2637,1.2605,1.2725,1.2874,1.2975,1.305,1.3111,1.3139,1.3214,1.3418,1.409,1.4455,1.4856,1.5373,1.5793,1.6007,1.6048,1.6122,1.641,1.6821,1.7158,1.724,1.7478,1.7486,1.7486,1.7519,1.7805,1.8005,1.8385,1.8519,1.8626,1.8692,1.8721,1.8862,1.8872,1.89,1.8875,1.898,1.9221,1.9184,1.9399,1.9472,1.9483,1.9604,1.9765,2.0017,2.0524,2.0809,2.0911,2.1276,2.1397,2.1367,2.1338,2.1383,2.1642,2.1933,2.2105,2.1879,2.1954,2.1943,2.19,2.1836,2.1922,2.1965,2.2105,2.2202,2.2234,2.2319,2.2501,2.2724,2.2987,2.3379,2.369,2.3812,2.3989,2.4035,2.4046,2.3598,2.3225,2.2934,2.2686,2.2686,2.2686,2.2686,2.26,2.1995,2.1475,2.1302,2.0781,2.0216,2.0089,2.0006,2.0034,2.0009,1.9679,1.9141,1.8664,1.8076,1.7451,1.6955,1.6593,1.6074,1.5504,1.4815,1.4128,1.4183,1.436,1.4401,1.2194,1.2341,1.2595,1.2698,1.2637,1.2589,1.2657,1.2779,1.28,1.2921,1.3064,1.3111,1.318,1.3261,1.3247,1.3446,1.3735,1.4293,1.4664,1.5133,1.5587,1.5925,1.6007,1.6048,1.613,1.6492,1.6657,1.6862,1.683,1.7117,1.7026,1.6953,1.7035,1.7314,1.801,1.8437,1.8777,1.897,1.9102,1.9117,1.9259,1.9335,1.9297,1.9259,1.9254,1.9249,1.9138,1.9186,1.9059,1.8954,1.8906,1.8909,1.9194,1.9561,1.9967,2.0414,2.079,2.1114,2.1297,2.1489,2.1586,2.1782,2.218,2.2256,2.2202,2.2234,2.2138,2.2116,2.2083,2.2147,2.2159,2.2363,2.2439,2.246,2.2503,2.2686,2.3125,2.3414,2.3949,2.438,2.45,2.4617,2.4531,2.45,2.3955,2.3537,2.3236,2.2945,2.2686,2.2686,2.2686,2.2514,2.2168,2.1735,2.1345,2.0694,2.0139,2.0046,1.9971,2.0066,2.0025,1.9718,1.9328,1.877,1.8198,1.7538,1.7093,1.6712,1.6191,1.5661,1.5017,1.4348,1.4278,1.4448,1.4523,1.1953,1.2341,1.2595,1.2807,1.2935,1.2779,1.2807,1.2989,1.3009,1.3091,1.322,1.3295,1.3356,1.3418,1.3404,1.3666,1.4011,1.4514,1.4935,1.5378,1.5808,1.599,1.6039,1.6097,1.6097,1.6139,1.6353,1.6452,1.6172,1.6575,1.6526,1.6369,1.6501,1.6912,1.7919,1.8469,1.8787,1.8976,1.9184,1.9297,1.9401,1.9533,1.9505,1.9439,1.941,1.9392,1.9278,1.9165,1.9051,1.8919,1.8828,1.8802,1.8837,1.9194,1.9601,2.0008,2.0424,2.0881,2.1278,2.1706,2.1911,2.1986,2.2342,2.2449,2.2321,2.2299,2.231,2.2299,2.2331,2.2428,2.2546,2.2643,2.2632,2.2675,2.2708,2.3031,2.3462,2.3892,2.4364,2.4792,2.5092,2.5305,2.5177,2.4921,2.4321,2.3849,2.3548,2.3204,2.2816,2.2686,2.2686,2.26,2.2341,2.1995,2.1519,2.0607,2.0105,2.0012,1.9971,2.0047,2.0078,1.9904,1.9452,1.8893,1.8514,1.8078,1.7454,1.6838,1.6407,1.6042,1.5337,1.4808,1.4644,1.4536,1.4618,1.1897,1.2212,1.2555,1.282,1.2969,1.28,1.2868,1.3132,1.3241,1.3281,1.3322,1.339,1.3397,1.3486,1.3735,1.3942,1.4198,1.4893,1.5371,1.5594,1.6011,1.6266,1.6324,1.6209,1.6211,1.6211,1.6377,1.6369,1.6048,1.6402,1.632,1.6122,1.6616,1.7158,1.7768,1.8344,1.9017,1.9184,1.9392,1.9562,1.9694,1.976,1.976,1.9684,1.9675,1.9618,1.9548,1.9424,1.9282,1.9093,1.8983,1.8856,1.8802,1.9091,1.9357,1.9683,2.015,2.0874,2.1443,2.1911,2.2191,2.2277,2.2352,2.2525,2.2535,2.2364,2.2439,2.2503,2.2503,2.2579,2.2665,2.2675,2.2708,2.2794,2.2945,2.3419,2.3849,2.4278,2.4707,2.5049,2.5391,2.5391,2.5305,2.528,2.4777,2.4184,2.384,2.3301,2.2902,2.2772,2.2686,2.2686,2.2514,2.2211,2.1692,2.0981,2.0458,2.038,2.0181,1.999,1.9978,1.9974,1.9701,1.9293,1.899,1.8628,1.787,1.7181,1.6866,1.6372,1.5748,1.5203,1.4988,1.4805,1.474,1.1903,1.2298,1.2514,1.28,1.303,1.2874,1.2976,1.3234,1.3356,1.3397,1.3397,1.3397,1.3397,1.3528,1.3859,1.4331,1.447,1.515,1.5776,1.5918,1.6229,1.6462,1.6479,1.6456,1.6425,1.6459,1.6485,1.6444,1.6684,1.6684,1.6675,1.6764,1.7199,1.7581,1.8014,1.8556,1.907,1.9269,1.9467,1.9675,1.9817,1.9902,1.9911,1.9892,1.9873,1.9879,1.9852,1.9738,1.9562,1.9399,1.9176,1.8979,1.8929,1.8957,1.9173,1.9489,2.0191,2.0929,2.145,2.203,2.2267,2.246,2.2449,2.2525,2.2611,2.246,2.2503,2.2568,2.2611,2.2632,2.2654,2.2654,2.2708,2.2794,2.3149,2.3591,2.4021,2.4407,2.4878,2.522,2.5391,2.5391,2.5427,2.5401,2.5235,2.4695,2.4187,2.3615,2.3032,2.2826,2.2751,2.2729,2.2751,2.2554,2.2139,2.1504,2.1046,2.0768,2.0399,2.0084,2.0028,2.0015,1.986,1.9657,1.9235,1.8758,1.8139,1.756,1.721,1.6753,1.6158,1.5683,1.5366,1.5146,1.5004,1.1963,1.2633,1.2583,1.2779,1.3098,1.305,1.3132,1.339,1.3397,1.3397,1.3397,1.3397,1.3445,1.3562,1.3942,1.4463,1.4991,1.5515,1.6018,1.64,1.6525,1.6609,1.6576,1.6479,1.6624,1.6801,1.6851,1.6901,1.7517,1.7147,1.7102,1.7281,1.76,1.7946,1.827,1.869,1.9113,1.9363,1.9571,1.9794,2.0023,2.0008,2.0095,2.0139,2.0206,2.0337,2.0337,2.0196,2.0057,1.9864,1.9577,1.9195,1.896,1.8828,1.9007,1.9476,2.0364,2.0828,2.1421,2.1948,2.2342,2.2579,2.2643,2.2719,2.2611,2.2492,2.2492,2.2525,2.2546,2.2568,2.26,2.2611,2.2622,2.2901,2.3225,2.3623,2.4064,2.4492,2.4921,2.522,2.5348,2.5427,2.5511,2.5529,2.5574,2.5208,2.4719,2.4187,2.3609,2.288,2.2783,2.2815,2.2814,2.2844,2.2469,2.1964,2.1568,2.1263,2.053,2.0143,2.0131,2.0066,1.9936,1.9723,1.9345,1.8912,1.8548,1.8052,1.7592,1.7099,1.6645,1.6284,1.5979,1.5528,1.5342,1.2558,1.2895,1.2887,1.2948,1.3064,1.3125,1.3268,1.339,1.3397,1.3397,1.3397,1.3397,1.3569,1.3901,1.4349,1.4841,1.5324,1.5842,1.6245,1.6552,1.6706,1.6828,1.6836,1.6781,1.6881,1.7053,1.712,1.7134,1.7056,1.6994,1.6994,1.6944,1.7682,1.8055,1.8426,1.8876,1.9222,1.9505,1.9703,1.9947,2.0197,2.0313,2.0487,2.0607,2.0738,2.0911,2.0915,2.0842,2.07,2.0213,2.0082,1.9748,1.9008,1.896,1.9097,1.9459,1.997,2.0401,2.1304,2.1747,2.2097,2.2546,2.2643,2.2686,2.2622,2.2525,2.246,2.2514,2.2471,2.2439,2.2503,2.2514,2.2589,2.2825,2.3244,2.3792,2.4243,2.4707,2.5134,2.5275,2.5403,2.5523,2.5608,2.5776,2.581,2.5552,2.5237,2.47,2.4083,2.3359,2.2935,2.2945,2.303,2.3113,2.2959,2.253,2.2118,2.1699,2.094,2.0302,2.0097,2.0066,2.0031,1.9943,1.9802,1.9519,1.9167,1.869,1.8075,1.768,1.727,1.6913,1.6544,1.6119,1.5714,1.2732,1.2895,1.2975,1.311,1.334,1.3626,1.3794,1.3838,1.3562,1.3397,1.3438,1.3611,1.3818,1.4149,1.4687,1.5172,1.5555,1.6025,1.6438,1.6655,1.6752,1.689,1.6982,1.7042,1.7187,1.7375,1.7524,1.7657,1.7378,1.7328,1.7336,1.7108,1.7723,1.8101,1.8509,1.8988,1.9406,1.9656,1.9879,2.0076,2.0313,2.052,2.0781,2.1042,2.1215,2.1389,2.1519,2.1432,2.1048,2.065,2.0578,1.9974,1.9338,1.9207,1.915,1.9535,1.9893,2.0316,2.0918,2.1369,2.1816,2.2255,2.2427,2.2514,2.2557,2.2503,2.2535,2.2579,2.2407,2.2321,2.2353,2.2417,2.2577,2.2738,2.3391,2.3992,2.4508,2.4994,2.5232,2.5372,2.5499,2.5632,2.5776,2.5945,2.6034,2.5862,2.5513,2.4973,2.4362,2.3666,2.326,2.3181,2.33,2.3395,2.3219,2.2985,2.2505,2.1963,2.1235,2.0666,2.0305,2.0056,2.0066,2.0226,2.0405,2.0055,1.9642,1.9169,1.8643,1.8218,1.7698,1.7315,1.6973,1.6757,1.6328,1.2641,1.2793,1.2995,1.3353,1.3822,1.4257,1.4516,1.4567,1.3887,1.3528,1.3652,1.3942,1.419,1.448,1.5017,1.5451,1.5737,1.615,1.6422,1.676,1.6793,1.6874,1.7006,1.715,1.7315,1.7685,1.7862,1.7788,1.8288,1.7953,1.7369,1.7372,1.785,1.8229,1.8563,1.9114,1.9533,1.9807,1.9892,2.0008,2.0182,2.039,2.0694,2.0911,2.1259,2.1605,2.1779,2.1649,2.1345,2.1048,2.071,2.01,1.9676,1.9363,1.9339,1.9443,1.9773,2.0154,2.0528,2.0905,2.1384,2.1748,2.1952,2.2168,2.2267,2.2493,2.2589,2.2589,2.2439,2.2364,2.2364,2.2353,2.2502,2.2835,2.3374,2.3928,2.4367,2.4863,2.523,2.5383,2.5584,2.5728,2.5933,2.6114,2.6246,2.6101,2.5748,2.5181,2.4587,2.3963,2.3652,2.3429,2.3494,2.3612,2.3653,2.3361,2.2803,2.223,2.1541,2.0939,2.047,2.0233,2.0091,2.0374,2.0622,2.0432,2.0078,1.9626,1.9096,1.8516,1.8054,1.7599,1.7354,1.7152,1.6758,1.2956,1.3111,1.347,1.3741,1.3988,1.4337,1.4545,1.4549,1.4463,1.439,1.4431,1.4514,1.4762,1.5051,1.5257,1.5593,1.5914,1.611,1.6299,1.6493,1.6647,1.6712,1.6849,1.7143,1.7315,1.7348,1.7434,1.7569,1.746,1.7228,1.7095,1.7011,1.7625,1.8273,1.8551,1.9146,1.9647,1.9902,1.9921,2.0051,2.0313,2.0825,2.1259,2.1605,2.1995,2.1952,2.2038,2.1865,2.1345,2.0882,2.0655,2.0192,1.9642,1.941,1.9401,1.9519,1.9604,1.9933,2.0273,2.0557,2.0889,2.1282,2.1529,2.1779,2.205,2.2406,2.2546,2.2536,2.2557,2.2492,2.2449,2.2428,2.2546,2.2977,2.3378,2.3838,2.4248,2.4734,2.5177,2.5428,2.5661,2.5885,2.6114,2.6254,2.636,2.6188,2.5807,2.5343,2.481,2.4212,2.3911,2.3709,2.3666,2.3763,2.3825,2.371,2.3206,2.2608,2.1945,2.1333,2.067,2.0542,2.045,2.0667,2.082,2.0674,2.0463,2.0153,1.9644,1.8905,1.8343,1.7878,1.7641,1.7462,1.7003,1.3043,1.3199,1.3765,1.4227,1.4614,1.4964,1.513,1.5174,1.526,1.5298,1.5257,1.5133,1.5175,1.5463,1.5587,1.5719,1.5982,1.6096,1.6243,1.6373,1.6479,1.6576,1.6779,1.7034,1.7121,1.7119,1.7299,1.7269,1.6747,1.6698,1.6756,1.6649,1.7424,1.8169,1.8443,1.9111,1.967,1.9902,1.9921,2.0051,2.0356,2.0781,2.1042,2.1475,2.1735,2.1822,2.1822,2.1649,2.1259,2.0694,2.0424,2.0178,1.9803,1.9666,1.9656,1.9684,1.9737,1.9804,2.0101,2.0313,2.0466,2.0854,2.1018,2.1225,2.1726,2.2087,2.2383,2.2426,2.2718,2.2718,2.2729,2.2718,2.3098,2.3512,2.3654,2.3884,2.4304,2.4734,2.5135,2.5453,2.5691,2.6014,2.6261,2.6608,2.6632,2.6261,2.5867,2.5366,2.4864,2.4428,2.4148,2.3946,2.3881,2.3903,2.4011,2.3863,2.3606,2.2994,2.2286,2.1541,2.0836,2.0824,2.0801,2.0821,2.0887,2.1055,2.0842,2.041,1.9952,1.9261,1.8695,1.8149,1.7928,1.7681,1.7244,1.3049,1.3215,1.3953,1.4698,1.5403,1.5707,1.5853,1.5942,1.5966,1.5966,1.5891,1.5619,1.5528,1.5636,1.5793,1.5925,1.6015,1.6039,1.612,1.6227,1.6308,1.6373,1.6566,1.681,1.691,1.6951,1.7047,1.6864,1.6534,1.6492,1.6427,1.6295,1.6951,1.7776,1.8249,1.8925,1.963,1.983,1.9921,1.9921,2.0095,2.0347,2.0607,2.0825,2.0998,2.1259,2.1259,2.1128,2.0955,2.0564,2.0182,2.0032,1.9936,1.9836,1.9855,1.9855,1.9855,1.9855,1.9955,1.9989,2.0293,2.0535,2.0545,2.0783,2.1315,2.1642,2.1954,2.2281,2.2627,2.2888,2.2888,2.3062,2.3456,2.382,2.3853,2.3963,2.4362,2.4741,2.5029,2.5327,2.5633,2.6,2.6354,2.6701,2.658,2.6219,2.581,2.5309,2.4818,2.4463,2.4121,2.4054,2.4021,2.4064,2.4118,2.3938,2.3736,2.3083,2.2338,2.1594,2.1012,2.0801,2.0666,2.0722,2.0796,2.0788,2.077,2.0446,1.9977,1.9465,1.9192,1.8686,1.8142,1.7841,1.7528,1.3167,1.3835,1.4371,1.4927,1.5481,1.5837,1.5975,1.5999,1.6007,1.6007,1.5998,1.6145,1.607,1.5883,1.5925,1.6007,1.6007,1.6007,1.6007,1.6056,1.6219,1.6177,1.6302,1.6593,1.6834,1.6758,1.6526,1.6221,1.6246,1.6205,1.613,1.6097,1.6885,1.7595,1.8097,1.8842,1.947,1.9728,1.9921,1.9921,2.0008,2.0269,2.053,2.0781,2.1042,2.0998,2.0868,2.0738,2.0434,2.0129,1.9964,1.9921,1.9921,1.9921,1.9921,1.9921,1.9921,1.9921,1.9921,1.9921,2.0181,2.0209,2.022,2.0342,2.073,2.1003,2.1325,2.1737,2.2093,2.2559,2.2734,2.3043,2.3417,2.37,2.3868,2.406,2.4374,2.4486,2.4666,2.4968,2.5259,2.5587,2.5938,2.6089,2.6057,2.5763,2.5502,2.5025,2.4509,2.4291,2.4118,2.4118,2.4118,2.4118,2.4118,2.3981,2.3733,2.3065,2.2353,2.1615,2.1012,2.0621,2.0502,2.0437,2.0234,2.0075,2.0092,2.0278,2.0019,1.9569,1.965,1.9303,1.8563,1.801,1.766]},{"header":{"parameterUnit":"m.s-1","parameterCategory":1,"la1":31.0,"la2":29.5877,"lo1":-88.7671,"lo2":-86.6584,"dy":0.0162,"dx":0.0185,"nx":115,"ny":88,"refTime":"2023-11-02T00:00:00:Z","depth":0,"parameterNumber":3,"parameterNumberName":"V-component_of_WINDS"},"data":[0.0,0.0,0.0,0.0,0.0,0.0,0.0,0.0,0.0,0.0,0.0,0.0,0.0,0.0,0.0,0.0,0.0,0.0,0.0,0.0,0.0,0.0,0.0,0.0,0.0,0.0,0.0,0.0,0.0,0.0,0.0,0.0,0.0,0.0,0.0,0.0,0.0,0.0,0.0,0.0,0.0,0.0,0.0,0.0,0.0,0.0,0.0,0.0,0.0,0.0,0.0,0.0,0.0,0.0,0.0,0.0,0.0,0.0,0.0,0.0,0.0,0.0,0.0,0.0,0.0,0.0,0.0,0.0,0.0,0.0,0.0,0.0,0.0,0.0,0.0,0.0,0.0,0.0,0.0,0.0,0.0,0.0,0.0,0.0,0.0,0.0,0.0,0.0,0.0,0.0,0.0,0.0,0.0,0.0,0.0,0.0,0.0,0.0,0.0,0.0,0.0,0.0,0.0,0.0,0.0,0.0,0.0,0.0,0.0,0.0,0.0,0.0,0.0,0.0,0.0,0.0,0.0,0.0,0.0,0.0,0.0,0.0,0.0,0.0,0.0,0.0,0.0,0.0,0.0,0.0,0.0,0.0,0.0,0.0,0.0,0.0,0.0,0.0,0.0,0.0,0.0,0.0,0.0,0.0,0.0,0.0,0.0,0.0,0.0,0.0,0.0,0.0,0.0,0.0,0.0,0.0,0.0,0.0,0.0,0.0,0.0,0.0,0.0,0.0,0.0,0.0,0.0,0.0,0.0,0.0,0.0,0.0,0.0,0.0,0.0,0.0,0.0,0.0,0.0,0.0,0.0,0.0,0.0,0.0,0.0,0.0,0.0,0.0,0.0,0.0,0.0,0.0,0.0,0.0,0.0,0.0,0.0,0.0,0.0,0.0,0.0,0.0,0.0,0.0,0.0,0.0,0.0,0.0,0.0,0.0,0.0,0.0,0.0,0.0,0.0,0.0,0.0,0.0,0.0,0.0,0.0,0.0,0.0,0.0,0.0,0.0,0.0,0.0,0.0,0.0,0.0,0.0,0.0,0.0,0.0,0.0,0.0,0.0,0.0,0.0,0.0,0.0,0.0,0.0,0.0,0.0,0.0,0.0,0.0,0.0,0.0,0.0,0.0,0.0,0.0,0.0,0.0,0.0,0.0,0.0,0.0,0.0,0.0,0.0,0.0,0.0,0.0,0.0,0.0,0.0,0.0,0.0,0.0,0.0,0.0,0.0,0.0,0.0,0.0,0.0,0.0,0.0,0.0,0.0,0.0,0.0,0.0,0.0,0.0,0.0,0.0,0.0,0.0,0.0,0.0,0.0,0.0,0.0,0.0,0.0,0.0,0.0,0.0,0.0,0.0,0.0,0.0,0.0,0.0,0.0,0.0,0.0,0.0,0.0,0.0,0.0,0.0,0.0,0.0,0.0,0.0,0.0,0.0,0.0,0.0,0.0,0.0,0.0,0.0,0.0,0.0,0.0,0.0,0.0,0.0,0.0,0.0,0.0,0.0,0.0,0.0,0.0,0.0,0.0,0.0,0.0,0.0,0.0,0.0,0.0,0.0,0.0,0.0,0.0,0.0,0.0,0.0,0.0,0.0,0.0,0.0,0.0,0.0,0.0,0.0,0.0,0.0,0.0,0.0,0.0,0.0,0.0,0.0,0.0,0.0,0.0,0.0,0.0,0.0,0.0,0.0,0.0,0.0,0.0,0.0,0.0,0.0,0.0,0.0,0.0,0.0,0.0,0.0,0.0,0.0,0.0,0.0,0.0,0.0,0.0,0.0,0.0,0.0,0.0,0.0,0.0,0.0,0.0,0.0,0.0,0.0,0.0,0.0,0.0,0.0,0.0,0.0,0.0,0.0,0.0,0.0,0.0,0.0,0.0,0.0,0.0,0.0,0.0,0.0,0.0,0.0,0.0,0.0,0.0,0.0,0.0,0.0,0.0,0.0,0.0,0.0,0.0,0.0,0.0,0.0,0.0,0.0,0.0,0.0,0.0,0.0,0.0,0.0,0.0,0.0,0.0,0.0,0.0,0.0,0.0,0.0,0.0,0.0,0.0,0.0,0.0,0.0,0.0,0.0,0.0,0.0,0.0,0.0,0.0,0.0,0.0,0.0,0.0,0.0,0.0,0.0,0.0,0.0,0.0,0.0,0.0,0.0,0.0,0.0,0.0,0.0,0.0,0.0,0.0,0.0,0.0,0.0,0.0,0.0,0.0,0.0,0.0,0.0,0.0,0.0,0.0,0.0,0.0,0.0,0.0,0.0,0.0,0.0,0.0,0.0,0.0,0.0,0.0,0.0,0.0,0.0,0.0,0.0,0.0,0.0,0.0,0.0,0.0,0.0,0.0,0.0,0.0,0.0,0.0,0.0,0.0,0.0,0.0,0.0,0.0,0.0,0.0,0.0,0.0,0.0,0.0,0.0,0.0,0.0,0.0,0.0,0.0,0.0,0.0,0.0,0.0,0.0,0.0,0.0,0.0,0.0,0.0,0.0,0.0,0.0,0.0,0.0,0.0,0.0,0.0,0.0,0.0,0.0,0.0,0.0,0.0,0.0,0.0,0.0,0.0,0.0,0.0,0.0,0.0,0.0,0.0,0.0,0.0,0.0,0.0,0.0,0.0,0.0,0.0,0.0,0.0,0.0,0.0,0.0,0.0,0.0,0.0,0.0,0.0,0.0,0.0,0.0,0.0,0.0,0.0,0.0,0.0,0.0,0.0,0.0,0.0,0.0,0.0,0.0,0.0,0.0,0.0,0.0,0.0,0.0,0.0,0.0,0.0,0.0,0.0,0.0,0.0,0.0,0.0,0.0,0.0,0.0,0.0,0.0,0.0,0.0,0.0,0.0,0.0,0.0,0.0,0.0,0.0,0.0,0.0,0.0,0.0,0.0,0.0,0.0,0.0,0.0,0.0,0.0,0.0,0.0,0.0,0.0,0.0,0.0,0.0,0.0,0.0,0.0,0.0,0.0,0.0,0.0,0.0,0.0,0.0,0.0,0.0,0.0,0.0,0.0,0.0,0.0,0.0,0.0,0.0,0.0,0.0,0.0,0.0,0.0,0.0,0.0,0.0,0.0,0.0,0.0,0.0,0.0,0.0,0.0,0.0,0.0,0.0,0.0,0.0,0.0,0.0,0.0,0.0,0.0,0.0,0.0,0.0,0.0,0.0,0.0,0.0,0.0,0.0,0.0,0.0,0.0,0.0,0.0,0.0,0.0,0.0,0.0,0.0,0.0,0.0,0.0,0.0,0.0,0.0,0.0,0.0,0.0,0.0,0.0,0.0,0.0,0.0,0.0,0.0,0.0,0.0,0.0,0.0,0.0,0.0,0.0,0.0,0.0,0.0,0.0,0.0,0.0,0.0,0.0,0.0,0.0,0.0,0.0,0.0,0.0,0.0,0.0,0.0,0.0,0.0,0.0,0.0,0.0,0.0,0.0,0.0,0.0,0.0,0.0,0.0,0.0,0.0,0.0,0.0,0.0,0.0,0.0,0.0,0.0,0.0,0.0,0.0,0.0,0.0,0.0,0.0,0.0,0.0,0.0,0.0,0.0,0.0,0.0,0.0,0.0,0.0,0.0,0.0,0.0,0.0,0.0,0.0,0.0,0.0,0.0,0.0,0.0,0.0,0.0,0.0,0.0,0.0,0.0,0.0,0.0,0.0,0.0,0.0,0.0,0.0,0.0,0.0,0.0,0.0,0.0,0.0,0.0,0.0,0.0,0.0,0.0,0.0,0.0,0.0,0.0,0.0,0.0,0.0,0.0,0.0,0.0,0.0,0.0,0.0,0.0,0.0,0.0,0.0,0.0,0.0,0.0,0.0,0.0,0.0,0.0,0.0,0.0,0.0,0.0,0.0,0.0,0.0,0.0,0.0,0.0,0.0,0.0,0.0,0.0,0.0,0.0,0.0,0.0,0.0,0.0,0.0,0.0,0.0,0.0,0.0,0.0,0.0,0.0,0.0,0.0,0.0,0.0,0.0,0.0,0.0,0.0,0.0,0.0,0.0,0.0,0.0,0.0,0.0,0.0,0.0,0.0,0.0,0.0,0.0,0.0,0.0,0.0,0.0,0.0,0.0,0.0,0.0,0.0,0.0,0.0,0.0,0.0,0.0,0.0,0.0,0.0,0.0,0.0,0.0,0.0,0.0,0.0,0.0,0.0,0.0,0.0,0.0,0.0,0.0,0.0,0.0,0.0,0.0,0.0,0.0,0.0,0.0,0.0,0.0,0.0,0.0,0.0,0.0,0.0,0.0,0.0,0.0,0.0,0.0,1.0412,0.0,0.0,0.0,0.0,0.0,0.0,0.0,0.0,0.0,0.0,0.0,0.0,0.0,0.0,0.0,0.0,0.0,0.0,0.0,0.0,0.0,0.0,0.0,0.0,0.0,0.0,0.0,0.0,0.0,0.0,0.0,0.0,0.0,0.0,0.0,0.0,0.0,0.0,0.0,0.0,0.0,0.0,0.0,0.0,0.0,0.0,0.0,0.0,0.0,0.0,0.0,0.0,0.0,0.0,0.0,0.0,0.0,0.0,0.0,0.0,0.0,0.0,0.0,0.0,0.0,0.0,0.0,0.0,0.0,0.0,0.0,0.0,0.0,0.0,0.0,0.0,0.0,0.0,0.0,0.0,0.0,0.0,0.0,0.0,0.0,0.0,0.0,0.0,0.0,0.0,0.0,0.0,0.0,0.0,0.0,0.0,0.0,0.0,0.0,0.0,0.0,0.0,0.0,0.0,0.0,0.0,0.0,0.0,0.0,0.0,0.978,0.9847,1.0311,1.0765,1.1189,0.0,0.0,0.0,0.0,0.0,0.0,0.0,0.0,0.0,0.0,0.0,0.0,0.0,0.0,0.0,0.0,0.0,0.0,0.0,0.0,0.0,0.0,0.0,0.0,0.0,0.0,0.0,0.0,0.0,0.0,0.0,0.0,0.0,0.0,0.0,0.0,0.0,0.0,0.0,0.0,0.0,0.0,0.0,0.0,0.0,0.0,0.0,0.0,0.0,0.0,0.0,0.0,0.0,0.0,0.0,0.0,0.0,0.0,0.0,0.0,0.0,0.0,0.0,0.0,0.0,0.0,0.0,0.0,0.0,0.0,0.0,0.0,0.0,0.0,0.0,0.0,0.0,0.0,0.0,0.0,0.0,0.0,0.0,0.0,0.0,0.0,0.0,0.0,0.0,0.0,0.0,0.0,0.0,0.0,0.0,0.0,0.0,0.0,0.0,0.0,0.0,0.0,0.0,0.0,0.0,0.0,0.0,0.0,0.0,0.0,0.0,0.0,1.1267,1.1724,1.1991,0.0,0.0,0.0,0.0,0.0,0.0,0.0,0.0,0.0,0.0,0.0,0.0,0.0,0.0,0.0,0.0,0.0,0.0,0.0,0.0,0.0,0.0,0.0,0.0,0.0,0.0,0.0,0.0,0.0,0.0,0.0,0.0,0.0,0.0,0.0,0.0,0.0,0.0,0.0,0.0,0.0,0.0,0.0,0.0,0.0,0.0,0.0,0.0,0.0,0.0,0.0,0.0,0.0,0.0,0.0,0.0,0.0,0.0,0.0,0.0,0.0,0.0,0.0,0.0,0.0,0.0,0.0,0.0,0.0,0.0,0.0,0.0,0.0,0.0,0.0,0.0,0.0,0.0,0.0,0.0,0.0,0.0,0.0,0.0,0.0,0.0,0.0,0.0,0.0,0.0,0.0,0.0,0.0,0.0,0.0,0.0,0.0,0.0,0.0,0.0,0.0,0.0,0.0,0.0,0.0,0.0,0.0,0.0,0.0,0.0,1.1403,1.1406,1.1542,0.0,1.2747,0.0,0.0,0.0,0.0,0.0,0.0,0.0,0.0,0.0,0.0,0.0,0.0,0.0,0.0,0.0,0.0,0.0,0.0,0.0,0.0,0.0,0.0,0.0,0.0,0.0,0.0,0.0,0.0,0.0,0.0,0.0,0.0,0.0,0.0,0.0,0.0,0.0,0.0,0.0,0.0,0.0,0.0,0.0,0.0,0.0,0.0,0.0,0.0,0.0,0.0,0.0,0.0,0.0,0.0,0.0,0.0,0.0,0.0,0.0,0.0,0.0,0.0,0.0,0.0,0.0,0.0,0.0,0.0,0.0,0.0,0.0,0.0,0.0,0.0,0.0,0.0,0.0,0.0,0.0,0.0,0.0,0.0,0.0,0.0,0.0,0.0,0.0,0.0,0.0,0.0,0.0,0.0,0.0,0.0,0.0,0.0,0.0,0.0,0.0,0.0,0.0,0.0,0.0,0.0,0.0,0.0,0.0,0.0,0.0,0.0,1.2147,1.2167,1.2736,1.3205,0.0,0.0,0.0,0.0,0.0,0.0,0.0,0.0,0.0,0.0,0.0,0.0,0.0,0.0,0.0,0.0,0.0,0.0,0.0,0.0,0.0,0.0,0.0,0.0,0.0,0.0,0.0,0.0,0.0,0.0,0.0,0.0,0.0,0.0,0.0,0.0,0.0,0.0,0.0,0.0,0.0,0.0,0.0,0.0,0.0,0.0,0.0,0.0,0.0,0.0,0.0,0.0,0.0,0.0,0.0,0.0,0.0,0.0,0.0,0.0,0.0,0.0,0.0,0.0,0.0,0.0,0.0,0.0,0.0,0.0,0.0,0.0,0.0,0.0,0.0,0.0,0.0,0.0,0.0,0.0,0.0,0.0,0.0,0.0,0.0,0.0,0.0,0.0,0.0,0.0,0.0,0.0,0.0,0.0,0.0,0.0,0.0,0.0,0.0,0.0,0.0,0.0,0.0,0.0,0.0,0.0,0.0,0.0,0.0,0.0,1.2442,1.2913,1.2983,1.3606,1.3995,1.3994,0.0,0.0,0.0,0.0,0.0,0.0,0.0,0.0,0.0,0.0,0.0,0.0,0.0,0.0,0.0,0.0,0.0,0.0,0.0,0.0,0.0,0.0,0.0,0.0,0.0,0.0,0.0,0.0,0.0,0.0,0.0,0.0,0.0,0.0,0.0,0.0,0.0,0.0,0.0,0.0,0.0,0.0,0.0,0.0,0.0,0.0,0.0,0.0,0.0,0.0,0.0,0.0,0.0,0.0,0.0,0.0,0.0,0.0,0.0,0.0,0.0,0.0,0.0,0.0,0.0,0.0,0.0,0.0,0.0,0.0,0.0,0.0,0.0,0.0,0.0,0.0,0.0,0.0,0.0,0.0,0.0,0.0,0.0,0.0,0.0,0.0,0.0,0.0,0.0,0.0,0.0,0.0,0.0,0.0,0.0,0.0,0.0,0.0,0.0,0.0,0.0,0.0,0.0,0.0,0.0,0.0,0.0,0.0,1.2401,1.3225,1.374,1.385,1.3877,1.3924,0.0,0.0,0.0,0.0,0.0,0.0,0.0,0.0,0.0,0.0,0.0,0.0,0.0,0.0,0.0,0.0,0.0,0.0,0.0,0.0,0.0,0.0,0.0,0.0,0.0,0.0,0.0,0.0,0.0,0.0,0.0,0.0,0.0,0.0,0.0,0.0,0.0,0.0,0.0,0.0,0.0,0.0,0.0,0.0,0.0,0.0,0.0,0.0,0.0,0.0,0.0,0.0,0.0,0.0,0.0,0.0,0.0,0.0,0.0,0.0,0.0,0.0,0.0,0.0,0.0,0.0,0.0,0.0,0.0,0.0,0.0,0.0,0.0,0.0,0.0,0.0,0.0,0.0,0.0,0.0,0.0,0.0,0.0,0.0,0.0,0.0,0.0,0.0,0.0,0.0,0.0,0.0,0.0,0.0,0.0,0.0,0.0,0.0,0.0,0.0,0.0,0.0,0.0,0.0,0.0,0.0,0.0,0.0,0.0,1.393,1.4771,1.5273,1.5302,1.4883,1.4678,0.0,0.0,0.0,0.0,0.0,0.0,0.0,0.0,0.0,0.0,0.0,0.0,0.0,0.0,0.0,0.0,0.0,0.0,0.0,0.0,0.0,0.0,0.0,0.0,0.0,0.0,0.0,0.0,0.0,0.0,0.0,0.0,0.0,0.0,0.0,0.0,0.0,0.0,0.0,0.0,0.0,0.0,0.0,0.0,0.0,0.0,0.0,0.0,0.0,0.0,0.0,0.0,0.0,0.0,0.0,0.0,0.0,0.0,0.0,0.0,0.0,0.0,0.0,0.0,0.0,0.0,0.0,0.0,0.0,0.0,0.0,0.0,0.0,0.0,0.0,0.0,0.0,0.0,0.0,0.0,0.0,0.0,0.0,0.0,0.0,0.0,0.0,0.0,0.0,0.0,0.0,0.0,0.0,0.0,0.0,0.0,0.0,0.0,0.0,0.0,0.0,0.0,0.0,0.0,0.0,0.0,0.0,0.0,0.0,1.5549,0.0,1.6479,1.6488,1.6083,1.5627,0.0,0.0,0.0,0.0,0.0,0.0,0.0,0.0,0.0,0.0,0.0,0.0,0.0,0.0,0.0,0.0,0.0,0.0,0.0,0.0,0.0,0.0,0.0,0.0,0.0,0.0,0.0,0.0,0.0,0.0,0.0,0.0,0.0,0.0,0.0,0.0,0.0,0.0,0.0,0.0,0.0,0.0,0.0,0.0,0.0,0.0,0.0,0.0,0.0,0.0,0.0,0.0,0.0,0.0,0.0,0.0,0.0,0.0,0.0,0.0,0.0,0.0,0.0,0.0,0.0,0.0,0.0,0.0,0.0,0.0,0.0,0.0,0.0,0.0,0.0,0.0,0.0,0.0,0.0,0.0,0.0,0.0,0.0,0.0,0.0,0.0,0.0,0.0,0.0,0.0,0.0,0.0,0.0,0.0,0.0,0.0,0.0,0.0,0.0,0.0,0.0,0.0,0.0,0.0,0.0,0.0,0.0,0.0,1.5727,1.7239,1.7316,1.7482,1.7452,1.7466,1.6747,0.0,0.0,0.0,0.0,0.0,0.0,0.0,0.0,0.0,0.0,0.0,0.0,0.0,0.0,0.0,0.0,0.0,0.0,0.0,0.0,0.0,0.0,0.0,0.0,0.0,0.0,0.0,0.0,0.0,0.0,0.0,0.0,0.0,0.0,0.0,0.0,0.0,0.0,0.0,0.0,0.0,0.0,0.0,0.0,0.0,0.0,0.0,0.0,0.0,0.0,0.0,0.0,0.0,0.0,0.0,0.0,0.0,0.0,0.0,0.0,0.0,0.0,0.0,0.0,0.0,0.0,0.0,0.0,0.0,0.0,0.0,0.0,0.0,0.0,0.0,0.0,0.0,0.0,0.0,0.0,0.0,0.0,0.0,0.0,0.0,0.0,0.0,0.0,0.0,0.0,0.0,0.0,0.0,0.0,0.0,0.0,0.0,0.0,0.0,0.0,0.0,0.0,0.0,0.0,0.0,0.0,0.0,0.0,0.0,1.9803,2.0396,2.0778,2.0815,1.9712,1.8647,0.0,0.0,0.0,0.0,0.0,0.0,0.0,0.0,0.0,0.0,0.0,0.0,0.0,0.0,0.0,0.0,0.0,0.0,0.0,0.0,0.0,0.0,0.0,0.0,0.0,0.0,0.0,0.0,0.0,0.0,0.0,0.0,0.0,0.0,0.0,0.0,0.0,0.0,0.0,0.0,0.0,0.0,0.0,0.0,0.0,0.0,0.0,0.0,0.0,0.0,0.0,0.0,0.0,0.0,0.0,0.0,0.0,0.0,0.0,0.0,0.0,0.0,0.0,0.0,0.0,0.0,0.0,0.0,0.0,0.0,0.0,0.0,0.0,0.0,0.0,0.0,0.0,0.0,0.0,0.0,0.0,0.0,0.0,0.0,0.0,0.0,0.0,0.0,0.0,0.0,0.0,0.0,0.0,0.0,0.0,0.0,0.0,0.0,0.0,0.0,0.0,0.0,0.0,0.0,0.0,0.0,0.0,0.0,0.0,2.4599,2.4266,2.3801,2.3359,2.2297,2.0809,1.8791,0.0,0.0,0.0,0.0,0.0,0.0,0.0,0.0,0.0,0.0,0.0,0.0,0.0,0.0,0.0,0.0,0.0,0.0,0.0,0.0,0.0,0.0,0.0,0.0,0.0,0.0,0.0,0.0,0.0,0.0,0.0,0.0,0.0,0.0,0.0,0.0,0.0,0.0,0.0,0.0,0.0,0.0,0.0,0.0,0.0,0.0,0.0,0.0,0.0,0.0,0.0,0.0,0.0,0.0,0.0,0.0,0.0,0.0,0.0,0.0,0.0,0.0,0.0,0.0,0.0,0.0,0.0,0.0,0.0,0.0,0.0,0.0,0.0,0.0,0.0,0.0,0.0,0.0,0.0,0.0,0.0,0.0,0.0,0.0,0.0,0.0,0.0,0.0,0.0,0.0,0.0,0.0,0.0,0.0,0.0,0.0,0.0,0.0,0.0,0.0,0.0,0.0,0.0,0.0,0.0,0.0,0.0,0.0,3.1096,2.8802,2.6888,2.534,2.5184,2.3219,0.0,0.0,0.0,0.0,0.0,0.0,0.0,0.0,0.0,0.0,0.0,0.0,0.0,0.0,0.0,0.0,0.0,0.0,0.0,0.0,0.0,0.0,0.0,0.0,0.0,0.0,0.0,0.0,0.0,0.0,0.0,0.0,0.0,0.0,0.0,0.0,0.0,0.0,0.0,0.0,0.0,0.0,0.0,0.0,0.0,0.0,0.0,0.0,0.0,0.0,0.0,0.0,0.0,0.0,0.0,0.0,0.0,0.0,0.0,0.0,0.0,0.0,0.0,0.0,0.0,0.0,0.0,0.0,0.0,0.0,0.0,0.0,0.0,0.0,0.0,0.0,0.0,0.0,0.0,0.0,0.0,0.0,0.0,0.0,0.0,0.0,0.0,0.0,0.0,0.0,0.0,0.0,0.0,0.0,0.0,0.0,0.0,0.0,0.0,0.0,0.0,0.0,0.0,0.0,0.0,0.0,0.0,0.0,0.0,3.2853,3.4104,3.3172,2.9911,2.8469,2.64,0.0,0.0,0.0,0.0,0.0,0.0,0.0,0.0,0.0,0.0,0.0,0.0,0.0,0.0,0.0,0.0,0.0,0.0,0.0,0.0,0.0,0.0,0.0,0.0,0.0,0.0,0.0,0.0,0.0,0.0,0.0,0.0,0.0,0.0,0.0,0.0,0.0,0.0,0.0,0.0,0.0,0.0,0.0,0.0,0.0,0.0,0.0,0.0,0.0,0.0,0.0,0.0,0.0,0.0,0.0,0.0,0.0,0.0,0.0,0.0,0.0,0.0,0.0,0.0,0.0,0.0,0.0,0.0,0.0,0.0,0.0,0.0,0.0,0.0,0.0,0.0,0.0,0.0,0.0,0.0,0.0,0.0,0.0,0.0,0.0,0.0,0.0,0.0,0.0,0.0,0.0,0.0,0.0,0.0,0.0,0.0,0.0,0.0,0.0,0.0,0.0,0.0,0.0,0.0,0.0,0.0,0.0,0.0,3.4062,3.5753,3.8029,3.7939,3.5299,3.2107,2.89,0.0,0.0,0.0,0.0,0.0,0.0,0.0,0.0,0.0,0.0,0.0,0.0,0.0,0.0,0.0,0.0,0.0,0.0,0.0,0.0,0.0,0.0,0.0,0.0,0.0,0.0,0.0,0.0,0.0,0.0,0.0,0.0,0.0,0.0,0.0,0.0,0.0,0.0,0.0,0.0,0.0,0.0,0.0,0.0,0.0,0.0,0.0,0.0,0.0,0.0,0.0,0.0,0.0,0.0,0.0,0.0,0.0,0.0,0.0,0.0,0.0,0.0,0.0,0.0,0.0,0.0,0.0,0.0,0.0,0.0,0.0,0.0,0.0,0.0,0.0,0.0,0.0,0.0,0.0,0.0,0.0,0.0,0.0,0.0,0.0,0.0,0.0,0.0,0.0,0.0,0.0,0.0,0.0,0.0,0.0,0.0,0.0,0.0,0.0,0.0,0.0,0.0,0.0,0.0,0.0,0.0,0.0,0.0,3.6508,3.9062,4.1008,4.1556,4.0597,3.5766,3.1213,0.0,0.0,0.0,0.0,0.0,0.0,0.0,0.0,0.0,0.0,0.0,0.0,0.0,0.0,0.0,0.0,0.0,0.0,0.0,0.0,0.0,0.0,0.0,0.0,0.0,0.0,0.0,0.0,0.0,0.0,0.0,0.0,0.0,0.0,0.0,0.0,0.0,0.0,0.0,0.0,0.0,0.0,0.0,0.0,0.0,0.0,0.0,0.0,0.0,0.0,0.0,0.0,0.0,0.0,0.0,0.0,0.0,0.0,0.0,0.0,0.0,0.0,0.0,0.0,0.0,0.0,0.0,0.0,0.0,0.0,0.0,0.0,0.0,0.0,0.0,0.0,0.0,0.0,0.0,0.0,0.0,0.0,0.0,0.0,0.0,0.0,0.0,0.0,0.0,0.0,0.0,0.0,0.0,0.0,0.0,0.0,0.0,0.0,0.0,0.0,0.0,0.0,0.0,0.0,0.0,0.0,0.0,0.0,3.8832,4.0896,4.3311,4.3938,4.252,3.8051,3.4281,0.0,0.0,0.0,0.0,0.0,0.0,0.0,0.0,0.0,0.0,0.0,0.0,0.0,0.0,0.0,0.0,0.0,0.0,0.0,0.0,0.0,0.0,0.0,0.0,0.0,0.0,0.0,0.0,0.0,0.0,0.0,0.0,0.0,0.0,0.0,0.0,0.0,0.0,0.0,0.0,0.0,0.0,0.0,0.0,0.0,0.0,0.0,0.0,2.404,0.0,0.0,0.0,0.0,0.0,0.0,0.0,0.0,0.0,0.0,0.0,0.0,0.0,0.0,0.0,0.0,0.0,0.0,0.0,0.0,0.0,0.0,0.0,0.0,0.0,0.0,0.0,0.0,0.0,0.0,0.0,0.0,0.0,0.0,0.0,0.0,0.0,0.0,0.0,0.0,0.0,0.0,0.0,0.0,0.0,0.0,0.0,0.0,0.0,0.0,0.0,0.0,0.0,0.0,0.0,0.0,0.0,0.0,0.0,4.1397,4.3311,4.5474,4.6029,4.473,4.137,3.7549,0.0,0.0,0.0,0.0,0.0,0.0,0.0,0.0,0.0,0.0,0.0,0.0,0.0,0.0,0.0,0.0,0.0,0.0,0.0,0.0,0.0,0.0,0.0,0.0,0.0,0.0,0.0,0.0,0.0,0.0,0.0,0.0,0.0,0.0,0.0,0.0,0.0,0.0,0.0,0.0,0.0,0.0,0.0,0.0,0.0,0.0,0.0,0.0,0.0,0.0,0.0,0.0,0.0,0.0,0.0,0.0,0.0,0.0,0.0,0.0,0.0,0.0,0.0,0.0,0.0,0.0,0.0,0.0,0.0,0.0,0.0,0.0,0.0,0.0,0.0,0.0,0.0,0.0,0.0,0.0,0.0,0.0,0.0,0.0,0.0,0.0,0.0,0.0,0.0,0.0,0.0,0.0,0.0,0.0,0.0,0.0,0.0,0.0,0.0,0.0,0.0,0.0,0.0,0.0,0.0,0.0,0.0,4.0554,4.4037,4.6155,4.7748,4.8124,4.7123,4.4707,4.0691,3.4972,0.0,0.0,0.0,0.0,0.0,0.0,0.0,0.0,0.0,0.0,0.0,0.0,0.0,0.0,0.0,0.0,0.0,0.0,0.0,0.0,0.0,0.0,0.0,0.0,0.0,0.0,0.0,0.0,0.0,0.0,0.0,0.0,0.0,0.0,0.0,0.0,0.0,0.0,1.9488,2.3041,0.0,0.0,0.0,0.0,0.0,0.0,0.0,0.0,2.7131,0.0,0.0,0.0,0.0,0.0,0.0,0.0,0.0,0.0,0.0,0.0,0.0,0.0,0.0,0.0,0.0,0.0,0.0,0.0,0.0,0.0,0.0,0.0,0.0,0.0,0.0,0.0,0.0,0.0,0.0,0.0,0.0,0.0,0.0,0.0,0.0,0.0,0.0,0.0,0.0,0.0,0.0,0.0,0.0,0.0,0.0,0.0,0.0,0.0,0.0,0.0,0.0,0.0,0.0,0.0,0.0,3.9083,4.2873,4.6387,4.964,5.0667,5.0512,4.903,4.6525,4.296,3.8317,0.0,0.0,0.0,0.0,0.0,0.0,0.0,0.0,0.0,0.0,0.0,0.0,0.0,0.0,0.0,0.0,0.0,0.0,0.0,0.0,0.0,0.0,0.0,0.0,0.0,0.0,0.0,0.0,0.0,0.0,0.0,0.0,0.0,0.0,0.0,0.0,0.0,0.0,0.0,2.5705,2.7685,0.0,0.0,0.0,0.0,0.0,0.0,0.0,0.0,2.9347,0.0,0.0,0.0,0.0,0.0,0.0,0.0,0.0,0.0,0.0,0.0,0.0,0.0,0.0,0.0,0.0,0.0,0.0,0.0,0.0,0.0,0.0,0.0,0.0,0.0,0.0,0.0,0.0,0.0,0.0,0.0,0.0,0.0,0.0,0.0,0.0,0.0,0.0,0.0,0.0,0.0,0.0,0.0,0.0,0.0,0.0,0.0,0.0,0.0,0.0,0.0,0.0,0.0,0.0,0.0,4.0644,4.4657,4.7965,5.0561,5.1019,5.0697,4.9482,4.6975,4.3915,0.0,0.0,0.0,0.0,0.0,0.0,0.0,0.0,0.0,0.0,0.0,0.0,0.0,0.0,0.0,0.0,0.0,0.0,0.0,0.0,0.0,0.0,0.0,0.0,0.0,0.0,0.0,0.0,0.0,0.0,0.0,0.0,0.0,0.0,0.0,0.0,0.0,0.0,0.0,0.0,2.8092,3.0172,3.2371,0.0,0.0,0.0,0.0,0.0,0.0,3.2968,3.2512,0.0,0.0,0.0,0.0,0.0,0.0,0.0,0.0,0.0,0.0,0.0,0.0,0.0,0.0,0.0,0.0,0.0,0.0,0.0,0.0,0.0,0.0,0.0,0.0,0.0,0.0,0.0,0.0,0.0,0.0,0.0,0.0,0.0,0.0,0.0,0.0,0.0,0.0,0.0,0.0,0.0,0.0,0.0,0.0,0.0,0.0,0.0,0.0,0.0,0.0,0.0,0.0,0.0,0.0,0.0,4.2187,4.6536,4.9709,5.1593,5.1713,5.1292,5.0466,4.7792,4.4871,0.0,0.0,0.0,0.0,0.0,0.0,0.0,0.0,0.0,0.0,0.0,0.0,0.0,0.0,0.0,0.0,0.0,0.0,0.0,0.0,0.0,0.0,0.0,0.0,0.0,0.0,0.0,0.0,0.0,0.0,0.0,0.0,0.0,0.0,0.0,0.0,0.0,0.0,0.0,0.0,0.0,3.2587,3.5003,3.5989,0.0,0.0,0.0,0.0,3.6141,3.6096,0.0,0.0,0.0,0.0,0.0,0.0,0.0,0.0,0.0,0.0,0.0,0.0,0.0,0.0,0.0,0.0,0.0,0.0,0.0,0.0,0.0,0.0,0.0,0.0,0.0,0.0,0.0,0.0,0.0,0.0,0.0,0.0,0.0,0.0,0.0,0.0,0.0,0.0,0.0,0.0,0.0,0.0,0.0,0.0,0.0,0.0,0.0,0.0,0.0,0.0,0.0,0.0,0.0,0.0,0.0,0.0,4.4721,4.9131,5.2552,5.488,5.5039,5.4663,5.3808,5.0563,4.681,0.0,0.0,0.0,0.0,0.0,0.0,0.0,0.0,0.0,0.0,0.0,0.0,0.0,0.0,0.0,0.0,0.0,0.0,0.0,0.0,0.0,0.0,0.0,0.0,0.0,0.0,0.0,0.0,0.0,0.0,0.0,0.0,0.0,0.0,0.0,0.0,0.0,0.0,0.0,0.0,0.0,3.4032,3.5989,3.6925,3.7656,0.0,0.0,3.8726,3.9261,3.9397,0.0,0.0,0.0,0.0,0.0,0.0,0.0,0.0,0.0,0.0,0.0,0.0,0.0,0.0,0.0,0.0,0.0,0.0,0.0,0.0,0.0,0.0,0.0,0.0,0.0,0.0,0.0,0.0,0.0,0.0,0.0,0.0,0.0,0.0,0.0,0.0,0.0,0.0,0.0,0.0,0.0,0.0,0.0,0.0,0.0,0.0,0.0,0.0,0.0,0.0,0.0,0.0,0.0,0.0,0.0,4.0681,4.5231,5.0571,5.3862,5.4851,5.494,5.4572,5.3741,5.0359,4.669,0.0,0.0,0.0,0.0,0.0,0.0,0.0,0.0,0.0,0.0,0.0,0.0,0.0,0.0,0.0,0.0,0.0,0.0,0.0,0.0,0.0,0.0,0.0,0.0,0.0,0.0,0.0,0.0,0.0,0.0,0.0,0.0,0.0,0.0,0.0,0.0,0.0,0.0,0.0,0.0,0.0,0.0,3.8927,4.0319,0.0,0.0,0.0,4.2219,4.2041,0.0,0.0,0.0,0.0,0.0,0.0,0.0,0.0,0.0,0.0,0.0,0.0,0.0,0.0,0.0,0.0,0.0,0.0,0.0,0.0,0.0,0.0,0.0,0.0,0.0,0.0,0.0,0.0,0.0,0.0,0.0,0.0,0.0,0.0,0.0,0.0,0.0,0.0,0.0,0.0,0.0,0.0,0.0,0.0,0.0,0.0,0.0,0.0,0.0,0.0,0.0,0.0,0.0,0.0,0.0,0.0,0.0,4.6318,5.1914,5.4999,5.5353,5.5387,5.5003,5.4125,5.0945,0.0,0.0,0.0,0.0,0.0,0.0,0.0,0.0,0.0,0.0,0.0,0.0,0.0,0.0,0.0,0.0,0.0,0.0,0.0,0.0,0.0,0.0,0.0,0.0,0.0,0.0,0.0,1.5925,0.0,0.0,0.0,0.0,0.0,0.0,0.0,0.0,0.0,0.0,0.0,0.0,0.0,0.0,4.0159,4.1978,4.3632,4.4546,0.0,0.0,4.5594,4.4673,4.4828,4.4366,0.0,0.0,0.0,0.0,0.0,0.0,0.0,0.0,0.0,0.0,0.0,0.0,0.0,0.0,0.0,0.0,0.0,0.0,0.0,0.0,0.0,0.0,0.0,0.0,0.0,0.0,0.0,0.0,0.0,0.0,0.0,0.0,0.0,0.0,0.0,0.0,0.0,0.0,0.0,0.0,0.0,0.0,0.0,0.0,0.0,0.0,0.0,0.0,0.0,0.0,0.0,0.0,0.0,0.0,4.4737,4.9025,5.3428,5.6425,5.7855,5.788,5.7488,5.6624,5.4078,5.0567,0.0,0.0,0.0,0.0,0.0,0.0,0.0,0.0,0.0,0.0,0.0,0.0,0.0,0.0,0.0,0.0,0.0,0.0,0.0,0.0,0.0,0.0,0.0,0.0,0.0,0.0,0.0,0.0,0.0,0.0,0.0,0.0,0.0,0.0,0.0,0.0,0.0,0.0,0.0,0.0,0.0,4.2624,4.4505,4.6129,4.7399,0.0,4.8299,4.8072,4.7284,4.7839,4.6978,4.2987,0.0,0.0,0.0,0.0,0.0,0.0,0.0,0.0,0.0,0.0,0.0,0.0,0.0,0.0,0.0,0.0,0.0,0.0,0.0,0.0,0.0,0.0,0.0,0.0,0.0,0.0,0.0,0.0,0.0,0.0,0.0,0.0,0.0,0.0,0.0,0.0,0.0,0.0,0.0,0.0,0.0,0.0,0.0,0.0,0.0,0.0,0.0,0.0,0.0,0.0,0.0,0.0,0.0,4.511,4.9358,5.415,5.7125,5.8165,5.8168,5.7712,5.6806,5.3899,5.0692,0.0,0.0,0.0,0.0,0.0,0.0,0.0,0.0,0.0,0.0,0.0,0.0,0.0,0.0,0.0,0.0,0.0,0.0,0.0,0.0,0.0,0.0,0.0,0.0,0.0,0.0,0.0,0.0,2.5843,2.7275,2.8328,0.0,0.0,0.0,0.0,0.0,0.0,0.0,0.0,0.0,0.0,4.5849,4.7115,4.9139,0.0,0.0,5.0701,5.0715,4.9805,4.9595,4.8612,4.5767,4.4506,0.0,0.0,0.0,0.0,0.0,0.0,0.0,0.0,0.0,0.0,0.0,0.0,0.0,0.0,0.0,0.0,0.0,0.0,0.0,0.0,0.0,0.0,0.0,0.0,0.0,0.0,0.0,0.0,0.0,0.0,0.0,0.0,0.0,0.0,0.0,0.0,0.0,0.0,0.0,0.0,0.0,0.0,0.0,0.0,0.0,0.0,0.0,0.0,0.0,0.0,0.0,0.0,4.5842,4.9798,5.439,5.7117,5.7832,5.7844,5.7362,5.6311,5.3682,5.1054,0.0,0.0,0.0,0.0,0.0,0.0,0.0,0.0,0.0,0.0,0.0,0.0,0.0,0.0,0.0,0.0,0.0,0.0,0.0,0.0,0.0,0.0,0.0,0.0,0.0,0.0,0.0,0.0,2.8947,3.0049,3.0231,0.0,0.0,0.0,0.0,0.0,0.0,0.0,0.0,0.0,0.0,4.9014,5.0107,5.1984,5.3034,5.2455,5.2842,5.2927,5.2014,5.1504,5.0457,4.8418,0.0,0.0,0.0,0.0,0.0,0.0,0.0,0.0,0.0,0.0,0.0,0.0,0.0,0.0,0.0,0.0,0.0,0.0,0.0,0.0,0.0,0.0,0.0,0.0,0.0,0.0,0.0,1.5914,0.0,0.0,1.7282,0.0,0.0,0.0,0.0,0.0,0.0,0.0,0.0,0.0,0.0,0.0,0.0,0.0,0.0,0.0,0.0,0.0,0.0,0.0,0.0,0.0,0.0,4.7326,5.0749,5.4305,5.6414,5.7155,5.707,5.6564,5.5562,5.3991,5.2202,5.0049,0.0,0.0,0.0,0.0,0.0,0.0,0.0,0.0,0.0,0.0,0.0,0.0,0.0,0.0,0.0,0.0,0.0,0.0,0.0,0.0,0.0,0.0,0.0,0.0,0.0,0.0,2.906,3.0725,3.142,0.0,0.0,0.0,0.0,0.0,0.0,0.0,0.0,0.0,4.7005,4.9764,5.2017,5.3547,5.4468,5.4966,5.481,5.4834,5.4569,5.382,5.3639,5.2818,0.0,0.0,0.0,0.0,0.0,0.0,0.0,0.0,0.0,0.0,0.0,0.0,0.0,0.0,0.0,0.0,0.0,0.0,0.0,0.0,0.0,0.0,0.0,0.0,0.0,0.0,0.0,2.083,2.2083,0.0,0.0,0.0,0.0,0.0,0.0,0.0,0.0,0.0,0.0,0.0,3.6619,3.7478,0.0,0.0,0.0,0.0,0.0,0.0,0.0,0.0,0.0,0.0,0.0,0.0,4.9122,5.2357,5.5252,5.7389,5.8615,5.7548,5.6701,5.6211,5.421,5.1174,4.7,0.0,0.0,0.0,0.0,0.0,0.0,0.0,0.0,0.0,0.0,0.0,0.0,0.0,0.0,0.0,0.0,0.0,0.0,0.0,0.0,0.0,0.0,0.0,0.0,0.0,3.0784,0.0,0.0,0.0,0.0,0.0,0.0,0.0,0.0,0.0,0.0,0.0,4.7016,4.9811,5.2736,5.4794,5.5364,5.6914,5.7699,0.0,0.0,0.0,0.0,0.0,0.0,0.0,0.0,0.0,0.0,0.0,0.0,0.0,0.0,4.5369,4.1816,4.135,4.1618,4.1944,0.0,0.0,0.0,0.0,0.0,0.0,0.0,0.0,0.0,0.0,0.0,0.0,0.0,0.0,2.5157,2.6835,2.681,0.0,0.0,0.0,0.0,0.0,0.0,0.0,0.0,3.8999,4.0567,4.1103,4.1872,4.2446,4.2798,4.1503,3.9147,0.0,0.0,0.0,0.0,0.0,0.0,0.0,0.0,5.0252,5.3177,5.5513,5.7301,5.8495,5.723,5.643,5.6173,5.3852,5.0625,4.6612,4.4165,4.1021,0.0,0.0,0.0,0.0,0.0,0.0,0.0,0.0,0.0,0.0,0.0,0.0,0.0,0.0,0.0,0.0,0.0,0.0,0.0,0.0,0.0,0.0,0.0,3.4331,0.0,0.0,0.0,0.0,0.0,0.0,0.0,0.0,0.0,4.745,4.8805,5.0496,5.294,5.5333,5.6999,5.751,0.0,0.0,0.0,0.0,0.0,0.0,0.0,5.8704,5.7981,5.7834,5.7471,5.6455,5.6007,5.5583,5.5039,0.0,0.0,4.7068,4.6337,4.6592,4.6845,4.8338,4.9748,5.029,5.1881,5.3447,0.0,0.0,0.0,0.0,2.4233,0.0,0.0,0.0,2.7264,2.83,0.0,2.9856,0.0,0.0,0.0,0.0,3.4876,3.7387,0.0,0.0,4.3025,4.4453,4.5276,4.4743,4.4894,4.5686,4.4988,4.4618,4.4366,4.0371,0.0,0.0,0.0,0.0,0.0,0.0,5.0883,5.3435,5.519,5.6359,5.7102,5.6303,5.5737,5.5487,5.2906,5.0706,4.8927,4.5628,4.2913,4.0957,3.6165,0.0,0.0,0.0,0.0,0.0,0.0,0.0,0.0,0.0,0.0,0.0,0.0,0.0,0.0,0.0,0.0,0.0,0.0,0.0,0.0,3.6434,0.0,0.0,0.0,0.0,0.0,0.0,0.0,0.0,0.0,0.0,5.1067,5.2306,5.3939,5.6321,0.0,0.0,0.0,0.0,5.9737,6.1147,6.1212,6.1399,6.2089,6.2235,6.202,6.135,0.0,0.0,5.931,5.9487,5.9372,5.7894,5.8336,5.7449,5.2736,5.1805,5.1877,5.252,5.3367,5.447,5.5946,5.6988,5.7908,3.5406,0.0,0.0,0.0,0.0,3.0922,3.2415,3.5074,3.3961,3.4464,3.6104,3.4997,0.0,0.0,0.0,0.0,0.0,0.0,4.219,4.4025,4.5774,4.6838,4.7347,4.8353,4.9001,4.9288,4.9137,4.9068,4.897,4.7203,4.5402,4.3666,0.0,0.0,0.0,0.0,5.4012,5.5813,5.699,5.7893,5.8613,5.7307,5.624,5.5524,5.2853,5.0913,4.9799,4.7496,4.4898,4.1939,3.9745,0.0,0.0,0.0,0.0,0.0,0.0,0.0,0.0,0.0,0.0,0.0,0.0,0.0,0.0,0.0,0.0,0.0,0.0,0.0,3.8077,4.0609,4.1835,0.0,0.0,0.0,0.0,0.0,0.0,0.0,0.0,0.0,5.5485,5.5759,5.6376,0.0,0.0,6.1433,6.1847,6.2599,6.3145,6.3087,6.3421,0.0,6.3374,6.3723,6.3819,6.3171,6.3216,6.3304,6.3285,6.3505,6.3518,6.3042,6.2777,6.2069,6.0762,5.8504,5.7198,5.7437,5.8535,5.9819,6.1016,6.2316,6.3481,4.2525,3.8009,3.5988,3.5786,3.6825,3.6175,3.7373,3.9696,3.8315,3.8626,4.0032,3.8771,3.8364,3.8686,3.8966,0.0,0.0,0.0,4.4498,4.6321,4.7702,4.8632,4.9241,5.0581,5.1298,5.1405,5.142,5.1464,5.1494,5.0981,5.0287,4.937,0.0,4.992,5.1732,5.3924,5.5939,5.776,5.8039,5.8678,5.9778,5.7901,5.6439,5.5478,5.2935,5.12,5.0526,4.843,4.6176,4.375,4.2349,3.9929,0.0,0.0,0.0,0.0,0.0,0.0,0.0,0.0,0.0,0.0,0.0,2.7506,2.9597,0.0,0.0,0.0,3.8424,4.0292,4.2001,4.4071,0.0,0.0,0.0,0.0,0.0,0.0,0.0,5.0134,5.3271,5.6275,5.8737,5.9712,6.0419,6.1068,6.2327,6.3425,6.4048,0.0,6.4799,6.567,6.5833,6.5961,6.6212,6.656,6.6706,6.6366,6.6423,6.6449,6.6566,6.668,6.6623,6.6329,6.6109,6.6012,6.5999,6.4642,6.3125,6.2118,6.3149,6.4463,6.5103,6.6223,6.7282,4.834,4.7057,4.226,4.0549,4.1015,4.0338,4.0937,4.2347,4.0961,4.1222,4.2606,4.1432,4.1307,4.2078,4.2432,0.0,4.5436,4.5547,4.6616,4.8414,4.9171,5.0008,5.0937,5.1743,5.2205,5.2386,5.2544,5.2649,5.2707,5.2725,5.3482,5.4912,5.3459,5.3035,5.3761,5.5312,5.7181,5.9365,5.8718,5.9131,6.052,5.8239,5.6505,5.5524,5.3078,5.1541,5.1065,4.879,4.6967,4.5882,4.4233,4.2521,4.0799,0.0,0.0,0.0,0.0,0.0,0.0,0.0,0.0,0.0,0.0,0.0,0.0,0.0,0.0,0.0,4.3904,0.0,4.5572,4.698,0.0,0.0,0.0,4.8915,5.0453,5.146,5.2283,5.2983,0.0,0.0,6.1274,6.3879,6.5364,6.4666,6.4543,6.5007,6.6476,6.5558,6.5632,6.8444,6.8239,6.8229,6.9268,6.951,6.9479,6.9642,7.0036,6.9522,6.9032,6.8921,6.8641,6.8017,6.8495,6.8935,6.8985,6.9402,6.9459,6.6491,6.7182,6.8256,6.8392,6.8997,6.9527,5.0783,4.9861,4.8048,4.6219,4.4577,4.4496,4.4704,4.4972,4.3642,4.3638,4.4568,4.3782,4.4026,4.5039,4.5198,4.6316,4.8137,4.8191,4.9205,5.0938,5.1172,5.1484,5.1903,5.2719,5.318,5.3301,5.4602,5.5284,5.5337,5.589,5.6375,5.6784,5.7042,5.7111,5.7082,5.8081,5.9156,6.0266,6.0717,6.083,6.0557,5.8755,5.7067,5.5524,5.3522,5.1767,5.0361,4.9499,4.8295,4.6645,4.6098,4.4725,4.2372,4.032,0.0,0.0,0.0,0.0,0.0,0.0,0.0,0.0,0.0,3.4978,3.7458,0.0,4.3604,0.0,4.7165,4.8547,4.8072,4.9027,0.0,0.0,5.1265,5.2583,5.4816,5.5928,5.6855,5.7691,6.0969,6.3689,6.4941,6.7007,6.847,6.8757,6.8195,6.7907,6.8274,6.8568,6.8898,6.9633,6.9605,6.9628,6.9995,6.9504,6.9408,7.0,6.9633,6.9339,6.9743,6.9816,6.9743,6.9573,6.9669,6.9858,6.9954,7.0514,7.0907,7.0489,7.0271,7.0309,7.1042,7.1364,7.1661,5.3217,5.2758,5.2348,5.088,4.8853,4.7992,4.7704,4.7742,4.703,4.7032,4.7512,4.6944,4.7075,4.7767,4.7866,4.8764,5.0176,5.0213,5.1046,5.25,5.2532,5.3033,5.3921,5.4451,5.4905,5.5276,5.6269,5.6747,5.6739,5.7194,5.7573,5.7998,5.8453,5.897,5.9465,5.9938,6.0319,6.0623,6.1412,6.143,6.0557,5.8953,5.7594,5.6602,5.4064,5.2187,5.1093,5.0514,4.9517,4.8141,4.7919,4.7007,4.5295,4.3536,4.1677,0.0,0.0,0.0,0.0,0.0,0.0,0.0,0.0,0.0,0.0,0.0,4.6878,4.8104,5.0006,5.116,5.1162,5.2393,5.3423,5.3993,5.5122,5.6551,5.8203,5.958,6.0805,6.1764,6.4365,6.6396,6.7159,6.9043,7.032,7.032,7.0482,7.0436,7.005,7.0073,7.033,7.1027,7.0881,7.0826,7.1232,7.0979,7.0832,7.1186,7.0891,7.066,7.1064,7.0881,7.0734,7.1064,7.0881,7.0812,7.1282,7.166,7.2028,7.2405,7.2598,7.2663,7.2704,7.2767,7.2902,5.5201,5.5201,5.5201,5.4374,5.294,5.1083,5.0304,5.0322,5.0214,5.0271,5.0456,4.9891,4.9802,5.0056,5.0139,5.0728,5.1766,5.1887,5.2536,5.3596,5.3773,5.4698,5.6154,5.6299,5.6747,5.7384,5.7497,5.7573,5.7573,5.7771,5.8256,5.8984,5.9022,5.9701,6.0942,6.1018,6.0952,6.0857,6.1601,6.16,6.0755,5.9131,5.8213,5.7866,5.4839,5.2921,5.237,5.1521,5.0628,4.9774,4.949,4.91,4.8497,4.67,4.5048,0.0,4.1877,0.0,0.0,0.0,0.0,0.0,0.0,0.0,0.0,4.7771,4.9931,5.1605,5.2608,5.3529,5.4419,5.5987,5.7039,5.7367,5.8895,6.0228,6.117,6.285,6.4301,6.5261,6.7246,6.8577,6.8677,7.051,7.1525,7.1014,7.1798,7.2272,7.1682,7.0992,7.1089,7.2449,7.2022,7.1918,7.2626,7.2852,7.2875,7.2931,7.283,7.2743,7.2641,7.2206,7.1948,7.231,7.1943,7.1801,7.2599,7.2756,7.2881,7.3111,7.3874,7.4251,7.3757,7.3683,7.372,5.5201,5.5201,5.5201,5.503,5.4677,5.374,5.2652,5.1443,5.0796,5.0627,5.0735,5.0135,5.0259,5.0917,5.0982,5.1592,5.268,5.3315,5.4257,5.5441,5.6098,5.6641,5.7133,5.7149,5.7232,5.7429,5.8112,5.8453,5.8491,5.978,6.05,6.0652,6.0652,6.0795,6.1082,0.0,0.0,0.0,6.2504,6.2494,6.1581,6.0509,5.9251,5.7874,5.6471,0.0,5.2459,5.2035,5.1407,5.047,5.0263,0.0,0.0,0.0,0.0,0.0,0.0,0.0,0.0,0.0,0.0,0.0,4.7478,4.7777,4.8181,5.0479,5.2895,5.5099,5.5544,5.6133,5.7132,5.7519,5.8439,6.0011,6.1035,6.2392,6.4509,6.6297,6.7383,6.7428,6.9612,7.1006,7.0676,7.187,7.269,7.2449,7.2846,7.2997,7.2929,7.2519,7.2552,7.305,7.2916,7.2968,7.322,7.327,7.3501,7.3729,7.4084,7.4057,7.3878,7.3942,7.3552,7.3102,7.2715,7.2678,7.2904,7.2968,7.3013,7.3294,7.3582,7.3831,7.4277,7.4872,7.5355,5.7036,5.6706,5.6763,5.6565,0.0,5.5824,5.5017,5.3854,5.2931,5.2825,5.331,5.2671,5.2823,5.3585,5.331,5.373,5.4735,5.5192,5.5997,5.7125,5.7125,5.764,5.8642,5.8218,5.8453,5.9249,5.9666,6.0113,6.0568,6.1363,6.1717,6.1637,6.1637,6.1864,6.2289,6.2668,6.2636,6.2144,6.2466,6.2579,6.2447,6.155,6.0403,5.9119,5.8141,0.0,0.0,0.0,0.0,0.0,0.0,0.0,0.0,5.142,0.0,4.9661,4.8823,4.8354,4.8317,4.8269,4.9101,5.1046,5.2354,5.2733,5.2112,5.3565,5.5191,5.6733,5.7035,5.7517,5.851,5.9384,6.0529,6.1969,6.3581,6.5148,6.626,6.7864,6.8789,6.8869,7.051,7.1595,7.0921,7.2105,7.2751,7.2486,7.2795,7.3098,7.3283,7.3217,7.3154,7.3285,7.3388,7.349,7.3615,7.4188,7.4462,7.4603,7.4909,7.5078,7.4967,7.5075,7.494,7.4284,7.4141,7.4067,7.3624,7.3319,7.3131,7.3394,7.3831,7.4203,7.4574,7.4612,7.476,5.9169,5.8578,5.8824,5.8471,5.7741,5.755,5.7074,5.6294,5.5248,0.0,0.0,5.5421,5.5545,5.6122,5.5694,5.5893,5.6622,5.6818,5.7431,5.8379,5.8002,5.8623,6.0045,5.959,6.0037,6.1296,6.1309,6.1679,6.2353,6.2487,6.2519,6.2411,6.2411,6.2676,6.3252,6.3904,6.3677,6.2516,6.2315,6.2513,6.3134,6.2348,6.1564,6.0815,5.9821,5.8541,5.6989,5.7157,5.6942,5.6161,5.5375,5.4895,5.4895,5.4131,5.3404,5.2828,5.2584,5.2498,5.2579,5.2696,5.3497,5.5133,5.6602,5.6926,5.5693,5.6364,5.7338,5.8422,5.8628,5.915,6.0198,6.1639,6.2961,6.3797,6.5864,6.7197,6.7382,6.8677,6.9614,6.9682,7.0897,7.1562,7.0857,7.1963,7.2733,7.2234,7.2644,7.3145,7.3385,7.3451,7.344,7.3503,7.3653,7.3765,7.4,7.4632,7.5329,7.501,7.5356,7.5736,7.587,7.5896,7.579,7.5417,7.5495,7.5088,7.434,7.3568,7.3236,7.3383,7.4091,7.4635,7.4375,7.3868,7.3794,6.0007,5.997,6.0727,6.0591,5.9819,5.9004,5.8178,5.736,5.6511,5.6214,5.6345,5.633,5.6415,5.6537,5.6453,5.651,5.6724,5.7463,5.8003,5.8492,5.9738,6.055,6.0947,6.1591,6.1999,6.218,6.2112,6.2115,6.2295,6.2858,6.3181,6.3143,6.3134,6.287,6.235,6.2469,6.2734,6.3134,6.3069,6.3049,6.3102,6.2742,6.2517,6.2357,6.1411,6.0385,5.9361,5.8053,5.7201,5.6985,5.6198,5.5744,5.5707,5.5114,5.4637,5.4499,5.3879,5.3795,5.4479,5.498,5.622,5.8327,5.938,5.8964,5.685,5.7975,5.9687,6.1789,6.1985,6.2793,6.4352,6.4745,6.5225,6.6149,6.6704,6.7443,6.8685,6.9695,7.0259,7.0186,7.1559,7.218,7.1507,7.2045,7.2728,7.2842,7.2973,7.3231,7.359,7.3864,7.3935,7.4056,7.4104,7.4127,7.4153,7.4263,7.4692,7.496,7.5308,7.5782,7.6068,7.6419,7.6406,7.5865,7.5976,7.5575,7.4534,7.3605,7.3387,7.3497,7.3697,7.3722,7.3722,7.3523,7.3831,6.1475,6.1205,6.1629,6.1629,6.1253,6.0849,6.0154,5.9356,5.909,5.8493,5.7778,5.7396,5.75,5.7836,5.752,5.7604,5.8063,5.8531,5.9027,5.9678,6.0441,6.1116,6.1655,6.2033,6.2487,6.2865,6.2829,6.3038,6.3482,6.386,6.3955,6.3907,6.3898,6.3936,6.4058,6.4068,6.4257,6.4586,6.3671,6.3368,6.3721,6.3569,6.3231,6.271,6.2598,6.1969,6.0651,6.0263,5.9875,5.9377,5.8958,5.8773,5.8784,5.8482,5.8328,5.8328,5.7957,5.7899,5.8196,5.8323,5.9051,6.049,6.1288,6.1484,6.0823,6.0994,6.1802,6.3319,6.3503,6.3847,6.4745,6.5211,6.5888,6.6814,6.727,6.8007,6.9036,6.9908,7.0504,7.0873,7.2001,7.2595,7.2109,7.2493,7.2904,7.3135,7.3215,7.3385,7.3665,7.3753,7.3876,7.4056,7.4151,7.4186,7.4223,7.4723,7.5051,7.5232,7.6115,7.6552,7.6618,7.714,7.7467,7.6899,7.7047,7.6781,7.546,7.4954,7.4491,7.3765,7.3715,7.3691,7.3653,7.3539,7.3831,6.3172,6.2669,6.2769,6.2656,6.2449,6.237,6.1881,6.1167,6.1128,6.0626,5.9694,5.8653,5.8634,5.9299,5.8634,5.8606,5.9187,5.929,5.9787,6.066,6.0886,6.1478,6.2352,6.254,6.3002,6.353,6.3549,6.3917,6.4483,6.4539,6.4491,6.4376,6.4385,6.4837,6.5617,6.5655,6.5748,6.5803,6.4607,6.4031,6.4216,6.4083,6.3707,6.3051,6.3455,6.314,6.1927,6.2186,6.2116,6.151,6.1288,6.1187,6.1187,6.1187,6.1187,6.1187,6.1187,6.1318,6.1504,6.1334,6.1637,6.256,6.3112,6.3748,6.447,6.4016,6.3906,6.4506,6.4653,6.4826,6.5417,6.5921,6.6648,6.7524,6.8164,6.8849,6.9553,7.0219,7.0896,7.1609,7.2457,7.2963,7.2894,7.3017,7.3151,7.3228,7.3346,7.3463,7.3527,7.354,7.3678,7.3876,7.4068,7.4162,7.42,7.4786,7.5173,7.5173,7.6262,7.6751,7.6802,7.7865,7.8329,7.7602,7.8086,7.761,7.6225,7.5863,7.5332,7.4336,7.3961,7.3911,7.3802,7.3665,7.3636,6.4951,6.4891,6.4815,6.4352,6.3445,6.3046,6.2587,6.2062,6.1587,6.1655,6.1855,6.0082,5.9802,6.0488,5.9581,5.9244,5.9356,5.9328,5.9834,6.0773,6.1535,6.2353,6.3238,6.3992,6.4407,6.4436,6.4322,6.4311,6.449,6.4412,6.4362,6.4314,6.4394,6.4797,6.5469,6.5534,6.5868,6.6486,6.6255,6.5459,6.4185,6.3931,6.3764,6.3727,6.3643,6.3576,6.3279,6.2736,6.2376,6.2264,6.1622,6.1224,6.1224,6.1224,6.1213,6.1261,6.125,6.1764,6.2986,6.3148,6.3697,6.4991,6.5162,6.5503,6.6195,6.6219,6.6182,6.6292,6.6292,6.6856,6.8251,6.8471,6.8756,6.9407,6.9701,7.0211,7.0863,7.1388,7.1884,7.2646,7.3,7.3259,7.322,7.3259,7.3322,7.3385,7.3488,7.3527,7.3463,7.345,7.3513,7.369,7.3949,7.4104,7.4118,7.4165,7.4561,7.4535,7.5136,7.6,7.6713,7.7377,7.7841,7.7779,7.8214,7.7902,7.6266,7.5493,7.5695,7.452,7.4068,7.3959,7.3851,7.3802,7.3778,6.5391,6.5391,6.5391,6.5138,6.464,6.4496,6.4039,6.3328,6.262,6.2772,6.3137,6.1321,6.0976,6.1716,6.1184,6.0904,6.097,6.0849,6.13,6.223,6.2617,6.3303,6.4224,6.4583,6.4745,6.4643,6.4549,6.4765,6.5073,6.5048,6.5038,6.5051,6.4627,6.497,6.6041,6.6143,6.6491,6.7157,6.712,6.6478,6.5429,6.4793,6.4231,6.3743,6.3624,6.359,6.359,6.3293,6.3108,6.3108,6.2784,6.2636,6.2625,6.2636,6.281,6.3293,6.3813,6.4359,6.4969,6.4911,6.531,6.6271,6.6257,6.6669,6.7774,6.7894,6.8091,6.8495,6.8201,6.8421,6.9412,6.9596,6.9779,7.0036,7.011,7.044,7.1197,7.1549,7.2022,7.2788,7.3309,7.3578,7.3527,7.3565,7.3603,7.3653,7.3703,7.3678,7.3527,7.3501,7.3488,7.3501,7.3678,7.3863,7.4022,7.4577,7.4824,7.5098,7.6037,7.6976,7.6663,7.7802,7.8429,7.7792,7.8429,7.8166,7.6356,7.6092,7.6112,7.4891,7.4297,7.4275,7.4229,7.4064,7.3935,6.586,6.58,6.5594,6.5466,6.5421,6.5443,6.5129,6.4481,6.3683,6.3791,6.4336,6.2749,6.2487,6.3052,6.2473,6.2122,6.2104,6.1967,6.257,6.3549,6.3662,6.4303,6.5414,6.549,6.5453,6.5351,6.5351,6.5586,6.6036,6.5994,6.585,6.5607,6.5161,6.5499,6.6448,6.6704,6.7161,6.7818,6.7803,6.7372,6.6553,6.5921,6.5094,6.4048,6.3925,6.3813,6.359,6.359,6.359,6.359,6.359,6.3702,6.3925,6.3925,6.4296,6.5076,6.5708,6.6191,6.6376,6.6342,6.6556,6.7135,6.7144,6.7592,6.8609,6.8898,6.9376,7.022,6.9889,6.9839,7.0293,7.044,7.0513,7.0697,7.079,7.1153,7.1719,7.2045,7.2534,7.3117,7.3615,7.3888,7.3815,7.3851,7.39,7.3864,7.3851,7.3815,7.3666,7.3628,7.364,7.3514,7.3615,7.374,7.3986,7.4394,7.4964,7.5436,7.6274,7.7013,7.6675,7.7877,7.8553,7.7691,7.8403,7.8113,7.6436,7.6167,7.6199,7.5129,7.4627,7.4633,7.4465,7.4305,7.418,6.6823,6.6642,6.5795,6.5421,6.5413,6.5421,6.5383,6.5184,6.4473,6.458,6.5108,6.4367,6.4474,6.4993,6.3213,6.2228,6.2266,6.2307,6.3122,6.4473,6.4539,6.5408,6.6927,6.7002,6.6946,6.6824,6.6767,6.6889,6.7021,6.7011,6.6498,6.5639,6.6182,6.647,6.6601,6.7026,6.7778,6.8462,6.8429,6.806,6.7354,6.7205,6.6388,6.5002,6.4779,6.4408,6.3776,6.3628,6.3628,6.3628,6.3665,6.3962,6.4631,6.4779,6.5188,6.5931,6.6128,6.6488,6.7119,6.7231,6.7456,6.7912,6.7922,6.8249,6.8926,6.9045,6.9692,7.1087,7.116,7.116,7.1233,7.1233,7.1555,7.2186,7.2544,7.2669,7.2784,7.3187,7.3653,7.3765,7.3961,7.4104,7.4139,7.4174,7.4104,7.4033,7.3959,7.3911,7.3839,7.3802,7.379,7.379,7.3814,7.3911,7.3864,7.4334,7.4404,7.4826,7.5887,7.66,7.6751,7.6976,7.7314,7.7575,7.7998,7.7605,7.6285,7.5656,7.5588,7.5184,7.5087,7.5018,7.5025,7.4687,7.4751,6.7788,6.7566,6.6068,6.5772,6.6139,6.5643,6.5413,6.5299,6.4542,6.4627,6.5108,6.4459,6.4504,6.522,6.4503,6.409,6.3975,6.3837,6.4396,6.5453,6.5576,6.6217,6.7302,6.7425,6.7398,6.7343,6.7325,6.7524,6.7949,6.7918,6.763,6.715,6.6842,6.6802,6.7049,6.7256,6.7794,6.8492,6.8506,6.8345,6.8085,6.8085,6.7528,6.6451,6.5893,6.5485,6.5236,6.4668,6.4631,6.5151,6.4668,6.4742,6.5559,6.6116,6.6525,6.6859,6.7342,6.7751,6.8011,6.8085,6.8049,6.8084,6.8083,6.8594,6.9407,6.9706,7.033,7.1651,7.2055,7.2092,7.2078,7.2092,7.2237,7.2655,7.2853,7.3003,7.3204,7.3552,7.3802,7.3839,7.4033,7.4186,7.4186,7.4186,7.4174,7.4139,7.4127,7.4068,7.3973,7.3937,7.3912,7.3839,7.3851,7.39,7.3961,7.4544,7.4976,7.5263,7.5887,7.6375,7.6638,7.7248,7.7647,7.7133,7.7452,7.7312,7.6133,7.5435,7.5297,7.5311,7.5294,7.5636,7.5774,7.5739,7.6049,6.85,6.8024,6.681,6.6575,6.6972,6.6452,6.6024,6.5719,6.5161,6.5031,6.5144,6.464,6.4692,6.5131,6.5144,6.5095,6.501,6.5091,6.5632,6.6509,6.6783,6.7416,6.816,6.8063,6.7885,6.786,6.7806,6.8186,6.8849,6.8847,6.8558,6.8015,6.7631,6.7432,6.7431,6.7621,6.802,6.8431,6.8531,6.8493,6.8531,6.8531,6.8271,6.7713,6.7156,6.6599,6.6128,6.5522,6.5448,6.5931,6.5522,6.5596,6.6451,6.7231,6.7676,6.7751,6.8159,6.8531,6.8531,6.8531,6.8383,6.8145,6.8365,6.8986,7.0004,7.033,7.1174,7.2129,7.261,7.2602,7.2667,7.27,7.2798,7.2936,7.3071,7.3244,7.3451,7.374,7.3912,7.3961,7.4092,7.4186,7.4186,7.4186,7.4186,7.4186,7.4186,7.4151,7.4092,7.4068,7.4044,7.3949,7.3949,7.4009,7.4044,7.4427,7.4662,7.4936,7.5436,7.5962,7.6324,7.7069,7.7365,7.6824,7.661,7.6571,7.6173,7.5463,7.5266,7.5313,7.5742,7.618,7.6522,7.7017,7.7244,6.8951,6.8323,6.7975,6.779,6.7881,6.7649,6.7235,6.6464,6.6314,6.5833,6.527,6.5147,6.5109,6.5161,6.5095,6.4998,6.5132,6.5761,6.6467,6.7172,6.7883,6.8641,6.9389,6.8669,6.8441,6.847,6.8565,6.902,6.973,6.9711,6.9196,6.836,6.8758,6.8443,6.7354,6.8096,6.8443,6.8493,6.8531,6.8531,6.8531,6.8531,6.8493,6.8419,6.8382,6.7751,6.6314,6.6153,6.6153,6.6228,6.6153,6.6488,6.7268,6.8011,6.8456,6.8419,6.8493,6.8493,6.8531,6.8531,6.8383,6.8244,6.8808,6.9429,7.0032,7.077,7.1578,7.2361,7.2686,7.2867,7.2936,7.3111,7.3154,7.3031,7.3411,7.3715,7.3839,7.4033,7.4186,7.4162,7.4186,7.4186,7.4186,7.4186,7.4186,7.4186,7.4186,7.4186,7.4162,7.4162,7.4174,7.4174,7.4127,7.4115,7.4151,7.4186,7.4223,7.4336,7.4873,7.5361,7.5359,7.5854,7.6297,7.6015,7.6025,7.5987,7.5911,7.5285,7.5484,7.5625,7.6187,7.6845,7.7417,7.7875,7.8113,6.9647,6.9711,6.8487,6.8249,6.8542,6.8035,6.727,6.6458,6.6437,6.598,6.53,6.5264,6.5264,6.5215,6.5136,6.5086,6.5074,6.5863,6.638,6.6527,6.6821,6.7428,6.8034,6.7921,6.8072,6.8527,6.8603,6.9058,6.9749,6.9901,6.9508,6.902,6.9185,6.8955,6.8182,6.8513,6.866,6.8506,6.8531,6.8531,6.8531,6.8531,6.8531,6.8568,6.9013,6.8791,6.7825,6.7231,6.7193,6.7676,6.7231,6.7305,6.8011,6.8345,6.8493,6.8531,6.8531,6.8531,6.8531,6.8518,6.8383,6.8331,6.8845,6.9513,7.0092,7.0881,7.1736,7.2576,7.2686,7.2742,7.3087,7.3233,7.3387,7.3501,7.3666,7.3888,7.4033,7.4139,7.4186,7.4186,7.4186,7.4186,7.4186,7.4186,7.4223,7.4186,7.4223,7.4261,7.4223,7.4261,7.4186,7.4186,7.4186,7.4298,7.4385,7.4385,7.4336,7.4261,7.4535,7.4833,7.4793,7.4911,7.5276,7.5475,7.5473,7.5493,7.5379,7.5394,7.5583,7.622,7.6908,7.7613,7.8337,7.8767,7.9081,7.0062,7.0125,6.9276,6.9112,6.937,6.8599,6.7749,6.6882,6.6581,6.601,6.5338,6.5256,6.5256,6.5215,6.5136,6.5086,6.5065,6.5562,6.5746,6.5836,6.6404,6.6897,6.7276,6.7011,6.7352,6.7996,6.8148,6.8792,6.9863,6.9891,6.9689,6.9388,6.944,6.9182,6.8684,6.8728,6.8693,6.853,6.8531,6.8531,6.8531,6.8531,6.8642,6.8939,6.9162,6.9162,6.8902,6.8456,6.8271,6.8419,6.7973,6.8011,6.8456,6.8493,6.8531,6.8531,6.8531,6.8531,6.8531,6.8445,6.8519,6.8638,6.9236,6.9915,7.0546,7.1355,7.2249,7.2715,7.2976,7.3135,7.3426,7.3603,7.3715,7.3924,7.3949,7.4021,7.4162,7.4186,7.4186,7.4186,7.4186,7.4186,7.4186,7.4535,7.446,7.431,7.446,7.4648,7.4648,7.4685,7.4723,7.4798,7.4873,7.4873,7.4685,7.461,7.4523,7.4336,7.4261,7.4431,7.4477,7.4726,7.5037,7.5232,7.5303,7.5437,7.5374,7.5457,7.5645,7.6588,7.7532,7.815,7.8797,7.9789,8.019,7.0293,6.9612,7.0178,7.0323,7.0133,6.9286,6.8397,6.7567,6.6768,6.5977,6.5338,6.5408,6.5316,6.5199,6.5234,6.5183,6.5019,6.4988,6.5066,6.5381,6.6215,6.6935,6.6859,6.648,6.6746,6.739,6.7579,6.8413,6.9825,6.9901,6.9758,6.9511,6.9501,6.9315,6.8934,6.8806,6.874,6.859,6.8518,6.8531,6.8531,6.8531,6.8791,6.9422,6.9013,6.8976,6.9274,6.9385,6.9274,6.8753,6.8753,6.8716,6.8642,6.8605,6.8828,6.8753,6.8642,6.8778,6.868,6.8791,6.8863,6.9336,6.9992,7.062,7.1236,7.2102,7.2797,7.302,7.3398,7.3715,7.3827,7.3949,7.4092,7.4174,7.4151,7.4162,7.4186,7.4186,7.4186,7.4186,7.4186,7.4186,7.4186,7.476,7.476,7.4685,7.4911,7.5173,7.5474,7.5587,7.5849,7.5849,7.5662,7.5587,7.5474,7.5023,7.4948,7.4723,7.4423,7.4255,7.4369,7.4638,7.4907,7.5053,7.5199,7.5329,7.5418,7.5492,7.6041,7.7002,7.7811,7.8522,7.937,8.0362,8.075,7.1091,7.0455,7.103,7.0913,7.0239,6.9302,6.8468,6.7652,6.6826,6.605,6.5533,6.6008,6.5916,6.5372,6.5844,6.5732,6.5129,6.5001,6.4941,6.4973,6.5267,6.5533,6.5722,6.5988,6.6556,6.739,6.7996,6.8877,6.9825,6.9901,6.9758,6.9521,6.9699,6.9559,6.9155,6.9078,6.8956,6.8717,6.859,6.8506,6.8506,6.8506,6.8568,6.8791,6.9162,6.9125,6.8976,6.9422,6.9942,7.0264,7.0276,6.9942,6.9496,6.9868,6.9905,6.9534,6.9893,7.0189,7.0113,7.0026,7.0045,7.0079,7.0716,7.1301,7.1567,7.241,7.3037,7.3374,7.3528,7.3628,7.3973,7.3997,7.4021,7.4151,7.4186,7.4186,7.4186,7.4186,7.4186,7.4186,7.4186,7.4186,7.4272,7.446,7.4723,7.4948,7.5286,7.5662,7.6,7.6338,7.6525,7.6488,7.6375,7.6338,7.615,7.5673,7.5335,7.5098,7.4746,7.4266,7.4436,7.4681,7.4912,7.5142,7.5246,7.5374,7.5427,7.5509,7.6458,7.7331,7.7901,7.8556,7.9799,8.0855,8.0888,7.0884,7.018,7.0798,7.0756,7.012,6.8951,6.8181,6.7626,6.6938,6.6329,6.6154,6.6804,6.6681,6.5985,6.6265,6.5955,6.5171,6.5001,6.5122,6.5504,6.5874,6.5836,6.5684,6.5941,6.6746,6.7845,6.8375,6.9058,6.9749,6.9901,6.9787,6.9728,6.9806,6.9679,6.9347,6.93,6.9171,6.89,6.873,6.865,6.865,6.8662,6.891,6.9047,6.9358,6.9075,6.9063,6.9459,7.0091,7.0672,7.0871,7.0685,7.0301,7.0611,7.0672,7.0227,7.0672,7.0833,7.0794,7.0742,7.0826,7.1017,7.1518,7.1877,7.2344,7.2931,7.3488,7.3678,7.3666,7.3875,7.408,7.4056,7.4056,7.4162,7.4186,7.4186,7.4186,7.4186,7.4186,7.4186,7.4186,7.4186,7.4223,7.446,7.4685,7.4986,7.5549,7.6037,7.6525,7.6863,7.7239,7.7351,7.7089,7.6938,7.6638,7.6112,7.5211,7.4986,7.4839,7.4384,7.4513,7.4739,7.4985,7.519,7.5292,7.5401,7.5445,7.5735,7.6463,7.725,7.785,7.8853,8.0188,8.0959,8.0999,7.0294,6.9513,7.0179,7.0366,7.0018,6.8612,6.8082,6.7839,6.7278,6.6896,6.7057,6.7699,6.7592,6.6827,6.6976,6.6344,6.5558,6.5559,6.5793,6.6344,6.6838,6.6951,6.6621,6.6632,6.7314,6.8375,6.8641,6.9171,6.9749,6.9901,6.9901,6.9872,6.9891,6.9767,6.9579,6.9467,6.9289,6.9067,6.8926,6.8861,6.8875,6.8863,6.9125,6.9437,6.9129,6.9208,6.9496,6.9781,7.0078,7.0858,7.0895,7.0945,7.0945,7.1056,7.1056,7.1131,7.1242,7.1378,7.1204,7.1276,7.1387,7.1993,7.2103,7.239,7.3114,7.354,7.3728,7.3888,7.4068,7.4139,7.4174,7.4174,7.4174,7.4186,7.4186,7.4186,7.4186,7.4186,7.4186,7.4186,7.4186,7.4235,7.4535,7.4873,7.5249,7.5924,7.6375,7.6863,7.7351,7.7764,7.8177,7.859,7.814,7.7551,7.7051,7.6525,7.5474,7.4735,7.4655,7.4465,7.4595,7.4805,7.5064,7.5247,7.5367,7.5409,7.5492,7.5952,7.6582,7.7385,7.8155,7.9344,8.0523,8.0899,8.1077,7.1251,7.044,7.1117,7.0989,7.0247,6.9317,6.8898,6.8893,6.8173,6.785,6.8057,6.8739,6.851,6.776,6.8149,6.8123,6.7164,6.7017,6.7241,6.7317,6.7507,6.7949,6.8039,6.8042,6.8224,6.8792,6.9323,6.9711,6.9863,6.9901,6.9901,6.9939,6.9929,6.9872,6.9843,6.9627,6.9457,6.93,6.9116,6.896,6.8918,6.8933,6.8984,6.9197,6.8987,6.9204,6.9704,6.9866,7.019,7.071,7.0871,7.0982,7.1663,7.1862,7.1849,7.1998,7.2481,7.2739,7.2735,7.2626,7.2787,7.2822,7.2951,7.3177,7.3591,7.3728,7.3912,7.4056,7.4162,7.4186,7.4186,7.4186,7.4186,7.4186,7.4186,7.4186,7.4186,7.4186,7.4186,7.4186,7.4235,7.4535,7.5249,7.5211,7.5812,7.6751,7.7351,7.7839,7.8177,7.8478,7.8816,7.9116,7.844,7.7664,7.7051,7.6349,7.526,7.4593,7.4538,7.4574,7.4701,7.5039,7.5332,7.5398,7.5385,7.5524,7.5853,7.5825,7.6369,7.741,7.8497,7.9468,8.0338,8.0739,8.1093,7.178,7.1275,7.1182,7.0858,7.0353,6.9596,6.926,6.926,6.8967,6.8759,6.8951,6.9634,6.9474,6.8671,6.8968,6.8651,6.8074,6.8143,6.8015,6.7977,6.8358,6.8865,6.8868,6.9176,6.9311,6.9313,6.9626,6.9863,6.9901,6.9939,7.0128,7.0394,7.0128,7.0166,7.0299,6.9898,6.961,6.9508,6.9321,6.9171,6.9142,6.9009,6.8884,6.8803,6.8817,6.8982,6.9197,6.9222,6.9632,7.0029,7.0054,7.0586,7.1899,7.2233,7.2345,7.2791,7.3088,7.3359,7.332,7.3423,7.3426,7.345,7.354,7.3715,7.3899,7.3985,7.4044,7.4151,7.4186,7.4186,7.4186,7.4186,7.4186,7.4186,7.4186,7.4186,7.4186,7.4186,7.4186,7.4186,7.4186,7.4798,7.5249,7.5561,7.5962,7.6788,7.7502,7.799,7.814,7.844,7.8853,7.8928,7.834,7.7664,7.6976,7.6087,7.492,7.45,7.4485,7.4606,7.4802,7.5195,7.5666,7.5693,7.5785,7.622,7.6473,7.6416,7.6654,7.804,7.9119,7.9707,8.0261,8.0854,8.1093,7.184,7.1674,7.0877,7.0532,7.0409,6.985,6.9628,6.9649,6.9625,6.9654,6.9747,7.0445,7.0193,6.9666,6.9482,6.8929,6.8602,6.8765,6.8892,6.8625,6.9463,6.9781,6.9754,7.0109,7.0313,7.0147,7.0005,6.9967,6.9967,7.0024,7.0365,7.0868,7.0337,7.0394,7.0735,7.0289,6.9767,6.9699,6.9508,6.9342,6.9278,6.9094,6.8907,6.8791,6.8782,6.8723,6.8739,6.8703,6.8889,6.9422,6.8865,6.9769,7.1143,7.2011,7.2382,7.3088,7.3237,7.3398,7.3437,7.3527,7.3653,7.3827,7.3949,7.4056,7.4139,7.4162,7.4162,7.4174,7.4186,7.4186,7.4186,7.4186,7.4186,7.4186,7.4186,7.4186,7.4186,7.4186,7.4186,7.4186,7.4272,7.4723,7.5436,7.5962,7.6338,7.6814,7.7577,7.8115,7.8253,7.8403,7.8816,7.8577,7.7926,7.6834,7.6082,7.6136,7.492,7.4971,7.4857,7.5167,7.5432,7.6308,7.6836,7.6283,7.6404,7.6849,7.6959,7.6718,7.7415,7.8823,7.9335,7.9477,8.0085,8.0939,8.1093,7.1067,7.0957,7.0834,7.0714,7.0669,7.0575,7.0489,7.0587,7.056,7.0626,7.0626,7.078,7.0731,7.0513,7.0478,7.021,6.9892,6.992,6.9949,6.975,7.0276,7.0366,7.0955,7.1022,7.1228,7.1004,7.0673,7.0369,7.0161,7.0217,7.0713,7.1035,7.0608,7.0646,7.0979,7.0561,6.9976,6.9806,6.962,6.9457,6.9289,6.905,6.8895,6.8803,6.8817,6.877,6.8699,6.8675,6.8677,6.8654,6.8568,6.9125,7.0054,7.0759,7.1552,7.2395,7.304,7.3301,7.354,7.3703,7.3839,7.3961,7.408,7.4139,7.4186,7.4186,7.4186,7.4186,7.4186,7.4186,7.4186,7.4186,7.4186,7.4186,7.4186,7.4186,7.4186,7.4186,7.4186,7.4186,7.4347,7.476,7.5624,7.645,7.6976,7.7527,7.829,7.8628,7.8741,7.8703,7.8778,7.8226,7.7384,7.6141,7.4971,7.5406,7.5281,7.5683,7.5867,7.6403,7.6886,7.7878,7.8103,7.7465,7.7233,7.7546,7.7482,7.7118,7.7645,7.8777,7.8967,7.9054,8.0131,8.1093,8.1093,7.2224,7.2112,7.1227,7.1098,7.1346,7.1021,7.085,7.085,7.0885,7.0898,7.0898,7.0891,7.0857,7.0794,7.0758,7.0669,7.0616,7.0555,7.0531,7.053,7.0552,7.0894,7.1621,7.1689,7.1939,7.2019,7.182,7.1034,7.0346,7.0671,7.126,7.1689,7.1206,7.1178,7.1464,7.0687,7.0156,6.9872,6.9709,6.9542,6.9436,6.9138,6.8929,6.8733,6.8697,6.865,6.8651,6.859,6.8554,6.8543,6.8531,6.8716,6.9236,6.9942,7.0908,7.2087,7.267,7.3167,7.3591,7.3839,7.3949,7.4009,7.4127,7.4186,7.4186,7.4186,7.4186,7.4186,7.4186,7.4186,7.4186,7.4186,7.4186,7.4186,7.4186,7.4186,7.4186,7.4186,7.4186,7.4186,7.4272,7.4873,7.6138,7.6889,7.7564,7.824,7.8954,7.9116,7.9116,7.9004,7.8853,7.8276,7.7509,7.6575,7.5555,7.5698,7.6051,7.6414,7.6855,7.7382,7.7811,7.8565,7.8723,7.8407,7.8377,7.8557,7.8009,7.7667,7.8194,7.8547,7.8714,7.9123,8.0315,8.1093,8.1093,7.2969,7.2853,7.1475,7.1283,7.1752,7.1206,7.0891,7.0898,7.0898,7.0898,7.0898,7.0891,7.0857,7.0801,7.0803,7.0805,7.0907,7.0976,7.1076,7.1274,7.1304,7.157,7.2049,7.2261,7.2626,7.3136,7.3072,7.2359,7.1357,7.1483,7.2189,7.2561,7.2099,7.2005,7.2357,7.1246,7.046,7.0081,6.9795,6.9689,6.9501,6.923,6.8949,6.8674,6.8565,6.8602,6.8626,6.8542,6.8518,6.8568,6.8679,6.8791,6.8902,6.9496,7.0723,7.2087,7.241,7.292,7.3578,7.3924,7.4009,7.4068,7.4139,7.4174,7.4186,7.4186,7.4186,7.4186,7.4186,7.4186,7.4186,7.4186,7.4186,7.4186,7.4186,7.4186,7.4186,7.4186,7.4186,7.4186,7.4186,7.5012,7.6326,7.6851,7.7377,7.839,7.9116,7.9116,7.9116,7.9116,7.8903,7.8426,7.7796,7.7148,7.658,7.6516,7.6878,7.7341,7.7775,7.829,7.8552,7.8909,7.9009,7.9238,7.9609,7.9598,7.8888,7.8185,7.8356,7.8503,7.8546,7.9231,8.0508,8.1054,8.1093,7.1206,7.1206,7.1014,7.0975,7.1091,7.0975,7.0898,7.0898,7.0898,7.0898,7.0898,7.0891,7.0902,7.0916,7.0851,7.1198,7.1643,7.1866,7.2103,7.2454,7.2545,7.2909,7.3713,7.3925,7.3773,7.4023,7.4,7.3521,7.2761,7.274,7.3148,7.3563,7.3092,7.3007,7.3362,7.1977,7.1245,7.0953,7.026,6.9703,6.9476,6.9397,6.9321,6.9211,6.9076,6.8998,6.9087,6.8995,6.8838,6.8814,6.931,6.9546,6.9682,7.0314,7.1318,7.2149,7.2571,7.287,7.3762,7.4021,7.4068,7.4127,7.4174,7.4186,7.4223,7.4298,7.4298,7.4186,7.4186,7.4186,7.4186,7.4235,7.4186,7.4336,7.4498,7.4448,7.4411,7.4861,7.4786,7.4699,7.4838,7.5513,7.6489,7.6814,7.7239,7.829,7.9116,7.9116,7.9116,7.9116,7.909,7.8663,7.8182,7.7534,7.7587,7.75,7.7719,7.8181,7.8597,7.9058,7.9235,7.947,7.9836,8.0096,8.0402,8.0057,7.8938,7.8406,7.8403,7.8357,7.8346,7.9369,8.0746,8.1016,8.1093,7.1629,7.1598,7.1091,7.1206,7.1552,7.1129,7.0898,7.0898,7.0898,7.0898,7.0898,7.0898,7.1147,7.1497,7.1552,7.2037,7.2676,7.2785,7.2886,7.3145,7.3251,7.3521,7.3981,7.4231,7.4328,7.4743,7.4766,7.4682,7.4175,7.3738,7.3729,7.3911,7.3647,7.3459,7.3915,7.2662,7.2064,7.1807,7.1454,7.1106,7.0872,7.0788,7.0734,7.0626,7.0477,7.0384,7.0312,7.0379,7.0287,7.0362,7.0735,7.0763,7.0802,7.1089,7.1709,7.2554,7.2666,7.3125,7.3942,7.4078,7.4176,7.42,7.4223,7.4186,7.4261,7.4573,7.461,7.4223,7.4186,7.4223,7.4385,7.461,7.4798,7.4948,7.5136,7.5312,7.5387,7.5537,7.5713,7.5589,7.559,7.6241,7.6729,7.689,7.7428,7.8515,7.9116,7.9116,7.9116,7.9116,7.9065,7.8974,7.8504,7.8006,7.8285,7.8481,7.8575,7.8917,7.9176,7.9556,7.9777,8.0048,8.0301,8.0182,7.9982,7.9465,7.8757,7.8406,7.8228,7.8135,7.8069,7.9277,8.04,8.0977,8.1093,7.2433,7.2157,7.1489,7.1591,7.2098,7.1245,7.0898,7.0898,7.0898,7.1014,7.1283,7.1514,7.1975,7.2399,7.2584,7.2954,7.3762,7.3658,7.3737,7.3737,7.3841,7.4133,7.4495,7.4613,7.4854,7.5309,7.5178,7.5112,7.4913,7.46,7.4201,7.4201,7.4182,7.4134,7.3858,7.323,7.265,7.2299,7.2507,7.2341,7.2106,7.2226,7.2105,7.1912,7.1825,7.1781,7.177,7.1618,7.1595,7.1584,7.1835,7.1891,7.1834,7.215,7.2548,7.3133,7.3234,7.3445,7.3989,7.4174,7.4298,7.4486,7.4711,7.4948,7.4648,7.5098,7.5249,7.4648,7.4573,7.4685,7.4911,7.5436,7.5587,7.5887,7.6112,7.6401,7.6576,7.6428,7.6391,7.6343,7.6406,7.6843,7.718,7.7079,7.7666,7.8754,7.9116,7.9116,7.9116,7.9116,7.9078,7.9063,7.898,7.8621,7.884,7.9158,7.936,7.954,7.9799,7.9935,8.006,8.0283,8.0558,8.0286,7.9848,7.9494,7.914,7.8547,7.8053,7.8319,7.8622,7.9085,7.9862,8.0592,8.1093,7.304,7.2301,7.2164,7.2091,7.2098,7.1245,7.0898,7.1014,7.0975,7.1398,7.2168,7.2815,7.3161,7.3392,7.3469,7.3853,7.4623,7.4549,7.4812,7.5148,7.545,7.5196,7.5259,7.5242,7.5339,7.5409,7.531,7.5264,7.5208,7.5009,7.4933,7.5057,7.4781,7.4846,7.4607,7.3921,7.3378,7.3151,7.3454,7.3416,7.3225,7.329,7.3384,7.2738,7.2312,7.2008,7.2035,7.2208,7.2157,7.2206,7.262,7.2898,7.2989,7.3262,7.3663,7.3787,7.3792,7.3928,7.4125,7.4223,7.461,7.5249,7.5849,7.6037,7.5436,7.5361,7.5361,7.5399,7.5324,7.5624,7.6075,7.6563,7.6563,7.6675,7.6926,7.709,7.7166,7.6954,7.6905,7.6955,7.7204,7.7577,7.7751,7.7678,7.7842,7.8879,7.9104,7.9116,7.9116,7.9116,7.9116,7.9152,7.9333,7.9277,7.9372,7.9551,7.9599,7.9789,8.0043,8.0081,8.0147,8.0448,8.0849,8.0608,8.0239,7.9906,7.9416,7.8694,7.8369,7.8815,7.9182,7.9438,8.0131,8.1016,8.1285,7.3393,7.304,7.2472,7.1905,7.136,7.1052,7.1206,7.1668,7.1713,7.2168,7.3014,7.3353,7.3776,7.4123,7.4276,7.47,7.5377,7.5334,7.5464,7.5545,7.5561,7.5514,7.5509,7.5501,7.5445,7.5383,7.5292,7.5256,7.5237,7.5142,7.5181,7.5181,7.5133,7.5065,7.4817,7.4604,7.445,7.4705,7.497,7.5084,7.5653,7.569,7.5804,7.5529,7.5422,7.4998,7.4685,7.4508,7.4125,7.384,7.397,7.3927,7.3899,7.4165,7.4248,7.4301,7.4197,7.4162,7.4212,7.4261,7.4573,7.5474,7.6488,7.7089,7.63,7.6563,7.6525,7.6375,7.615,7.645,7.66,7.7089,7.7426,7.7539,7.7677,7.7828,7.7804,7.7604,7.7528,7.7638,7.7886,7.8159,7.8308,7.8346,7.8563,7.8878,7.9004,7.9116,7.9116,7.9116,7.9116,7.9141,7.9311,7.9453,7.95,7.9638,7.9783,8.0016,8.0239,8.0352,8.0439,8.0802,8.1092,8.0842,8.0495,7.9953,7.9341,7.8699,7.8568,7.8841,7.9212,7.9615,8.0439,8.1439,8.167,7.3606,7.3502,7.2587,7.2014,7.1668,7.1398,7.1783,7.2476,7.2591,7.3046,7.3853,7.4123,7.4507,7.4969,7.513,7.5293,7.5717,7.5733,7.5662,7.5649,7.5557,7.5527,7.5509,7.5501,7.5483,7.5365,7.5329,7.5283,7.533,7.5265,7.5246,7.5303,7.5284,7.518,7.5017,7.4993,7.5311,7.5908,7.6438,7.6676,7.7244,7.7548,7.7396,7.7244,7.7044,7.6844,7.6228,7.5893,7.5563,7.5146,7.4957,7.4795,7.4722,7.4627,7.4519,7.4398,7.4335,7.4243,7.4272,7.4786,7.5124,7.5962,7.7351,7.7614,7.7426,7.7539,7.7363,7.7126,7.7013,7.7076,7.7276,7.799,7.8253,7.8328,7.8478,7.8629,7.8541,7.8415,7.8335,7.8365,7.8451,7.8373,7.84,7.8451,7.866,7.8827,7.8916,7.9041,7.9116,7.9116,7.9116,7.9165,7.9263,7.9383,7.9488,7.966,7.9843,8.0027,8.0288,8.0667,8.0878,8.1154,8.1288,8.1098,8.0628,7.9934,7.9352,7.8834,7.8703,7.8731,7.9333,8.0092,8.0977,8.1939,8.2362,7.3646,7.3502,7.2587,7.2629,7.3122,7.2476,7.2629,7.343,7.3546,7.4007,7.4738,7.5399,7.5745,7.5853,7.5777,7.5809,7.5826,7.5771,7.5729,7.5799,7.5791,7.5633,7.5662,7.573,7.573,7.5521,7.5515,7.5574,7.5474,7.5547,7.5517,7.5392,7.5403,7.5312,7.4998,7.4945,7.5349,7.6107,7.6941,7.7396,7.7813,7.8344,7.823,7.7965,7.7851,7.7775,7.732,7.6865,7.6411,7.588,7.5339,7.5064,7.4854,7.4722,7.4617,7.4509,7.4436,7.435,7.4359,7.5699,7.6413,7.6675,7.7915,7.829,7.8002,7.7927,7.7964,7.7764,7.7877,7.8215,7.8628,7.8966,7.8928,7.8916,7.9029,7.9016,7.889,7.876,7.8616,7.8482,7.8386,7.8318,7.8359,7.8441,7.8629,7.8774,7.8864,7.8966,7.9079,7.9116,7.9116,7.9141,7.9214,7.9311,7.9442,7.9683,7.9892,8.0076,8.0288,8.0591,8.0905,8.1149,8.1219,8.123,8.0796,8.0094,7.9553,7.9007,7.9097,7.9292,8.0068,8.0882,8.1745,8.2439,8.2901,7.3813,7.2732,7.2356,7.2706,7.3315,7.2591,7.2976,7.4238,7.4853,7.5322,7.5553,7.5938,7.5976,7.6,7.5955,7.5918,7.591,7.5737,7.5761,7.6433,7.6347,7.6732,7.68,7.6465,7.6265,7.6265,7.6229,7.5791,7.5501,7.5744,7.5762,7.5645,7.5338,7.5256,7.5275,7.5499,7.6097,7.6941,7.7775,7.8457,7.8988,7.9253,7.9253,7.895,7.8912,7.8685,7.8219,7.7727,7.7158,7.64,7.5784,7.5453,7.5064,7.4829,7.468,7.4595,7.4551,7.4636,7.5246,7.6413,7.7389,7.7689,7.7952,7.8553,7.859,7.8152,7.8253,7.8478,7.8478,7.8741,7.9041,7.9079,7.9029,7.9004,7.9041,7.8902,7.8774,7.8642,7.8509,7.84,7.829,7.829,7.8318,7.8531,7.8732,7.8794,7.8899,7.8978,7.9054,7.9091,7.9116,7.9116,7.9165,7.9251,7.9395,7.9868,8.0004,8.0064,8.0195,8.0363,8.0688,8.1052,8.1279,8.1337,8.0846,8.0289,7.9581,7.9133,7.956,8.0022,8.0545,8.1286,8.212,8.2907,8.3593,7.3337,7.2281,7.1887,7.2591,7.3661,7.3014,7.3591,7.5053,7.5745,7.5976,7.5976,7.5976,7.5976,7.5993,7.5933,7.6163,7.6216,7.6164,7.6475,7.7164,7.7179,7.7449,7.7526,7.7211,7.6658,7.6611,7.6326,7.5935,7.5843,7.6043,7.5805,7.5425,7.5247,7.5399,7.5578,7.601,7.6486,7.7282,7.8078,7.8912,7.9481,7.9822,7.986,7.9784,7.9708,7.9546,7.9069,7.8615,7.8095,7.7089,7.6379,7.5945,7.5394,7.4985,7.4809,7.4686,7.4864,7.5148,7.6056,7.6988,7.7814,7.8328,7.829,7.8553,7.8853,7.8328,7.8478,7.8703,7.8853,7.8928,7.9004,7.9004,7.9029,7.9004,7.8941,7.8851,7.8721,7.8602,7.8455,7.8345,7.829,7.829,7.8402,7.8615,7.8833,7.8922,7.8956,7.9089,7.9179,7.9116,7.9179,7.9266,7.9504,7.9804,8.0001,8.0255,8.0295,8.0125,8.014,8.0179,8.0515,8.084,8.116,8.129,8.0507,7.9858,7.9359,7.9209,7.9686,8.0103,8.0543,8.1393,8.2408,8.3242,8.4022,7.2456,7.2105,7.136,7.2476,7.4284,7.3776,7.4476,7.5938,7.5976,7.5976,7.5976,7.5976,7.6007,7.5947,7.5918,7.6178,7.6673,7.6688,7.7223,7.7782,7.7955,7.8137,7.7984,7.7526,7.7175,7.6577,7.6206,7.6235,7.6256,7.5779,7.5389,7.5228,7.5114,7.5474,7.5918,7.6379,7.6838,7.7661,7.8495,7.9205,7.9751,7.9876,7.9854,7.9843,7.9745,7.9712,7.9349,7.8982,7.8614,7.7857,7.7084,7.6455,7.587,7.5339,7.5012,7.4972,7.5343,7.5905,7.6754,7.7661,7.8239,7.8741,7.8966,7.9066,7.8853,7.844,7.844,7.8553,7.8628,7.8703,7.8816,7.8853,7.8891,7.8891,7.8878,7.8801,7.8708,7.8576,7.8441,7.8345,7.8304,7.8402,7.8662,7.8861,7.9298,7.9497,7.961,7.9732,7.9702,7.9142,7.9291,7.9567,7.9892,8.0493,8.0679,8.0737,8.0844,8.0763,8.0106,8.0043,8.0368,8.0667,8.09,8.0791,7.9999,7.954,7.9746,7.978,7.9763,8.0229,8.0684,8.1634,8.2689,8.353,8.4318,7.4298,7.3129,7.2853,7.3199,7.3853,7.4199,7.5007,7.5938,7.5976,7.5976,7.5976,7.5976,7.5985,7.5925,7.5802,7.5906,7.6169,7.6582,7.7256,7.787,7.8596,7.9169,7.9207,7.8739,7.8159,7.7521,7.7026,7.6303,7.576,7.5293,7.5293,7.5264,7.5095,7.5568,7.6202,7.6776,7.7455,7.823,7.9026,7.9448,7.9707,7.9799,7.9754,7.9683,7.9649,7.9604,7.9441,7.9339,7.8973,7.8332,7.8003,7.7403,7.6059,7.587,7.5714,7.5582,7.5852,7.6304,7.7476,7.7921,7.835,7.8953,7.9129,7.9116,7.8891,7.8553,7.8328,7.8515,7.8365,7.8415,7.8478,7.8515,7.8616,7.8629,7.8628,7.8587,7.853,7.8509,7.8373,7.8369,7.8327,7.8699,7.8959,7.9479,7.9879,8.0126,8.0348,8.0474,8.0335,7.9816,7.9654,8.0017,8.0481,8.1107,8.1069,8.1068,8.1303,8.1335,8.0606,8.0124,8.0417,8.0667,8.0715,8.0737,8.0732,8.072,8.0805,8.0756,8.0696,8.0583,8.1031,8.1984,8.2936,8.3656,8.4528,7.4585,7.3129,7.3353,7.3647,7.4002,7.4427,7.5111,7.5818,7.5947,7.5976,7.5969,7.5978,7.594,7.5879,7.5777,7.5841,7.6242,7.6623,7.7335,7.8566,7.9025,7.9675,7.9895,7.9323,7.8332,7.777,7.7056,7.6103,7.5647,7.5618,7.5656,7.5227,7.5085,7.5758,7.6544,7.7231,7.8013,7.8836,7.9546,7.9778,7.9799,7.9705,7.9638,7.9569,7.9523,7.9477,7.9442,7.9465,7.9244,7.8784,7.8682,7.8111,7.7023,7.6855,7.6628,7.6571,7.6922,7.7337,7.8066,7.8551,7.8834,7.9076,7.919,7.9165,7.8828,7.8478,7.859,7.8741,7.8302,7.8002,7.8115,7.8177,7.8253,7.8329,7.834,7.8322,7.8325,7.8377,7.8382,7.8378,7.8625,7.9033,7.9479,7.9999,8.0422,8.0642,8.0917,8.1208,8.1107,8.0703,8.0618,8.0843,8.1256,8.1757,8.1645,8.1671,8.1845,8.179,8.1013,8.0636,8.0687,8.0629,8.0667,8.1311,8.2031,8.1957,8.1816,8.1807,8.1769,8.1544,8.1299,8.19,8.273,8.3531,8.4491,7.3808,7.2552,7.3231,7.3841,7.4351,7.4428,7.4895,7.5601,7.5848,7.5993,7.597,7.5918,7.5872,7.5817,7.5712,7.5944,7.6284,7.6597,7.7258,7.9063,7.9216,7.9598,7.937,7.878,7.8104,7.7179,7.6417,7.5912,7.5994,7.5873,7.5609,7.5247,7.5256,7.5928,7.7134,7.7562,7.8344,7.9443,7.9784,7.9876,7.9832,7.9739,7.966,7.9604,7.9512,7.9418,7.9371,7.9406,7.9488,7.9244,7.901,7.8603,7.8187,7.7661,7.7386,7.744,7.7679,7.8106,7.8493,7.8878,7.9114,7.9258,7.9323,7.9263,7.8951,7.8603,7.8778,7.8778,7.8415,7.8152,7.8152,7.8115,7.8153,7.8504,7.8753,7.9035,7.9391,7.9156,7.867,7.8703,7.8885,7.933,7.9962,8.052,8.138,8.1386,8.1662,8.2043,8.2019,8.1715,8.1643,8.1707,8.1932,8.2345,8.2659,8.266,8.2573,8.2244,8.1458,8.1332,8.1532,8.1148,8.058,8.1717,8.2903,8.291,8.2836,8.2743,8.2506,8.2038,8.1861,8.192,8.2531,8.3371,8.4248,7.3952,7.4123,7.4257,7.3691,7.2809,7.3975,7.4611,7.4849,7.5502,7.5794,7.5786,7.5771,7.5723,7.5666,7.5625,7.5795,7.5888,7.6406,7.6885,7.7802,7.8528,7.8834,7.8845,7.8541,7.7903,7.7056,7.6275,7.5723,7.5628,7.5561,7.5551,7.537,7.5589,7.648,7.7458,7.7876,7.8798,7.9822,7.9898,7.9865,7.9799,7.9626,7.9512,7.9418,7.9311,7.9323,7.9299,7.9347,7.9488,7.949,7.9509,7.9144,7.8598,7.7851,7.7813,7.8106,7.8084,7.8485,7.8922,7.9131,7.9165,7.9425,7.9479,7.9371,7.9174,7.8952,7.8791,7.8753,7.8666,7.844,7.829,7.8215,7.8303,7.8829,7.924,7.9837,8.0408,7.981,7.9097,7.914,7.927,7.9814,8.052,8.1254,8.2041,8.2588,8.2953,8.3219,8.3257,8.3067,8.2706,8.2683,8.2533,8.2871,8.326,8.3374,8.315,8.2748,8.2078,8.2118,8.2328,8.2198,8.202,8.2892,8.3699,8.3695,8.3626,8.3541,8.3221,8.271,8.2317,8.2339,8.255,8.3267,8.4039,7.3738,7.4147,7.4044,7.3837,7.3682,7.4169,7.4574,7.5004,7.5425,7.5616,7.5625,7.5649,7.5641,7.5583,7.5557,7.557,7.5594,7.593,7.6418,7.7029,7.7526,7.7984,7.8101,7.8045,7.7426,7.6626,7.6065,7.5551,7.5349,7.532,7.5387,7.549,7.6037,7.6786,7.7564,7.8287,7.9074,7.9822,7.9898,7.9865,7.9788,7.9638,7.9569,7.9453,7.9383,7.9359,7.9359,7.9406,7.9512,7.966,7.969,7.9632,7.9242,7.8874,7.8836,7.895,7.8977,7.888,7.9329,7.9436,7.9316,7.974,7.9656,7.9561,8.0033,7.9813,7.9365,7.9353,7.9554,7.9391,7.9429,7.9391,7.9729,8.0178,8.0014,8.015,8.0595,8.0586,8.0176,8.0116,8.0409,8.0962,8.158,8.2043,8.2733,8.2974,8.3466,8.362,8.3771,8.398,8.3695,8.3509,8.3284,8.3359,8.3735,8.3736,8.3525,8.3088,8.2633,8.2548,8.2608,8.3135,8.3623,8.39,8.4165,8.4446,8.4378,8.4202,8.391,8.343,8.3039,8.272,8.3008,8.3181,8.3591,7.3301,7.331,7.3492,7.4103,7.5077,7.4694,7.4783,7.5403,7.5518,7.5518,7.5574,7.571,7.5689,7.5587,7.5514,7.5527,7.5548,7.5662,7.6044,7.6341,7.6723,7.7029,7.7108,7.7015,7.6673,7.6264,7.5722,7.5483,7.5356,7.5365,7.5459,7.5647,7.6264,7.6998,7.769,7.8453,7.9285,7.9719,7.9898,7.9898,7.9854,7.975,7.9683,7.9626,7.9581,7.9512,7.9512,7.9546,7.9592,7.9694,7.9832,7.9789,7.9773,7.9556,7.9632,7.9632,7.9632,7.9632,7.9849,7.98,8.0086,8.0306,7.9981,8.0001,8.0426,8.042,8.0011,8.0002,8.0229,8.0481,8.0481,8.0593,8.0967,8.1391,8.1014,8.0737,8.1107,8.1401,8.1231,8.1098,8.1452,8.1992,8.233,8.2793,8.3037,8.3315,8.3443,8.3596,8.3784,8.3929,8.3947,8.3885,8.3772,8.3922,8.411,8.3999,8.3813,8.359,8.3186,8.2938,8.2926,8.3623,8.4059,8.4086,8.4389,8.4753,8.4878,8.4756,8.4426,8.4105,8.3967,8.3641,8.3121,8.3266,8.3133,7.2366,7.244,7.4366,7.4615,7.3824,7.4707,7.5356,7.5471,7.5509,7.5509,7.5671,7.6159,7.6215,7.5535,7.5527,7.5509,7.5509,7.5509,7.5509,7.5739,7.6303,7.6312,7.6285,7.6422,7.613,7.5786,7.5517,7.5504,7.5418,7.5427,7.5483,7.553,7.6958,7.756,7.7806,7.8673,7.9566,7.9865,7.9898,7.9898,7.9876,7.981,7.9743,7.9638,7.9569,7.9581,7.9615,7.9649,7.9728,7.9805,7.9887,7.9898,7.9898,7.9898,7.9898,7.9898,7.9898,7.9898,7.9898,7.9898,8.0195,8.0309,7.9983,7.9912,8.0337,8.067,8.0464,8.0597,8.0864,8.1344,8.1457,8.1533,8.1832,8.2483,8.2556,8.2378,8.2449,8.2334,8.2118,8.1985,8.1978,8.2244,8.2421,8.2742,8.2957,8.313,8.3088,8.3315,8.3916,8.402,8.411,8.411,8.411,8.411,8.411,8.415,8.3976,8.3879,8.3788,8.3578,8.3691,8.4271,8.4582,8.4517,8.4686,8.5045,8.5122,8.5077,8.5018,8.4762,8.4904,8.4663,8.3949,8.339,8.3305]}]]